[[{"header":{"parameterUnit":"m.s-1","parameterCategory":1,"la1":30.6,"la2":28.766,"lo1":-90.7593,"lo2":-88.6598,"dy":0.0162,"dx":0.0183,"nx":116,"ny":114,"refTime":"2023-05-27T06:00:00:Z","depth":0,"parameterNumber":2,"parameterNumberName":"U-component_of_WINDS"},"data":[0.0,0.0,0.0,0.0,0.0,0.0,0.0,0.0,0.0,0.0,0.0,0.0,0.0,0.0,0.0,0.0,0.0,0.0,0.0,0.0,0.0,0.0,0.0,0.0,0.0,0.0,0.0,0.0,0.0,0.0,0.0,0.0,0.0,0.0,0.0,0.0,0.0,0.0,0.0,0.0,0.0,0.0,0.0,0.0,0.0,0.0,0.0,0.0,0.0,0.0,0.0,0.0,0.0,0.0,0.0,0.0,0.0,0.0,0.0,0.0,0.0,0.0,0.0,0.0,0.0,0.0,0.0,0.0,0.0,0.0,0.0,0.0,0.0,0.0,0.0,0.0,0.0,0.0,0.0,0.0,0.0,0.0,0.0,0.0,0.0,0.0,0.0,0.0,0.0,0.0,0.0,0.0,0.0,0.0,0.0,0.0,0.0,0.0,0.0,0.0,0.0,0.0,0.0,0.0,0.0,0.0,0.0,0.0,0.0,0.0,0.0,0.0,0.0,0.0,0.0,0.0,0.0,0.0,0.0,0.0,0.0,0.0,0.0,0.0,0.0,0.0,0.0,0.0,0.0,0.0,0.0,0.0,0.0,0.0,0.0,0.0,0.0,0.0,0.0,0.0,0.0,0.0,0.0,0.0,0.0,0.0,0.0,0.0,0.0,0.0,0.0,0.0,0.0,0.0,0.0,0.0,0.0,0.0,0.0,0.0,0.0,0.0,0.0,0.0,0.0,0.0,0.0,0.0,0.0,0.0,0.0,0.0,0.0,0.0,0.0,0.0,0.0,0.0,0.0,0.0,0.0,0.0,0.0,0.0,0.0,0.0,0.0,0.0,0.0,0.0,0.0,0.0,0.0,0.0,0.0,0.0,0.0,0.0,0.0,0.0,0.0,0.0,0.0,0.0,0.0,0.0,0.0,0.0,0.0,0.0,0.0,0.0,0.0,0.0,0.0,0.0,0.0,0.0,0.0,0.0,0.0,0.0,0.0,0.0,0.0,0.0,0.0,0.0,0.0,0.0,0.0,0.0,0.0,0.0,0.0,0.0,0.0,0.0,0.0,0.0,0.0,0.0,0.0,0.0,0.0,0.0,0.0,0.0,0.0,0.0,0.0,0.0,0.0,0.0,0.0,0.0,0.0,0.0,0.0,0.0,0.0,0.0,0.0,0.0,0.0,0.0,0.0,0.0,0.0,0.0,0.0,0.0,0.0,0.0,0.0,0.0,0.0,0.0,0.0,0.0,0.0,0.0,0.0,0.0,0.0,0.0,0.0,0.0,0.0,0.0,0.0,0.0,0.0,0.0,0.0,0.0,0.0,0.0,0.0,0.0,0.0,0.0,0.0,0.0,0.0,0.0,0.0,0.0,0.0,0.0,0.0,0.0,0.0,0.0,0.0,0.0,0.0,0.0,0.0,0.0,0.0,0.0,0.0,0.0,0.0,0.0,0.0,0.0,0.0,0.0,0.0,0.0,0.0,0.0,0.0,0.0,0.0,0.0,0.0,0.0,0.0,0.0,0.0,0.0,0.0,0.0,0.0,0.0,0.0,0.0,0.0,0.0,0.0,0.0,0.0,0.0,0.0,0.0,0.0,0.0,0.0,0.0,0.0,0.0,0.0,0.0,0.0,0.0,0.0,0.0,0.0,0.0,0.0,0.0,0.0,0.0,0.0,0.0,0.0,0.0,0.0,0.0,0.0,0.0,0.0,0.0,0.0,0.0,0.0,0.0,0.0,0.0,0.0,0.0,0.0,0.0,0.0,0.0,0.0,0.0,0.0,0.0,0.0,0.0,0.0,0.0,0.0,0.0,0.0,0.0,0.0,0.0,0.0,0.0,0.0,0.0,0.0,0.0,0.0,0.0,0.0,0.0,0.0,0.0,0.0,0.0,0.0,0.0,0.0,0.0,0.0,0.0,0.0,0.0,0.0,0.0,0.0,0.0,0.0,0.0,0.0,0.0,0.0,0.0,0.0,0.0,0.0,0.0,0.0,0.0,0.0,0.0,0.0,0.0,0.0,0.0,0.0,0.0,0.0,0.0,0.0,0.0,0.0,0.0,0.0,0.0,0.0,0.0,0.0,0.0,0.0,0.0,0.0,0.0,0.0,0.0,0.0,0.0,0.0,0.0,0.0,0.0,0.0,0.0,0.0,0.0,0.0,0.0,0.0,0.0,0.0,0.0,0.0,0.0,0.0,0.0,0.0,0.0,0.0,0.0,0.0,0.0,0.0,0.0,0.0,0.0,0.0,0.0,0.0,0.0,0.0,0.0,0.0,0.0,0.0,0.0,0.0,0.0,0.0,0.0,0.0,0.0,0.0,0.0,0.0,0.0,0.0,0.0,0.0,0.0,0.0,0.0,0.0,0.0,0.0,0.0,0.0,0.0,0.0,0.0,0.0,0.0,0.0,0.0,0.0,0.0,0.0,0.0,0.0,0.0,0.0,0.0,0.0,0.0,0.0,0.0,0.0,0.0,0.0,0.0,0.0,0.0,0.0,0.0,0.0,0.0,0.0,0.0,0.0,0.0,0.0,0.0,0.0,0.0,0.0,0.0,0.0,0.0,0.0,0.0,0.0,0.0,0.0,0.0,0.0,0.0,0.0,0.0,0.0,0.0,0.0,0.0,0.0,0.0,0.0,0.0,0.0,0.0,0.0,0.0,0.0,0.0,0.0,0.0,0.0,0.0,0.0,0.0,0.0,0.0,0.0,0.0,0.0,0.0,0.0,0.0,0.0,0.0,0.0,0.0,0.0,0.0,0.0,0.0,0.0,0.0,0.0,0.0,0.0,0.0,0.0,0.0,0.0,0.0,0.0,0.0,0.0,0.0,0.0,0.0,0.0,0.0,0.0,0.0,0.0,0.0,0.0,0.0,0.0,0.0,0.0,0.0,0.0,0.0,0.0,0.0,0.0,0.0,0.0,0.0,0.0,0.0,0.0,0.0,0.0,0.0,0.0,0.0,0.0,0.0,0.0,0.0,0.0,0.0,0.0,0.0,0.0,0.0,0.0,0.0,0.0,0.0,0.0,0.0,0.0,0.0,0.0,0.0,0.0,0.0,0.0,0.0,0.0,0.0,0.0,0.0,0.0,0.0,0.0,0.0,0.0,0.0,0.0,0.0,0.0,0.0,0.0,0.0,0.0,0.0,0.0,0.0,0.0,0.0,0.0,0.0,0.0,0.0,0.0,0.0,0.0,0.0,0.0,0.0,0.0,0.0,0.0,0.0,0.0,0.0,0.0,0.0,0.0,0.0,0.0,0.0,0.0,0.0,0.0,0.0,0.0,0.0,0.0,0.0,0.0,0.0,0.0,0.0,0.0,0.0,0.0,0.0,0.0,0.0,0.0,0.0,0.0,0.0,0.0,0.0,0.0,0.0,0.0,0.0,0.0,0.0,0.0,0.0,0.0,0.0,0.0,0.0,0.0,0.0,0.0,0.0,0.0,0.0,0.0,0.0,0.0,0.0,0.0,0.0,0.0,0.0,0.0,0.0,0.0,0.0,0.0,0.0,0.0,0.0,0.0,0.0,0.0,0.0,0.0,0.0,0.0,0.0,0.0,0.0,0.0,0.0,0.0,0.0,0.0,0.0,0.0,0.0,0.0,0.0,0.0,0.0,0.0,0.0,0.0,0.0,0.0,0.0,0.0,0.0,0.0,0.0,0.0,0.0,0.0,0.0,0.0,0.0,0.0,0.0,0.0,0.0,0.0,0.0,0.0,0.0,0.0,0.0,0.0,0.0,0.0,0.0,0.0,0.0,0.0,0.0,0.0,0.0,0.0,0.0,0.0,0.0,0.0,0.0,0.0,0.0,0.0,0.0,0.0,0.0,0.0,0.0,0.0,0.0,0.0,0.0,0.0,0.0,0.0,0.0,0.0,0.0,0.0,0.0,0.0,0.0,0.0,0.0,0.0,0.0,0.0,0.0,0.0,0.0,0.0,0.0,0.0,0.0,0.0,0.0,0.0,0.0,0.0,0.0,0.0,0.0,0.0,0.0,0.0,0.0,0.0,0.0,0.0,0.0,0.0,0.0,0.0,0.0,0.0,0.0,0.0,0.0,0.0,0.0,0.0,0.0,0.0,0.0,0.0,0.0,0.0,0.0,0.0,0.0,0.0,0.0,0.0,0.0,0.0,0.0,0.0,0.0,0.0,0.0,0.0,0.0,0.0,0.0,0.0,0.0,0.0,0.0,0.0,0.0,0.0,0.0,0.0,0.0,0.0,0.0,0.0,0.0,0.0,0.0,0.0,0.0,0.0,0.0,0.0,0.0,0.0,0.0,0.0,0.0,0.0,0.0,0.0,0.0,0.0,0.0,0.0,0.0,0.0,0.0,0.0,0.0,0.0,0.0,0.0,0.0,0.0,0.0,0.0,0.0,0.0,0.0,0.0,0.0,0.0,0.0,0.0,0.0,0.0,0.0,0.0,0.0,0.0,0.0,0.0,0.0,0.0,0.0,0.0,0.0,0.0,0.0,0.0,0.0,0.0,0.0,0.0,0.0,0.0,0.0,0.0,0.0,0.0,0.0,0.0,0.0,0.0,0.0,0.0,0.0,0.0,0.0,0.0,0.0,0.0,0.0,0.0,0.0,0.0,0.0,0.0,0.0,0.0,0.0,0.0,0.0,0.0,0.0,0.0,0.0,0.0,0.0,0.0,0.0,0.0,0.0,0.0,0.0,0.0,0.0,0.0,0.0,0.0,0.0,0.0,0.0,0.0,0.0,0.0,0.0,0.0,0.0,0.0,0.0,0.0,0.0,0.0,0.0,0.0,0.0,0.0,0.0,0.0,0.0,0.0,0.0,0.0,0.0,0.0,0.0,0.0,0.0,0.0,0.0,0.0,0.0,0.0,0.0,0.0,0.0,0.0,0.0,0.0,0.0,0.0,0.0,0.0,0.0,0.0,0.0,0.0,0.0,0.0,0.0,0.0,0.0,0.0,0.0,0.0,0.0,0.0,0.0,0.0,0.0,0.0,0.0,0.0,0.0,0.0,0.0,0.0,0.0,0.0,0.0,0.0,0.0,0.0,0.0,0.0,0.0,0.0,0.0,0.0,0.0,0.0,0.0,0.0,0.0,0.0,0.0,0.0,0.0,0.0,0.0,0.0,0.0,0.0,0.0,0.0,0.0,0.0,0.0,0.0,0.0,0.0,0.0,0.0,0.0,0.0,0.0,0.0,0.0,0.0,0.0,0.0,0.0,0.0,0.0,0.0,0.0,0.0,0.0,0.0,0.0,0.0,0.0,0.0,0.0,0.0,0.0,0.0,0.0,0.0,0.0,0.0,0.0,0.0,0.0,0.0,0.0,0.0,0.0,0.0,0.0,0.0,0.0,0.0,0.0,0.0,0.0,0.0,0.0,0.0,0.0,0.0,0.0,0.0,0.0,0.0,0.0,0.0,0.0,0.0,0.0,0.0,0.0,0.0,0.0,0.0,0.0,0.0,0.0,0.0,0.0,0.0,0.0,0.0,0.0,0.0,0.0,0.0,0.0,0.0,0.0,0.0,0.0,0.0,0.0,0.0,0.0,0.0,0.0,0.0,0.0,0.0,0.0,0.0,0.0,0.0,0.0,0.0,0.0,0.0,0.0,0.0,0.0,0.0,0.0,0.0,0.0,0.0,0.0,0.0,0.0,0.0,0.0,0.0,0.0,0.0,0.0,0.0,0.0,0.0,0.0,0.0,0.0,0.0,0.0,0.0,0.0,0.0,0.0,0.0,0.0,0.0,0.0,0.0,0.0,0.0,0.0,0.0,0.0,0.0,0.0,0.0,0.0,0.0,0.0,0.0,0.0,0.0,0.0,0.0,0.0,0.0,0.0,0.0,0.0,0.0,0.0,0.0,0.0,0.0,0.0,0.0,0.0,0.0,0.0,0.0,0.0,0.0,0.0,0.0,0.0,0.0,0.0,0.0,0.0,0.0,0.0,0.0,0.0,0.0,0.0,0.0,0.0,0.0,0.0,0.0,0.0,0.0,0.0,0.0,0.0,0.0,0.0,0.0,0.0,0.0,0.0,0.0,0.0,0.0,0.0,0.0,0.0,0.0,0.0,0.0,0.0,0.0,0.0,0.0,0.0,0.0,0.0,0.0,0.0,0.0,0.0,0.0,0.0,-3.3917,0.0,0.0,0.0,0.0,0.0,0.0,0.0,0.0,0.0,0.0,0.0,0.0,0.0,0.0,0.0,0.0,0.0,0.0,0.0,0.0,0.0,0.0,0.0,0.0,0.0,0.0,0.0,0.0,0.0,0.0,0.0,0.0,0.0,0.0,0.0,0.0,0.0,0.0,0.0,-3.0683,-3.0661,-3.0617,-3.1102,-3.1274,-3.1142,0.0,0.0,0.0,0.0,0.0,0.0,0.0,0.0,0.0,0.0,0.0,0.0,0.0,0.0,0.0,0.0,0.0,0.0,0.0,0.0,0.0,0.0,0.0,0.0,0.0,0.0,0.0,0.0,0.0,0.0,0.0,0.0,0.0,0.0,0.0,0.0,0.0,0.0,0.0,0.0,0.0,0.0,0.0,0.0,0.0,0.0,0.0,0.0,0.0,0.0,0.0,0.0,0.0,0.0,0.0,0.0,0.0,0.0,0.0,0.0,0.0,0.0,0.0,0.0,0.0,0.0,0.0,0.0,0.0,0.0,0.0,-3.503,0.0,0.0,0.0,0.0,0.0,0.0,0.0,0.0,0.0,0.0,0.0,0.0,0.0,0.0,0.0,0.0,0.0,0.0,0.0,0.0,0.0,0.0,0.0,0.0,0.0,0.0,0.0,0.0,0.0,0.0,0.0,0.0,0.0,0.0,0.0,0.0,0.0,0.0,-3.0827,-3.0864,-3.0836,-3.0992,-3.1031,-3.0911,-3.0299,0.0,0.0,0.0,0.0,0.0,0.0,0.0,0.0,0.0,0.0,0.0,0.0,0.0,0.0,0.0,0.0,0.0,0.0,0.0,0.0,0.0,0.0,0.0,0.0,0.0,0.0,0.0,0.0,0.0,0.0,0.0,0.0,0.0,0.0,0.0,0.0,0.0,0.0,0.0,0.0,0.0,0.0,0.0,0.0,0.0,0.0,0.0,0.0,0.0,0.0,0.0,0.0,0.0,0.0,0.0,0.0,0.0,0.0,0.0,0.0,0.0,0.0,0.0,-4.1205,-4.1653,-4.2675,-4.2066,-4.1796,-4.1644,-3.9056,-3.7675,-3.7117,-3.6197,0.0,0.0,0.0,0.0,0.0,0.0,0.0,0.0,0.0,0.0,0.0,0.0,0.0,0.0,0.0,0.0,0.0,0.0,0.0,0.0,0.0,0.0,0.0,0.0,0.0,0.0,0.0,0.0,0.0,0.0,0.0,0.0,0.0,-3.0635,-3.062,-3.062,-3.1311,-3.1675,-3.1744,-3.2334,-3.2633,-3.2605,-3.0918,-3.0094,-2.9954,0.0,0.0,0.0,0.0,0.0,0.0,0.0,0.0,0.0,0.0,0.0,0.0,0.0,0.0,0.0,0.0,0.0,0.0,0.0,0.0,0.0,0.0,0.0,0.0,0.0,0.0,0.0,0.0,0.0,0.0,0.0,0.0,0.0,0.0,0.0,0.0,0.0,0.0,0.0,0.0,0.0,-3.4734,-3.4257,0.0,0.0,0.0,0.0,0.0,0.0,0.0,0.0,0.0,0.0,0.0,0.0,0.0,-4.2941,-4.308,-4.3995,-4.4231,-4.3768,-4.4575,-4.4722,-4.4293,-4.4209,-4.4158,-4.4107,-4.3014,0.0,-3.8599,-3.7218,0.0,0.0,0.0,0.0,0.0,0.0,0.0,0.0,0.0,0.0,0.0,0.0,0.0,0.0,0.0,0.0,0.0,0.0,0.0,0.0,0.0,0.0,0.0,0.0,0.0,0.0,0.0,0.0,0.0,0.0,0.0,0.0,-3.0574,-3.06,-3.0836,-3.1339,-3.1679,-3.2081,-3.2535,-3.29,-3.3016,-3.291,-3.2116,-3.1385,-3.0685,-2.9996,0.0,0.0,0.0,0.0,0.0,0.0,0.0,0.0,0.0,0.0,0.0,0.0,0.0,0.0,0.0,0.0,0.0,0.0,0.0,0.0,0.0,0.0,0.0,0.0,0.0,0.0,0.0,0.0,0.0,0.0,0.0,0.0,0.0,0.0,0.0,0.0,0.0,0.0,0.0,-3.4908,-3.5459,-3.4742,-3.5285,-3.5389,0.0,0.0,0.0,0.0,0.0,0.0,0.0,0.0,0.0,-4.392,-4.5847,-4.6561,-4.5895,-4.6773,-4.7114,-4.6908,-4.7344,-4.7817,-4.8291,-4.7868,-4.7445,-4.7022,-4.6278,-4.4502,-4.2008,-4.0054,-3.8328,-3.685,0.0,0.0,0.0,0.0,-3.5131,-3.4651,0.0,0.0,0.0,0.0,0.0,0.0,0.0,0.0,0.0,0.0,0.0,0.0,0.0,0.0,0.0,-2.6718,0.0,0.0,0.0,0.0,0.0,0.0,0.0,-2.9574,-2.9849,-3.0351,-3.1041,-3.1866,-3.2338,-3.2924,-3.3641,-3.395,-3.4012,-3.3853,-3.3652,-3.2731,-3.1346,-3.054,-2.9747,-2.896,0.0,0.0,0.0,0.0,0.0,0.0,0.0,0.0,0.0,0.0,0.0,0.0,0.0,0.0,0.0,0.0,0.0,0.0,0.0,0.0,0.0,0.0,0.0,0.0,0.0,0.0,0.0,0.0,0.0,0.0,0.0,0.0,0.0,0.0,0.0,0.0,0.0,-3.5899,-3.6743,-3.5481,-3.7,-3.7477,0.0,0.0,0.0,0.0,0.0,0.0,-4.3442,-4.5645,-4.7223,-4.8012,-4.9614,-4.9896,-4.8795,-4.9572,-4.9931,-4.9847,-4.9847,-5.0541,-5.1775,-5.1014,-5.0253,-4.9526,-4.8798,-4.731,-4.5246,-4.2777,-4.046,-3.8447,-3.8261,-3.7364,-3.6241,-3.6647,-3.6455,-3.59,0.0,0.0,0.0,0.0,0.0,0.0,0.0,0.0,0.0,0.0,0.0,0.0,0.0,0.0,-2.724,-2.8199,-2.8534,-2.8711,0.0,0.0,0.0,0.0,-2.89,-2.8932,-2.8148,-2.98,-3.1061,-3.18,-3.3534,-3.4714,-3.5398,-3.6155,-3.6514,-3.6454,-3.5449,-3.3754,-3.1686,-3.1616,-3.0851,-2.9651,-2.9585,0.0,0.0,0.0,0.0,0.0,0.0,0.0,0.0,0.0,0.0,0.0,0.0,0.0,0.0,0.0,0.0,0.0,0.0,0.0,0.0,0.0,0.0,0.0,0.0,0.0,0.0,0.0,0.0,0.0,0.0,0.0,0.0,0.0,0.0,0.0,0.0,0.0,0.0,-3.6505,-4.032,0.0,0.0,0.0,0.0,-4.1937,-4.3534,-4.515,-4.6764,-4.8471,-4.9774,-5.06,-5.2168,-5.2677,-5.1971,-5.2776,-5.2826,-5.2131,-5.2131,-5.257,-5.3365,-5.2553,-5.1792,-5.1065,-5.0304,-4.9137,-4.7483,-4.4508,-4.1999,-3.9926,-3.9208,-3.8464,-3.7715,-3.7053,-3.6793,-3.6659,0.0,0.0,0.0,0.0,0.0,0.0,0.0,0.0,0.0,0.0,0.0,0.0,0.0,-2.7612,-2.8454,-2.894,-3.0197,-3.0263,-2.8645,0.0,0.0,0.0,-2.8678,-2.9215,-3.0553,-3.1116,-3.2109,-3.3549,-3.4042,-3.4716,-3.5519,-3.6327,-3.6692,-3.6673,-3.63,-3.5674,-3.4756,-3.2249,-3.0842,-3.0167,-2.8918,-2.7934,0.0,0.0,0.0,0.0,0.0,0.0,0.0,0.0,0.0,0.0,0.0,0.0,0.0,0.0,0.0,0.0,0.0,0.0,0.0,0.0,0.0,0.0,0.0,0.0,0.0,0.0,0.0,0.0,0.0,0.0,0.0,0.0,0.0,0.0,0.0,0.0,0.0,-4.168,-4.4599,0.0,-4.3883,-4.4452,-4.5278,-4.6104,-4.8177,-5.0105,-5.172,-5.3353,-5.4601,-5.5409,-5.5511,-5.5462,-5.5235,-5.5009,-5.4752,-5.4499,-5.4008,-5.3923,-5.4177,-5.3416,-5.2655,-5.1877,-5.1133,-4.9982,-4.8494,-4.6925,-4.4993,-4.2871,-4.1593,-4.0663,-3.9995,-3.9715,-3.9336,-3.8738,0.0,0.0,0.0,0.0,0.0,0.0,0.0,0.0,0.0,0.0,0.0,-2.5721,-2.7092,-2.8412,-2.9425,-2.9963,-3.1323,-3.1224,-2.8989,0.0,0.0,0.0,-2.8256,-2.9367,-3.19,-3.247,-3.3425,-3.4862,-3.5306,-3.5952,-3.6796,-3.7334,-3.7584,-3.7558,-3.7479,-3.7275,-3.683,-3.4167,-3.2447,-3.1412,-2.9744,-2.8659,-2.7927,0.0,0.0,0.0,0.0,0.0,0.0,0.0,0.0,0.0,0.0,0.0,0.0,0.0,0.0,0.0,0.0,0.0,0.0,0.0,0.0,0.0,0.0,0.0,0.0,0.0,0.0,0.0,0.0,0.0,0.0,0.0,0.0,0.0,0.0,0.0,-4.4306,-4.537,-4.8379,-4.9829,-4.847,-4.9076,-4.9903,-5.071,-5.2784,-5.4601,-5.5959,-5.7299,-5.8272,-5.8786,-5.8063,-5.7428,-5.691,-5.633,-5.5825,-5.5327,-5.482,-5.4583,-5.4566,-5.3839,-5.3061,-5.2283,-5.1792,-5.0744,-4.9306,-4.8595,-4.7259,-4.5534,-4.3758,-4.2455,-4.1542,-4.1288,-4.0899,-4.022,0.0,0.0,0.0,0.0,0.0,0.0,0.0,0.0,0.0,0.0,-2.437,-2.551,-2.7182,-2.8724,-3.0111,-3.1305,-3.1796,-3.1343,-2.9782,-2.8656,0.0,0.0,-2.7763,-2.9457,-3.1961,-3.3703,-3.4937,-3.5681,-3.7293,-3.8498,-3.9265,-3.9277,-3.9296,-3.9296,-3.9025,-3.8468,-3.7706,-3.7422,-3.5881,-3.3554,-3.2393,-3.104,-2.9663,0.0,0.0,0.0,0.0,0.0,0.0,0.0,0.0,0.0,0.0,0.0,0.0,0.0,0.0,0.0,0.0,0.0,0.0,0.0,0.0,0.0,0.0,0.0,0.0,0.0,0.0,0.0,0.0,0.0,0.0,0.0,0.0,0.0,-4.0065,-4.425,-4.7314,-4.7388,-5.1665,-5.3665,-5.1334,-5.3243,-5.4932,-5.5684,-5.7244,-5.8474,-5.9221,-6.0015,-6.0438,-6.0438,-5.9622,-5.8467,-5.7003,-5.688,-5.6089,-5.4685,-5.4668,-5.4651,-5.46,-5.3873,-5.3095,-5.2334,-5.2317,-5.1471,-5.0067,-4.934,-4.8595,-4.7669,-4.5483,-4.3707,-4.2303,-4.1542,-4.1229,-4.0867,0.0,0.0,0.0,0.0,0.0,0.0,0.0,0.0,0.0,0.0,-2.5296,-2.6843,-2.876,-2.9604,-3.0479,-3.1581,-3.0833,-2.9956,-2.9164,0.0,0.0,0.0,-3.0839,-3.2834,-3.4761,-3.5785,-3.6673,-3.7415,-3.7829,-3.8134,-3.8373,-3.8763,-3.9067,-3.9288,-3.8971,-3.9497,-4.0592,-3.9671,-3.9261,-3.8918,-3.5818,-3.3104,-3.0917,0.0,0.0,0.0,0.0,0.0,0.0,0.0,0.0,0.0,0.0,0.0,0.0,0.0,0.0,0.0,0.0,0.0,0.0,0.0,0.0,0.0,0.0,0.0,0.0,0.0,0.0,0.0,0.0,0.0,0.0,0.0,0.0,-4.3589,-4.4176,-4.8453,-5.2158,-5.394,-5.6877,-5.8492,-5.7831,-5.8896,-5.9465,-5.9116,-6.0566,-6.1318,-6.097,-6.1153,-6.1263,-6.1263,-5.9416,-5.8467,-5.8574,-5.738,-5.6867,-5.6968,-5.6444,-5.5919,-5.5378,-5.4634,-5.389,-5.3145,-5.2553,-5.1775,-5.0845,-5.0101,-4.9052,-4.772,-4.6058,-4.5145,-4.4604,-4.3274,-4.2114,-4.1017,0.0,0.0,0.0,0.0,0.0,0.0,0.0,0.0,0.0,0.0,-2.5592,-2.7058,-2.8954,-2.9621,-3.0167,-3.0708,-3.0039,-2.9096,-2.7937,0.0,0.0,-3.0059,-3.2246,-3.4328,-3.6328,-3.7507,-3.8258,-3.8601,-3.8905,-3.9046,-3.9046,-3.938,-3.9618,-3.9815,-3.9985,-4.0712,-4.18,-4.1834,-4.1887,-4.1741,-3.9835,-3.7182,-3.4305,-3.3589,-3.2839,-3.2083,-3.1526,-3.1485,-3.1559,-3.0553,0.0,0.0,0.0,0.0,0.0,0.0,0.0,0.0,0.0,0.0,0.0,0.0,0.0,0.0,0.0,0.0,0.0,0.0,0.0,0.0,0.0,0.0,0.0,0.0,-4.5204,-4.8269,-4.9756,-5.2417,-5.5225,-5.7978,-5.985,-6.1172,-6.1887,-6.2365,-6.2585,-6.2475,-6.3007,-6.3135,-6.2658,-6.2291,-6.2108,-6.2108,-6.0134,-5.8963,-5.8798,-5.7465,-5.6697,-5.6494,-5.6072,-5.5649,-5.5209,-5.4482,-5.3907,-5.3467,-5.301,-5.2384,-5.1606,-5.0862,-4.9881,0.0,0.0,0.0,0.0,0.0,-4.2213,-4.1006,0.0,0.0,0.0,0.0,0.0,0.0,0.0,0.0,0.0,0.0,0.0,-2.6712,-2.8448,-2.9094,-2.9375,-2.9341,-2.9259,-2.8405,0.0,0.0,0.0,-3.1074,-3.2891,-3.4926,-3.7237,-3.8906,-3.9645,-3.9438,-4.015,-4.0554,-4.065,-4.0608,-4.0665,-4.0823,-4.1561,-4.1964,-4.2181,-4.3662,-4.3769,-4.3023,-4.3768,-4.1897,-3.8469,-3.6979,-3.6251,-3.593,-3.523,-3.4491,-3.3723,-3.2825,0.0,0.0,0.0,0.0,0.0,0.0,0.0,0.0,0.0,0.0,0.0,0.0,0.0,0.0,0.0,0.0,0.0,0.0,0.0,0.0,0.0,0.0,0.0,0.0,-4.9334,-5.3319,-5.5904,-5.6271,-5.7354,-6.0327,-6.1392,-6.2493,-6.4071,-6.431,-6.4585,-6.5136,-6.4585,-6.4145,-6.3961,0.0,0.0,0.0,0.0,-5.9914,-5.8609,-5.7379,-5.6139,-5.4837,-5.4752,-5.4668,-5.4566,-5.3923,-5.3585,-5.3501,-5.3501,-5.301,-5.2131,-5.1488,-5.0676,-4.9644,-4.7597,-4.6295,-4.5331,-4.3301,-4.2083,-4.1139,0.0,0.0,0.0,0.0,0.0,0.0,0.0,0.0,0.0,-2.6543,-2.6609,-2.723,-2.9176,-2.8652,-2.8525,-2.9458,-2.7788,-2.6708,0.0,0.0,-3.0176,-3.2793,-3.5254,-3.7347,-3.9062,-4.0054,-4.0465,-4.0265,-4.0419,-4.0854,-4.1538,-4.1263,-4.1664,-4.2596,-4.2498,-4.2957,-4.3835,-4.4162,-4.4587,-4.5033,-4.5206,-4.2928,-3.9441,-3.9115,-3.7848,-3.6223,-3.6126,-3.6094,-3.5929,-3.489,-3.4897,-3.5185,-3.414,-3.3308,0.0,0.0,0.0,0.0,0.0,0.0,0.0,0.0,0.0,0.0,0.0,0.0,0.0,0.0,0.0,0.0,0.0,0.0,0.0,-4.8967,-5.2582,-5.6202,-5.9905,-6.0438,-6.0915,-6.2199,-6.308,-6.3998,-6.4971,-6.565,-6.5558,-6.442,-6.4787,-6.4494,-6.3135,-6.3558,-6.3851,-6.3851,-6.2245,-6.1224,-6.0954,-5.8204,-5.6664,-5.6359,0.0,0.0,-5.4583,-5.4448,-5.4059,-5.3501,-5.3501,-5.2723,-5.142,-5.1268,-5.0052,-4.824,-4.7192,-4.5974,-4.4767,-4.4327,-4.3639,-4.2824,0.0,0.0,0.0,0.0,0.0,0.0,0.0,0.0,0.0,0.0,-2.7332,-2.7787,-2.9329,-2.8559,-2.8108,-2.8504,-2.679,0.0,0.0,-2.8484,-3.0664,-3.3281,-3.5898,-3.8011,-3.9568,-4.0389,-4.0911,-4.1143,-4.1143,-4.1604,-4.2442,-4.2283,-4.2522,-4.3115,-4.3357,-4.3778,-4.4335,-4.4759,-4.521,-4.5556,-4.5133,-4.352,-4.1399,-4.1389,-4.0156,-3.8348,-3.798,-3.7633,-3.7204,-3.6232,-3.5914,-3.586,-3.5332,-3.4755,-3.4135,0.0,0.0,0.0,0.0,0.0,0.0,0.0,0.0,0.0,0.0,0.0,0.0,0.0,0.0,-4.0047,0.0,0.0,-4.8471,-5.2527,-5.5556,-5.8382,-6.119,-6.1942,-6.2658,-6.3906,-6.4439,-6.5026,-6.5815,-6.6623,-6.6769,-6.5944,-6.5907,-6.554,-6.4714,-6.4292,-6.409,-6.409,-6.2065,-6.0642,-5.9891,-5.7448,-5.5894,-5.5141,-5.4786,-5.4414,-5.4042,-5.4042,-5.3856,-5.3484,-5.3078,-5.2469,-5.1708,-5.0963,-4.9576,-4.7855,-4.7496,-4.6447,-4.506,-4.4282,-4.3504,-4.2689,0.0,0.0,0.0,0.0,0.0,0.0,0.0,0.0,0.0,0.0,-2.7798,-2.8135,-2.9055,-2.8377,-2.7632,0.0,0.0,0.0,0.0,-2.8835,-3.0996,-3.3789,-3.625,-3.8265,-3.9801,-4.0638,-4.1371,-4.2038,-4.2038,-4.2489,-4.3335,-4.3335,-4.3412,-4.3605,-4.4259,-4.4547,-4.4605,-4.5306,-4.5594,-4.5518,-4.4643,-4.3816,-4.3066,-4.276,-4.1655,-4.0189,-3.9534,-3.8623,-3.7642,-3.6942,-3.6269,-3.5788,-3.6135,-3.5971,-3.549,-3.4611,-3.409,0.0,0.0,0.0,0.0,0.0,0.0,0.0,0.0,0.0,-3.7918,-3.9533,-4.115,-4.3205,-4.6287,-4.8728,-5.1499,-5.5225,-5.7868,-5.9905,-6.1172,-6.2199,-6.322,-6.4457,-6.4879,-6.5448,-6.6402,-6.7081,-6.7467,-6.7467,-6.6861,-6.6366,-6.6054,-6.4952,-6.4182,-6.3851,-6.1768,-5.9937,-5.8432,-5.6623,-5.5042,-5.3721,-5.3568,-5.3501,-5.3501,-5.3501,-5.3501,-5.345,-5.2503,-5.2097,-5.1978,-5.049,-4.9187,-4.8091,-4.7939,-4.7107,-4.5754,-4.4367,-4.3284,-4.2307,0.0,0.0,0.0,0.0,0.0,0.0,0.0,0.0,0.0,0.0,0.0,0.0,0.0,0.0,0.0,0.0,0.0,0.0,-2.8957,-3.0077,-3.2168,-3.5566,-3.7461,-3.9142,-4.063,-4.1509,-4.2283,-4.2951,-4.2951,-4.3374,-4.4162,-4.4162,-4.4586,-4.5325,-4.5421,-4.546,-4.546,-4.5556,-4.5594,-4.5518,-4.4643,-4.3816,-4.2948,-4.1498,-4.0331,-3.9419,-3.9323,-3.8238,-3.6827,-3.6731,-3.6635,-3.6846,-3.8392,-3.8327,-3.7497,-3.6632,-3.568,-3.4612,-3.3201,-3.3636,-3.5022,-3.7271,-3.7528,-3.8221,0.0,0.0,-4.2084,-4.3699,-4.5296,-4.7204,-4.9793,-5.1665,-5.3665,-5.6253,-5.8694,-6.0346,-6.0511,-6.1851,-6.2603,-6.2071,-6.3319,-6.4824,-6.6347,-6.6586,-6.6623,-6.6623,-6.6549,-6.587,-6.4439,-6.4879,-6.4494,-6.3007,-6.1986,-6.0726,-5.9182,-5.6868,-5.53,-5.4465,-5.3805,-5.3501,-5.3501,-5.3501,-5.3501,-5.3416,-5.1978,-5.1303,-5.1217,-4.9746,-4.9035,-4.8815,-4.8173,-4.7411,-4.6583,-4.5754,-4.4536,-4.3156,0.0,0.0,0.0,0.0,0.0,0.0,0.0,0.0,0.0,0.0,0.0,0.0,0.0,0.0,0.0,0.0,0.0,0.0,-2.8502,-2.9996,-3.2129,-3.5117,-3.7402,-3.9298,-4.0766,-4.1645,-4.2665,-4.3797,-4.3797,-4.422,-4.5056,-4.5056,-4.5248,-4.5594,-4.5594,-4.5594,-4.5594,-4.5594,-4.5594,-4.5479,-4.4143,-4.3131,-4.216,-4.0018,-3.8042,-3.6433,-3.641,-3.5602,0.0,-3.4494,-3.4487,-3.4789,-3.6575,-3.6864,-3.6386,-3.5547,-3.5315,-3.5203,-3.4583,-3.5695,-3.7347,-3.8603,-3.9958,-4.1568,-4.3788,-4.4546,-4.5179,-4.6507,-4.8122,-5.0013,-5.2435,-5.383,-5.539,0.0,-5.9446,-6.0401,-6.0401,-6.1392,-6.163,-6.0364,-6.1245,-6.2585,-6.42,-6.5228,-6.5815,-6.5815,-6.5815,-6.5521,-6.4824,-6.4677,-6.4053,-6.286,-6.1576,-5.9961,-5.7907,-5.6446,-5.5105,-5.3957,-5.3653,-5.3264,-5.2824,-5.3298,-5.301,-5.2147,-5.1472,-5.0727,-4.9881,-4.9255,-4.9001,-4.8934,-4.8176,-4.7462,-4.6701,-4.5974,-4.4739,-4.3341,0.0,0.0,0.0,0.0,0.0,0.0,0.0,0.0,0.0,0.0,0.0,0.0,0.0,0.0,0.0,0.0,0.0,0.0,0.0,-2.9721,-3.1738,-3.457,-3.6973,-3.8927,-4.0412,-4.1777,-4.3053,-4.4297,-4.4528,-4.4979,-4.5594,-4.5594,-4.5594,-4.5594,-4.5594,-4.5594,-4.5594,-4.5594,-4.546,-4.5133,-4.3682,-4.234,-4.0938,-3.8393,-3.5887,-3.3708,-3.3634,-3.289,-3.1971,-3.2151,-3.2218,-3.2563,-3.4573,-3.5174,-3.5065,-3.4728,-3.5046,-3.5596,-3.6058,-3.7644,-3.9461,-4.0729,-4.2782,-4.4821,-4.6094,-4.7191,-4.8228,-4.927,-5.035,-5.1793,-5.3995,-5.4876,-5.5996,-5.8198,-5.9593,-6.0254,-5.9813,-6.0621,-6.0584,-5.8744,-5.9263,-6.0199,-6.1374,-6.3392,-6.4714,-6.4952,-6.4971,-6.4971,-6.4971,-6.398,-6.3117,-6.2493,-6.0915,-5.9052,-5.6914,-5.6095,-5.4969,-5.3501,-5.3501,-5.3196,-5.2655,-5.323,-5.2672,-5.1185,-5.1185,-5.049,-4.9289,-4.9086,-4.9001,-4.8951,-4.8426,-4.7631,-4.6735,-4.6194,-4.5043,-4.3707,0.0,0.0,0.0,0.0,0.0,0.0,0.0,0.0,0.0,0.0,0.0,0.0,0.0,0.0,0.0,0.0,0.0,0.0,0.0,-2.957,-3.1152,-3.4551,-3.6406,-3.8028,-3.9509,-4.2045,-4.3668,-4.4297,-4.5152,-4.5575,-4.5594,-4.5594,-4.5594,-4.5594,-4.5594,-4.5594,-4.5594,-4.5594,-4.5114,-4.4259,-4.3431,-4.1639,-3.9191,-3.672,-3.4194,-3.1965,-3.1894,-3.078,-2.9433,-3.0219,-3.0481,-3.0923,-3.3455,-3.4244,0.0,-3.5218,-3.5488,-3.5846,-3.7488,-3.8982,-4.0912,-4.4523,-4.6217,-4.7712,-5.0469,-5.1186,-5.1502,-5.2287,-5.221,-5.2454,-5.4106,-5.4418,-5.4968,-5.662,-5.8859,-5.9869,-5.829,-5.9446,-5.9557,-5.7171,-5.7574,-5.8088,0.0,-6.1025,-6.3246,-6.4071,-6.4127,-6.4127,-6.4127,-6.2567,-6.1649,-6.163,-6.0089,-5.8464,-5.6914,-5.6095,-5.4969,-5.3501,-5.3501,-5.3501,-5.3467,-5.3501,-5.2672,-5.1185,-5.1185,-5.0777,-4.9999,-4.9289,-4.9001,-4.9001,-4.8984,-4.8088,-4.6786,-4.6769,-4.5821,-4.4462,0.0,0.0,0.0,0.0,0.0,0.0,0.0,0.0,0.0,0.0,0.0,0.0,0.0,0.0,0.0,0.0,-2.6835,-2.7015,-2.8535,-2.9238,-3.0625,-3.2949,-3.5215,-3.7179,-3.8742,-4.0676,-4.1999,-4.2714,-4.3546,-4.3932,-4.3951,-4.4489,-4.4739,-4.4759,-4.5344,-4.5594,-4.5556,-4.4979,-4.4566,-4.4028,-4.095,-3.9297,-3.8268,-3.4525,-3.1945,-3.0215,0.0,-2.8531,-2.7675,-2.8524,-2.8777,-2.9096,-3.1161,-3.1753,-3.1948,-3.3372,-3.5391,-3.7411,-3.8546,-4.169,-4.5045,-4.6818,-4.9218,-5.1461,-5.2673,-5.3427,-5.3528,-5.2368,-5.2021,-5.1921,-5.1889,-5.2568,-5.3654,-5.5283,-5.7372,-5.8621,-5.807,-5.9391,-5.9318,-5.6345,-5.7666,0.0,0.0,0.0,0.0,-6.1575,-6.1649,-6.1887,-6.2401,-6.1392,-6.0805,-6.0805,-5.9753,-5.8192,-5.6124,-5.5848,-5.4969,-5.3501,-5.2959,-5.2706,-5.2689,-5.2215,-5.1437,-5.0473,-5.0473,-5.005,-4.9357,-4.9103,-4.9001,-4.89,-4.7919,-4.7242,-4.6667,-4.5715,-4.5038,-4.4496,0.0,0.0,0.0,0.0,0.0,0.0,0.0,0.0,0.0,0.0,0.0,0.0,0.0,0.0,0.0,0.0,0.0,-2.7216,-2.8164,0.0,-2.9453,-3.1191,-3.3144,-3.4778,-3.6041,-3.7702,-3.8743,-3.9155,-4.0272,-4.0816,-4.0835,-4.197,-4.2508,-4.2547,-4.3401,-4.3786,-4.3728,-4.2882,-4.2335,-4.1758,-3.845,-3.6657,-3.5642,-3.2511,-3.0354,0.0,-2.8262,-2.7679,-2.7278,-2.7815,-2.8182,-2.8735,-3.0474,-3.1362,-3.2083,-3.3776,-3.6257,-3.8854,-4.0604,-4.4143,-4.7682,-4.9096,-5.1587,-5.3804,-5.436,-5.4569,-5.415,-5.248,-5.1529,-5.0843,-5.0271,-5.0742,-5.1732,-5.3348,-5.512,-5.6492,-5.706,-5.8033,-5.8015,-5.6235,-5.7409,-5.774,0.0,0.0,0.0,-5.9924,-5.9979,-6.0456,-6.1539,-6.0291,-5.9942,-6.0805,-5.9501,-5.7919,-5.6142,-5.5848,-5.4969,-5.3501,-5.2689,-5.2164,-5.1894,-5.1437,-5.0659,-4.9712,-4.9982,-4.9678,-4.9001,-4.9001,-4.9001,-4.8883,-4.7665,-4.7022,-4.6633,-4.5432,-4.4835,-4.4496,0.0,0.0,0.0,0.0,0.0,0.0,0.0,0.0,0.0,0.0,0.0,0.0,0.0,0.0,0.0,0.0,0.0,0.0,-2.8301,-2.7559,-2.7793,-2.9453,-3.0371,-3.112,-3.1754,-3.3479,-3.4277,-3.4084,-3.5699,-3.65,-3.6538,-3.8238,-3.9034,-3.9073,-3.9881,-4.0246,-4.0189,-3.9381,-3.8565,-3.7642,-3.5885,-3.3824,-3.1694,-3.0732,-2.9458,-2.8172,-2.8176,-2.8165,-2.817,-2.8103,-2.8745,-2.9874,-3.1435,-3.3068,-3.4725,-3.6353,-3.8161,-4.0342,-4.3566,-4.6355,-4.8952,-5.1423,-5.328,-5.4684,-5.5415,-5.4594,-5.3442,-5.2495,-5.0716,-4.93,-4.9163,-4.899,-4.9403,-5.106,-5.2408,-5.3849,-5.5537,-5.5835,-5.6106,0.0,0.0,0.0,0.0,0.0,0.0,-5.9184,0.0,-5.9832,-6.1392,-5.9263,-5.9061,-6.1392,-5.9208,-5.7636,-5.6843,-5.602,-5.4878,-5.3501,-5.2689,-5.1911,-5.1185,-5.1151,-5.0371,-4.9035,-4.9729,-4.9644,-4.9001,-4.9001,-4.8984,-4.8883,-4.8139,-4.7394,-4.665,-4.5923,-4.5196,-4.4496,0.0,0.0,0.0,0.0,0.0,0.0,0.0,0.0,0.0,0.0,0.0,0.0,0.0,0.0,0.0,0.0,0.0,0.0,-2.9258,-2.8457,-2.8164,-2.8613,-2.9473,-2.9996,-3.0117,-3.1721,-3.2512,-3.2401,-3.3395,-3.3872,-3.3891,-3.4988,-3.5494,-3.5533,-3.6392,-3.6776,-3.6719,-3.5853,-3.5379,-3.4917,-3.1929,-3.1155,-3.1564,-2.9433,-2.8828,-2.9079,-2.9074,-2.9091,-2.9144,-2.9113,-3.0502,-3.2395,-3.3302,-3.5175,-3.7238,-3.8315,-4.1189,-4.4325,-4.5836,-4.9009,-5.2222,-5.351,-5.4164,-5.4376,-5.3933,-5.3082,-5.1617,-4.8911,-4.839,-4.7858,-4.5953,-4.7118,-4.9099,-5.1303,-5.3029,0.0,-5.7905,-5.8804,0.0,-5.8616,0.0,-5.9905,-5.8689,-5.9318,0.0,0.0,-5.8988,-5.8749,-5.9777,-5.8657,-5.8565,-5.9777,-5.8639,-5.7356,-5.6035,-5.4693,-5.3865,-5.3501,-5.2689,-5.1911,-5.1168,-5.0642,-4.9881,-4.9018,-4.9204,-4.9171,-4.9001,-4.9001,-4.868,-4.8122,-4.7378,-4.6633,-4.5889,-4.5145,-4.4767,-4.4496,0.0,0.0,0.0,0.0,0.0,0.0,0.0,0.0,0.0,0.0,0.0,0.0,0.0,0.0,0.0,0.0,0.0,0.0,0.0,-2.8789,-2.8301,-2.8301,-2.8769,-2.8979,-2.8895,-2.9769,-3.0194,-3.0091,-3.0499,-3.0717,-3.0717,-3.157,-3.2166,-3.2545,-3.3038,-3.3673,-3.425,-3.2641,-3.2397,0.0,0.0,-2.9404,-3.0498,-2.9074,-2.8913,-2.949,-2.9838,-3.0246,0.0,0.0,0.0,-3.4443,-3.5556,-3.7634,-3.9912,-4.1123,-4.3951,-4.6971,-4.8221,-5.1106,-5.3895,-5.4376,-5.4491,-5.4164,-5.2933,-5.1991,-5.0414,-4.7028,-4.699,-4.6894,-4.4701,-4.5864,-4.7815,0.0,0.0,0.0,-5.7116,-5.8309,-5.9061,0.0,-6.0841,0.0,-5.9869,-6.0456,-6.0786,0.0,-5.9245,-5.8877,-5.9661,-5.8639,-5.8364,-5.9166,-5.8419,-5.7431,-5.6259,-5.5077,-5.4468,-5.4468,-5.3038,-5.2113,-5.1685,-5.0272,-4.939,-4.9001,0.0,-4.8832,-4.8545,-4.8883,-4.8376,-4.7394,-4.6955,-4.6346,-4.5618,-4.4886,-4.4615,-4.4496,0.0,0.0,0.0,0.0,0.0,0.0,0.0,0.0,0.0,0.0,0.0,0.0,0.0,0.0,0.0,0.0,0.0,0.0,0.0,0.0,0.0,0.0,-2.8359,-2.8232,-2.8111,-2.8098,-2.8038,-2.7902,-2.7901,-2.7895,-2.7915,-2.8607,-2.9333,-3.0077,-3.0077,-3.0885,-3.2083,-2.9877,-2.9813,-3.1006,-2.8794,-2.842,-2.9209,0.0,0.0,0.0,-3.0467,0.0,0.0,0.0,-3.5169,-3.6231,-3.804,-4.0297,-4.2624,-4.4316,-4.6528,-4.8817,-5.0548,-5.2722,-5.453,-5.4626,-5.4414,-5.3722,-5.2096,-5.0856,-4.9115,-4.5941,-4.5951,-4.6067,-4.4432,-4.5082,-4.6461,-4.8229,0.0,-5.125,-5.5339,-5.662,-5.7978,-6.0291,-6.1263,-6.1484,-6.0786,-6.1355,-6.1465,-6.0768,-5.9863,-5.9606,-6.0217,-5.8914,-5.8437,-5.9019,-5.8252,-5.754,-5.6912,-5.6104,-5.5706,-5.566,-5.3544,-5.2497,-5.2344,-5.0133,-4.9077,-4.9001,-4.9001,-4.8595,-4.7939,-4.8595,-4.7986,-4.665,-4.665,-4.6194,-4.5483,-4.4852,-4.4615,-4.4496,0.0,0.0,0.0,0.0,0.0,0.0,0.0,0.0,0.0,0.0,-3.0528,-3.0495,0.0,0.0,0.0,0.0,0.0,0.0,0.0,0.0,0.0,0.0,-2.8672,-2.8258,-2.8172,-2.8126,-2.8068,-2.798,-2.7933,-2.7895,-2.7895,-2.8049,-2.8184,-2.8332,-2.8332,-2.8506,-2.8742,-2.8299,-2.828,-2.8525,-2.8088,-2.842,-2.9218,0.0,0.0,0.0,0.0,0.0,0.0,-3.4455,-3.644,-3.8078,-4.0429,-4.2898,-4.5259,-4.6951,-4.8759,-5.0625,-5.2318,-5.3606,-5.4664,-5.5318,-5.3914,-5.2106,-5.1125,-4.8615,0.0,0.0,-4.4182,-4.4451,-4.3489,-4.4898,-4.7081,-4.9751,-5.0656,-5.2564,-5.6963,-5.829,-5.9446,0.0,-6.2108,-6.2548,-6.242,-6.253,0.0,0.0,-6.1025,-5.996,-5.9423,-5.9129,-5.8767,-5.8217,-5.7473,-5.7015,-5.6912,-5.6104,-5.5706,-5.5688,-5.4038,-5.2951,-5.2327,-5.0598,-4.9504,-4.9001,-4.9001,0.0,-4.7906,-4.8024,-4.7225,-4.5889,-4.5889,-4.5432,-4.4784,-4.4649,-4.4615,-4.4496,0.0,0.0,0.0,0.0,0.0,0.0,0.0,-3.127,-3.1445,-3.1899,-3.196,-3.1613,-3.0692,-3.0669,0.0,0.0,0.0,0.0,0.0,0.0,0.0,0.0,0.0,0.0,0.0,-2.9466,-2.9405,-2.9306,0.0,-2.8565,-2.853,-2.8107,-2.8126,-2.8511,-2.8088,-2.8371,-2.914,-2.8275,-2.839,-2.9165,-2.8743,-2.9115,0.0,0.0,0.0,0.0,0.0,0.0,0.0,0.0,-3.6121,-3.802,-4.1401,-4.4239,-4.6528,-4.774,-4.9625,-5.1606,-5.2856,-5.4472,-5.5684,-5.5203,-5.3818,-5.201,-4.9837,0.0,0.0,0.0,-4.3412,-4.3912,-4.2662,-4.4556,0.0,-4.8104,-4.894,-5.1064,-5.572,-5.6573,-5.7923,-6.1208,-6.1942,-6.2346,0.0,-6.278,-6.264,-6.2218,-6.1465,-6.0676,-5.9887,-5.9043,-5.84,-5.8015,-5.7679,-5.7474,-5.7474,-5.708,-5.6685,-5.6252,-5.4733,-5.3609,-5.2803,-5.128,-5.0407,-5.0107,-5.0107,-4.924,-4.7889,-4.8266,-4.7113,-4.5162,-4.5551,-4.5246,-4.4615,-4.4615,-4.4615,-4.4547,0.0,0.0,0.0,0.0,0.0,0.0,0.0,-3.196,-3.2274,-3.3134,-3.3287,-3.2737,-3.1194,-3.1018,-3.0987,0.0,0.0,0.0,0.0,0.0,0.0,0.0,0.0,0.0,0.0,0.0,0.0,-3.0533,-2.983,0.0,0.0,0.0,0.0,0.0,-2.8753,-2.9216,-3.0364,-2.9032,-2.9228,0.0,0.0,-2.9927,0.0,0.0,0.0,0.0,0.0,0.0,0.0,0.0,-3.5298,-3.7225,-4.0905,-4.4047,-4.6509,-4.7334,-4.9625,-5.2135,-5.3203,-5.5068,-5.6406,-5.5088,-5.3703,-5.1914,-4.9029,-4.6663,0.0,-4.2489,-4.3124,-4.3682,-4.2547,-4.4432,-4.6228,0.0,-4.715,-4.9235,-5.3739,-5.4463,-5.6143,0.0,-6.1245,0.0,-6.2475,-6.2401,0.0,-6.1392,-6.1172,-6.0805,-6.0181,-5.8786,-5.7997,-5.7997,-5.7997,-5.7997,-5.7997,-5.7831,-5.7428,-5.6763,-5.5283,-5.4122,-5.3249,-5.1926,-5.1241,-5.1086,-5.0927,-4.9776,0.0,-4.8296,-4.6997,-4.481,-4.51,-4.4959,-4.4581,-4.4429,-4.4462,-4.4581,0.0,0.0,0.0,0.0,0.0,0.0,0.0,-3.2167,-3.246,-3.328,-3.3398,-3.3047,-3.2168,-3.2051,-3.1758,0.0,0.0,0.0,0.0,0.0,0.0,0.0,0.0,0.0,0.0,0.0,0.0,-3.0684,-3.048,0.0,0.0,0.0,0.0,0.0,0.0,-3.0445,-3.0575,-3.0354,0.0,0.0,0.0,0.0,0.0,0.0,0.0,0.0,0.0,0.0,0.0,0.0,0.0,-3.6223,-3.8136,-4.1403,-4.4726,-4.5646,0.0,0.0,-5.3933,-5.5068,-5.578,-5.5626,-5.3241,-5.0654,-4.9529,0.0,-4.3258,-4.3028,-4.3104,-4.3393,-4.3951,-4.4934,-4.6043,-4.719,-4.7464,-4.8734,-5.2231,-5.3961,-5.6006,-5.9071,0.0,0.0,-6.163,-6.1062,0.0,-6.0529,-5.9832,-5.9386,-5.9294,-5.8492,-5.7997,-5.7997,-5.7997,-5.7997,-5.7997,-5.7281,-5.6877,-5.6785,-5.5177,-5.4027,-5.3273,-5.2408,-5.1685,-5.1051,-5.0335,-4.9513,0.0,-4.7335,-4.6255,-4.5303,-4.4072,-4.4028,-4.4513,-4.3792,-4.3978,-4.4513,0.0,0.0,0.0,0.0,0.0,0.0,-3.2715,-3.293,-3.3418,-3.4785,-3.4961,-3.4648,-3.3809,-3.3242,-3.2383,0.0,0.0,0.0,0.0,0.0,0.0,0.0,0.0,0.0,0.0,0.0,-3.0771,-3.0695,-3.0657,0.0,0.0,0.0,0.0,0.0,0.0,-3.0603,-3.06,-3.0529,0.0,0.0,0.0,0.0,0.0,0.0,0.0,0.0,0.0,0.0,-3.25,0.0,0.0,0.0,-3.5297,-3.7812,0.0,0.0,-4.7241,-5.0196,-5.2348,-5.4664,-5.6118,-5.4587,-5.2799,-5.0933,-4.9048,0.0,-4.3239,-4.372,-4.3431,-4.3047,-4.2835,-4.4335,-4.5435,-4.4921,-4.5116,0.0,-4.9759,-5.0178,-5.1927,-5.6763,-5.7624,0.0,0.0,0.0,-6.0199,-5.9698,-5.8933,-5.8492,-5.8492,-5.8162,-5.7997,-5.7997,-5.7538,-5.7281,-5.7281,-5.6473,-5.5831,-5.5354,-5.4711,-5.3976,-5.3225,-5.2915,-5.2617,-5.2317,-5.152,-5.0484,0.0,-4.8247,-4.6889,-4.5451,-4.487,-4.4633,-4.4513,-4.3707,-4.3606,-4.3842,0.0,0.0,0.0,0.0,0.0,-3.1387,-3.2832,-3.3242,-3.3926,-3.543,-3.5625,-3.5371,-3.4766,-3.3711,-3.2578,-3.1387,-3.1055,0.0,0.0,0.0,0.0,0.0,0.0,0.0,0.0,0.0,-3.0975,-3.1139,-3.1091,-3.1077,0.0,0.0,-3.0901,-3.0683,0.0,0.0,0.0,0.0,0.0,0.0,0.0,0.0,0.0,0.0,0.0,0.0,0.0,0.0,0.0,0.0,0.0,0.0,0.0,0.0,0.0,0.0,-4.5169,-4.8048,-5.05,-5.328,-5.5126,-5.3587,-5.2183,-5.0615,0.0,0.0,-4.3335,-4.4124,-4.3662,-4.3066,-4.2951,-4.4393,-4.521,-4.4028,0.0,-4.5337,-4.7981,-4.7864,-4.9322,0.0,0.0,-5.5845,0.0,-5.9462,-5.9465,-5.8896,-5.8327,0.0,-5.7997,-5.7776,-5.7648,-5.7648,-5.6859,-5.6455,-5.6455,-5.5647,-5.495,-5.4399,-5.4161,-5.3757,-5.3185,-5.2968,-5.2858,-5.2803,-5.1738,-5.0689,0.0,-4.8663,-4.7365,-4.5979,-4.5186,-4.4724,-4.4409,-4.3196,-4.2895,-4.3081,0.0,0.0,0.0,0.0,0.0,0.0,-3.207,-3.2891,-3.3711,-3.4609,-3.4707,-3.4707,-3.4707,-3.3203,-3.2207,-3.2187,-3.1406,0.0,0.0,0.0,0.0,0.0,0.0,0.0,0.0,0.0,-3.1328,-3.2187,-3.2058,-3.2058,-3.2187,-3.2057,-3.1609,-3.0898,0.0,0.0,0.0,0.0,0.0,0.0,0.0,0.0,0.0,0.0,0.0,0.0,0.0,0.0,0.0,0.0,0.0,0.0,0.0,0.0,0.0,0.0,-4.2474,-4.6278,-4.8748,-5.0664,-5.2154,-5.2991,-5.1298,-4.9183,0.0,-4.5509,-4.3335,-4.4124,-4.3662,-4.3605,-4.5267,-4.5575,-4.5594,-4.5575,-4.5575,0.0,-4.7331,-4.8186,0.0,0.0,0.0,-5.2605,-5.5836,-5.7291,-5.8015,-5.8015,-5.7997,0.0,-5.7997,-5.7262,-5.6822,-5.6822,-5.6033,-5.5592,-5.5592,-5.4803,-5.4418,-5.4399,-5.3592,-5.3203,-5.3167,-5.238,-5.1995,-5.1903,0.0,0.0,0.0,-4.8019,-4.7403,-4.7115,-4.4389,-4.3776,-4.4144,-4.2005,-4.1677,-4.2303,0.0,0.0,0.0,0.0,0.0,0.0,0.0,-3.2871,-3.3496,-3.3789,-3.4336,-3.4473,-3.3887,-3.2851,-3.2207,-3.2207,-3.1406,0.0,0.0,0.0,0.0,0.0,0.0,0.0,0.0,0.0,-3.1328,-3.2207,-3.2167,-3.244,-3.3027,-3.2987,-3.2538,-3.1797,-3.1797,-3.1465,0.0,0.0,0.0,0.0,0.0,0.0,0.0,0.0,0.0,0.0,0.0,0.0,0.0,0.0,0.0,0.0,0.0,0.0,0.0,-3.7485,-4.0448,0.0,-4.5433,-4.7645,-4.9352,-4.898,-4.8298,-4.7317,-4.5836,-4.4259,-4.3335,-4.4124,-4.3662,-4.3431,-4.4509,-4.521,-4.5402,-4.4797,-4.521,0.0,0.0,0.0,0.0,-5.1478,-5.4203,-5.627,0.0,0.0,-5.7776,-5.7226,-5.7685,0.0,-5.6418,-5.6106,-5.6235,-5.6785,-5.5482,-5.4785,-5.4785,-5.3977,-5.3592,-5.3573,-5.2766,-5.238,-5.2344,-5.1555,-5.1187,0.0,0.0,0.0,0.0,-4.8442,-4.7448,-4.6495,-4.563,-4.4817,-4.3992,-4.2789,-4.2285,-4.2154,0.0,0.0,0.0,0.0,0.0,0.0,0.0,-3.2402,-3.2949,-3.2949,-3.3418,-3.3789,-3.3887,-3.2871,-3.2441,-3.3086,-3.2344,0.0,0.0,0.0,0.0,0.0,0.0,0.0,0.0,-3.1699,-3.2109,-3.2656,-3.2988,-3.3398,-3.3887,-3.3887,-3.3457,-3.2637,-3.2344,-3.1894,0.0,0.0,0.0,0.0,0.0,0.0,-3.1699,0.0,0.0,0.0,0.0,0.0,0.0,0.0,0.0,0.0,0.0,0.0,0.0,0.0,-3.8403,-4.0816,-4.289,-4.5135,-4.6798,-4.6549,-4.6196,0.0,0.0,-4.3412,-4.2835,-4.3682,-4.3181,-4.297,-4.4085,-4.4739,-4.494,-4.4393,-4.5037,0.0,0.0,0.0,0.0,-5.1085,0.0,0.0,0.0,-5.7189,-5.7336,0.0,0.0,0.0,-5.5669,-5.5299,-5.5372,-5.5886,-5.4638,-5.3959,-5.3959,-5.3151,-5.2747,-5.2747,-5.1922,-5.1555,-5.1518,-5.071,-5.0343,0.0,0.0,0.0,0.0,-4.8086,-4.7161,-4.6025,-4.5536,-4.4776,-4.3839,-4.2845,-4.2273,-4.1945,0.0,0.0,0.0,0.0,0.0,0.0,0.0,-3.1699,-3.2266,-3.2207,-3.2305,-3.2949,-3.4434,-3.3223,-3.291,-3.4473,0.0,0.0,0.0,0.0,0.0,0.0,0.0,0.0,0.0,-3.2969,-3.3379,-3.3496,-3.4375,-3.4824,-3.4883,-3.4941,-3.4473,-3.3555,-3.2734,-3.2285,0.0,0.0,0.0,0.0,0.0,0.0,0.0,0.0,0.0,0.0,0.0,0.0,0.0,0.0,0.0,0.0,0.0,0.0,0.0,0.0,0.0,0.0,0.0,-4.2927,-4.435,-4.5228,-4.4777,-4.4122,-4.4055,-4.2874,0.0,-4.2835,-4.2354,-4.2316,-4.3989,-4.4239,-4.4239,-4.4374,-4.5017,0.0,0.0,-4.6454,0.0,0.0,-5.2685,0.0,-5.432,-5.5802,0.0,0.0,0.0,0.0,-5.5427,-5.4766,-5.4344,-5.4234,-5.35,-5.3115,-5.3115,-5.2325,-5.1903,-5.1885,-5.1096,-5.0674,-5.06,-4.9794,-4.939,0.0,0.0,0.0,0.0,-4.7003,-4.6526,-4.57,-4.4447,-4.3909,-4.3705,-4.2391,-4.1895,-4.1789,0.0,0.0,0.0,0.0,0.0,0.0,0.0,0.0,0.0,0.0,-3.332,-3.4004,-3.373,-3.3359,-3.3281,0.0,0.0,0.0,0.0,0.0,0.0,0.0,0.0,0.0,0.0,-3.2695,-3.3105,-3.4394,-3.5273,-3.6035,-3.6699,-3.7363,-3.6855,-3.5351,-3.4492,-3.3027,0.0,0.0,0.0,0.0,0.0,0.0,0.0,0.0,0.0,0.0,-3.1953,-3.2851,0.0,0.0,0.0,0.0,0.0,0.0,0.0,0.0,-3.6601,-3.7461,-3.8215,0.0,-4.1006,-4.1718,-4.2209,-4.2342,0.0,0.0,0.0,0.0,0.0,0.0,0.0,-4.3797,-4.3797,-4.5094,0.0,0.0,-4.513,0.0,0.0,-5.2375,-5.4679,-5.5563,-5.4014,-5.5367,0.0,0.0,0.0,-5.506,-5.383,-5.4179,-5.383,-5.2601,-5.238,-5.227,-5.227,-5.1481,-5.1077,-5.1077,-5.027,-4.9517,-4.8857,-4.8048,-4.7352,0.0,0.0,0.0,-4.6177,-4.6177,-4.5718,-4.4948,-4.4638,-4.4144,-4.3541,-4.3214,-4.2828,-4.2382,0.0,0.0,0.0,0.0,0.0,0.0,0.0,0.0,0.0,0.0,0.0,0.0,0.0,0.0,0.0,0.0,0.0,0.0,0.0,0.0,0.0,0.0,0.0,-3.3555,-3.3984,-3.4355,-3.459,-3.4707,-3.6367,-3.7226,-3.7324,-3.8184,-3.7871,-3.6543,-3.5273,-3.3711,0.0,0.0,0.0,0.0,-3.3804,0.0,0.0,0.0,0.0,0.0,-3.1426,-3.2383,0.0,-3.3945,-3.4941,-3.5996,0.0,0.0,0.0,0.0,-3.6328,-3.6797,-3.7187,-3.8466,-3.9787,-4.0147,-4.0829,-4.1254,-4.0725,-4.0904,0.0,0.0,0.0,0.0,0.0,-4.2797,0.0,0.0,-4.4374,0.0,0.0,0.0,-5.0315,-5.3076,-5.444,-5.5151,0.0,0.0,0.0,0.0,0.0,-5.3835,-5.2966,-5.2819,-5.2344,-5.1481,-5.1077,-5.1098,-5.1444,-5.0637,-5.0251,-5.0233,-4.9022,-4.8214,-4.7718,-4.6911,-4.6305,0.0,0.0,0.0,-4.5351,-4.5351,-4.4874,-4.4158,-4.4158,-4.3883,-4.3515,-4.3515,-4.3322,-4.2995,0.0,0.0,0.0,0.0,0.0,0.0,0.0,0.0,0.0,0.0,0.0,0.0,0.0,0.0,0.0,0.0,0.0,0.0,0.0,0.0,0.0,0.0,0.0,-3.4824,-3.5098,-3.6289,-3.6387,-3.5293,-3.7656,-3.8418,-3.7715,-3.8711,-3.8516,-3.7226,-3.5625,-3.4336,0.0,0.0,-3.4228,-3.3672,-3.4498,0.0,0.0,0.0,0.0,0.0,0.0,0.0,0.0,-3.3359,-3.4473,-3.582,-3.5957,0.0,0.0,0.0,0.0,0.0,-3.6894,-3.8293,-3.9559,-3.9667,-4.0232,-4.0735,-4.0709,-4.061,-4.0515,0.0,0.0,0.0,0.0,-4.1788,0.0,0.0,0.0,0.0,-4.8298,-4.8136,-4.9237,-5.3239,-5.3471,0.0,0.0,0.0,0.0,0.0,0.0,-5.2504,-5.2504,-5.1471,-5.083,-5.0701,-4.9979,-4.9848,-5.0417,-4.9738,-4.9353,-4.9206,-4.7792,-4.6966,-4.6709,-4.603,-4.5645,-4.5535,0.0,0.0,-4.4525,-4.4525,-4.4121,-4.3515,-4.3515,-4.3515,-4.3515,-4.3515,-4.3515,-4.3427,0.0,0.0,0.0,0.0,0.0,0.0,0.0,0.0,0.0,0.0,0.0,0.0,0.0,0.0,0.0,0.0,0.0,0.0,0.0,0.0,0.0,-3.6914,-3.5488,-3.5391,-3.6875,-3.5723,-3.6055,-3.8008,-3.9141,-3.9629,-3.9531,-4.1094,-4.0195,-3.7266,-3.625,-3.4902,-3.3457,-3.4316,-3.4609,-3.457,-3.5449,0.0,0.0,0.0,0.0,0.0,0.0,0.0,0.0,-3.3164,-3.4062,-3.5039,-3.5762,0.0,0.0,0.0,0.0,0.0,-3.6152,-3.7461,-3.8922,-3.954,-4.0337,-4.0912,-4.074,-4.068,-4.0643,0.0,0.0,0.0,0.0,-4.1788,-4.2316,0.0,0.0,-4.7635,0.0,0.0,-5.1685,-5.3119,0.0,0.0,0.0,0.0,0.0,0.0,0.0,-5.2005,-5.2005,-5.1498,-5.0915,-5.0228,-4.9823,-4.9297,-4.8691,-4.8563,-4.8159,-4.748,-4.7223,-4.6379,-4.5058,-4.4947,-4.4507,-4.3882,0.0,-4.3808,-4.3681,-4.3681,-4.3608,-4.3515,-4.3515,-4.3515,-4.3515,-4.3515,-4.3515,-4.3427,0.0,0.0,0.0,0.0,0.0,0.0,0.0,0.0,0.0,0.0,0.0,0.0,0.0,0.0,0.0,0.0,0.0,0.0,0.0,0.0,0.0,-3.8652,-3.748,-3.6953,-3.7285,-3.7441,-3.8105,-3.9297,-4.1074,-4.1484,-4.0605,-4.0918,-3.9961,-3.7988,-3.7578,-3.6699,-3.5566,-3.6445,-3.6543,-3.6133,0.0,0.0,0.0,0.0,0.0,0.0,0.0,0.0,0.0,0.0,-3.3613,-3.4766,-3.5176,0.0,0.0,0.0,0.0,0.0,-3.5996,-3.7266,-3.8672,-3.9017,-4.0018,-4.087,-4.0729,-4.063,-4.0561,0.0,0.0,0.0,0.0,0.0,-4.2508,-4.4643,0.0,-4.8086,-4.9635,-4.9846,-5.0337,0.0,0.0,0.0,0.0,0.0,0.0,0.0,0.0,0.0,-5.0261,-4.9439,-4.872,-4.8118,-4.7951,-4.7591,-4.7003,-4.7003,-4.704,-4.7094,-4.6214,-4.5406,-4.469,-4.425,-4.3846,-4.3515,0.0,-4.3515,-4.3515,-4.3515,-4.3515,-4.3515,-4.3515,-4.3515,-4.3515,-4.3515,-4.3515,-4.3427,0.0,0.0,0.0,0.0,0.0,0.0,0.0,0.0,0.0,0.0,0.0,0.0,0.0,0.0,0.0,0.0,0.0,0.0,0.0,0.0,-3.8281,-3.9824,-3.9258,-3.8691,-3.8223,-3.9316,-4.0195,-4.0781,-4.2734,-4.3047,-4.1758,-4.0703,-3.9746,-3.8906,-3.8906,-3.8418,-3.7656,-3.832,-3.8203,-3.7598,0.0,0.0,0.0,0.0,0.0,0.0,0.0,0.0,0.0,0.0,0.0,0.0,0.0,0.0,0.0,-3.5996,-3.5996,-3.5996,-3.5996,-3.7129,-3.8281,-3.826,-3.9577,-4.0912,-4.1004,-4.0951,-4.0916,-4.107,0.0,0.0,0.0,-4.1527,0.0,-4.549,-4.7144,-4.8317,-4.8913,-4.899,-4.9567,-5.1087,0.0,0.0,0.0,0.0,0.0,0.0,0.0,0.0,-4.8678,-4.7669,-4.6991,-4.6667,-4.6579,-4.6359,-4.6027,-4.5824,-4.601,-4.6526,-4.5278,-4.4617,-4.4397,-4.3773,-4.3515,-4.3515,-4.3515,-4.3515,-4.3515,-4.3515,-4.3515,-4.3515,-4.3515,-4.3515,-4.3515,-4.3515,-4.3515,-4.3444,0.0,0.0,0.0,0.0,0.0,0.0,0.0,0.0,0.0,0.0,0.0,0.0,0.0,0.0,0.0,0.0,0.0,0.0,0.0,0.0,-3.8926,-3.9863,-3.9844,-4.0156,-4.0898,-4.0254,-4.1055,-4.3437,-4.3613,-4.3633,-4.3476,-4.1855,-4.0644,-3.9805,-3.9805,-3.9316,-3.8516,-3.8574,-3.8555,-3.8437,-3.7637,0.0,0.0,0.0,0.0,0.0,0.0,0.0,0.0,0.0,0.0,0.0,0.0,0.0,-3.5996,-3.5996,-3.5996,-3.5996,-3.5996,-3.668,-3.7362,-3.724,-3.9207,-4.1318,-4.1878,-4.1998,-4.2159,-4.278,-4.2912,0.0,0.0,-4.2431,-4.3835,-4.6394,-4.7528,-4.8933,-5.1288,0.0,0.0,0.0,0.0,0.0,0.0,0.0,0.0,0.0,0.0,0.0,-4.8154,-4.7696,-4.7455,-4.7412,-4.7127,-4.678,-4.6376,-4.5629,-4.5119,-4.4856,-4.4746,-4.4305,-4.3571,-4.3533,-4.3515,-4.3515,-4.3515,-4.3515,-4.3515,-4.3515,-4.3515,-4.3515,-4.3515,-4.3515,-4.3515,-4.3515,-4.3515,-4.3479,0.0,0.0,0.0,0.0,0.0,0.0,0.0,0.0,0.0,0.0,0.0,0.0,0.0,0.0,0.0,0.0,0.0,0.0,0.0,-3.8301,-3.875,-3.9082,-3.9609,-4.0059,-4.0371,-4.1094,-4.2461,-4.4512,-4.3965,-4.3691,-4.3652,-4.1973,-4.0449,-3.9141,-4.0215,-3.9629,-3.7891,-3.9531,-3.959,-3.8574,-3.8242,-3.7598,0.0,0.0,0.0,0.0,0.0,0.0,0.0,0.0,-3.2539,-3.3437,-3.3594,-3.4726,-3.5898,-3.5351,-3.5195,-3.5312,-3.5859,-3.6641,-3.7285,-3.7242,-3.9237,-4.1202,-4.1217,-4.205,-4.2691,-4.2352,-4.3124,0.0,0.0,0.0,-4.497,-4.5932,-4.7682,-4.9067,0.0,0.0,0.0,0.0,0.0,0.0,0.0,0.0,0.0,0.0,0.0,0.0,-4.6567,-4.6398,-4.6221,-4.6001,-4.5874,-4.5653,-4.5284,-4.4979,-4.4758,-4.4617,-4.4173,-4.3791,-4.3515,-4.3515,-4.3515,-4.3515,-4.3515,-4.3515,-4.3515,-4.3515,-4.3515,-4.3515,-4.3515,-4.3515,-4.3515,-4.3515,-4.3515,-4.3515,0.0,0.0,0.0,0.0,0.0,0.0,0.0,0.0,0.0,0.0,0.0,0.0,0.0,0.0,0.0,0.0,0.0,0.0,-3.7246,-3.7851,-3.8301,-3.8594,-3.918,-3.9629,-3.9883,-4.1289,-4.2734,-4.418,-4.3574,-4.3281,-4.3262,-4.1855,-4.0566,-3.9473,-4.0664,-4.0059,-3.8242,-4.0039,-3.9941,-3.8574,-3.8301,-3.7832,0.0,0.0,0.0,0.0,0.0,0.0,0.0,0.0,-3.2285,-3.3027,-3.3008,-3.4199,-3.5469,-3.4883,-3.4707,-3.4766,-3.5098,-3.582,-3.6465,-3.6443,-3.8609,-4.0714,-4.0707,-4.2038,-4.3201,-4.3046,-4.3489,-4.3835,-4.3528,0.0,0.0,0.0,-4.7278,0.0,0.0,0.0,0.0,0.0,0.0,0.0,0.0,0.0,0.0,0.0,0.0,0.0,0.0,-4.5594,-4.5495,-4.5272,-4.4985,-4.4696,-4.4347,-4.407,-4.3888,-4.3774,-4.3267,-4.3243,-4.3662,-4.3548,-4.3515,-4.3515,-4.3515,-4.3515,-4.3515,-4.3515,-4.3515,-4.3515,-4.3515,-4.3515,-4.3515,-4.3515,-4.3515,-4.3515,0.0,0.0,0.0,0.0,0.0,0.0,0.0,0.0,0.0,0.0,0.0,0.0,0.0,0.0,0.0,0.0,0.0,0.0,-3.7226,-3.7305,-3.7676,-3.8535,-3.8594,-3.9004,-3.9863,-4.0742,-4.1582,-4.2402,-4.2402,-4.2402,-4.2383,-4.1582,-4.1191,-4.1172,-4.1172,-4.0684,-3.9863,-3.9883,-3.9375,-3.8516,-3.7656,-3.7305,-3.7207,0.0,0.0,0.0,0.0,0.0,0.0,0.0,-3.2851,-3.25,-3.4141,-3.4687,-3.4707,-3.4687,-3.4687,-3.4512,-3.3652,-3.4043,-3.4706,-3.4643,-3.7182,-3.9892,-4.0563,-4.2115,-4.3825,-4.5293,-4.4267,-4.3355,-4.4143,-4.3662,0.0,-4.5325,-4.6336,0.0,0.0,0.0,0.0,0.0,0.0,0.0,0.0,0.0,0.0,0.0,0.0,0.0,0.0,-4.5575,-4.5575,-4.5575,-4.4739,-4.4124,-4.3808,-4.295,-4.2332,-4.2021,-4.2008,-4.2685,-4.3982,-4.3662,-4.3496,-4.3496,-4.3496,-4.3515,-4.3515,-4.3515,-4.3515,-4.3515,-4.3515,-4.3515,-4.3515,-4.3515,-4.3515,-4.3515,0.0,0.0,0.0,0.0,0.0,0.0,0.0,0.0,0.0,0.0,0.0,0.0,0.0,0.0,0.0,0.0,0.0,0.0,-3.6367,-3.6953,-3.7148,-3.6797,-3.7949,-3.8437,-3.8086,-3.9531,-4.1289,-4.3301,-4.2695,-4.2402,-4.2383,-4.1582,-4.0547,-3.9394,-4.0019,-3.9121,-3.7246,-3.8476,-3.8476,-3.7715,-3.8066,-3.7851,-3.7266,0.0,0.0,0.0,0.0,0.0,0.0,0.0,0.0,0.0,-3.2246,-3.3262,-3.4473,-3.3281,-3.3789,-3.4648,-3.4375,-3.4918,-3.5683,-3.6214,-3.8438,0.0,0.0,-4.2945,0.0,0.0,-4.4781,-4.4028,-4.4259,-4.4605,0.0,-4.4701,-4.5932,0.0,0.0,0.0,0.0,0.0,0.0,0.0,0.0,0.0,0.0,0.0,0.0,0.0,0.0,-4.3835,-4.3835,-4.3835,-4.3585,-4.3417,-4.3299,-4.3059,-4.286,-4.2766,-4.2489,-4.2752,-4.3496,-4.3167,-4.3317,-4.3833,-4.3614,-4.3515,-4.3515,-4.3515,-4.3515,-4.3515,-4.3515,-4.3515,-4.3515,-4.3515,-4.3515,-4.3515,0.0,0.0,0.0,0.0,0.0,0.0,0.0,0.0,0.0,0.0,0.0,0.0,0.0,0.0,0.0,0.0,0.0,0.0,0.0,-3.6484,-3.6699,-3.6523,-3.7519,-3.8164,-3.832,-3.9355,-4.0624,-4.2104,-4.164,-4.123,-4.0898,-4.0742,-4.0117,-3.9141,-4.0039,-3.916,-3.7109,-3.8144,-3.7891,-3.6855,-3.7734,-3.7559,-3.6855,0.0,0.0,0.0,0.0,0.0,0.0,0.0,0.0,0.0,-3.2109,-3.2734,-3.3496,-3.2439,-3.2848,-3.3627,-3.3598,-3.4452,-3.5607,-3.6716,-3.9131,-4.1528,-4.2672,0.0,0.0,0.0,-4.4958,-4.4412,-4.4739,-4.496,0.0,-4.4393,0.0,0.0,0.0,0.0,0.0,0.0,0.0,0.0,0.0,0.0,0.0,0.0,0.0,0.0,0.0,-4.2777,-4.2585,-4.2585,-4.1931,-4.1739,-4.2066,-4.1739,-4.1739,-4.2066,-4.1825,-4.2067,-4.2699,-4.2439,-4.2519,-4.2844,-4.2973,-4.302,-4.3039,-4.3369,-4.3515,-4.3515,-4.3515,-4.3515,-4.3515,-4.3515,-4.3515,-4.3515,0.0,0.0,0.0,0.0,0.0,0.0,0.0,0.0,0.0,0.0,-3.5879,0.0,0.0,0.0,0.0,0.0,0.0,0.0,0.0,0.0,-3.6387,-3.7266,-3.7441,-3.8301,-3.996,-3.9922,-3.9779,-3.957,-3.9779,-3.9433,-3.8593,-3.9472,-3.9843,-3.9804,-4.0605,-4.0039,-3.8476,-3.8398,-3.7441,-3.6074,-3.6953,-3.6777,-3.6172,-3.7851,0.0,0.0,0.0,0.0,0.0,0.0,0.0,0.0,-3.3105,-3.2832,-3.2265,-3.1978,-3.2008,-3.2113,-3.203,-3.3281,-3.4975,-3.6521,-3.9475,0.0,-4.4201,-4.5121,-4.5575,-4.5505,0.0,-4.4643,-4.5344,-4.4836,-4.4278,0.0,0.0,0.0,0.0,0.0,0.0,0.0,0.0,0.0,0.0,0.0,0.0,0.0,0.0,0.0,0.0,-4.1873,-4.1442,-4.1442,-3.9969,-3.9534,-4.0265,-3.9554,-3.9554,-4.0265,-4.0265,-4.0673,-4.1412,-4.1493,-4.1371,-4.1132,-4.1882,-4.2194,-4.2249,-4.2983,-4.3277,-4.3277,-4.3277,-4.3277,-4.3277,-4.3368,-4.3404,-4.3387,0.0,0.0,0.0,0.0,0.0,0.0,0.0,0.0,0.0,0.0,0.0,0.0,0.0,0.0,0.0,0.0,0.0,0.0,0.0,0.0,-3.6387,-3.7266,-3.8613,-3.9783,-4.0738,-4.0096,-3.9373,-3.8598,-3.9373,-3.9261,-3.838,-3.9302,-3.9375,-3.8731,-3.9021,-3.8574,-3.7539,-3.6855,-3.6348,-3.6074,-3.6953,-3.6777,-3.6113,-3.7187,-3.6914,0.0,0.0,0.0,0.0,0.0,0.0,0.0,-3.2812,-3.2773,-3.2871,-3.1522,-3.2022,-3.3018,-3.3,-3.4156,0.0,-3.7406,-4.0352,-4.3277,-4.498,-4.5486,-4.5445,-4.4861,-4.5047,-4.5171,-4.4662,-4.4432,-4.4085,0.0,0.0,0.0,0.0,0.0,0.0,0.0,0.0,0.0,0.0,0.0,0.0,0.0,0.0,0.0,-3.9123,-3.8911,-3.8815,-3.8815,-3.8469,-3.8354,-3.8546,-3.8373,-3.8373,0.0,-3.8546,-3.85,-3.8477,-4.0185,-4.1022,-4.1113,-4.1279,-4.1352,-4.137,-4.1535,-4.1625,-4.1625,-4.1625,-4.1625,-4.1682,-4.2323,-4.2561,-4.2653,0.0,0.0,0.0,0.0,0.0,0.0,0.0,0.0,0.0,0.0,0.0,0.0,0.0,0.0,0.0,0.0,0.0,0.0,0.0,0.0,-3.6582,-3.7871,-3.9527,-4.0413,-4.0375,-3.9899,-3.8991,-3.7625,-3.8112,-3.8134,-3.7695,-3.8634,-3.9068,-3.9027,-3.9157,-3.873,-3.7871,-3.6992,-3.6387,-3.6074,-3.6953,-3.6777,-3.6133,-3.7422,-3.7129,-3.6055,-3.6465,0.0,0.0,0.0,0.0,0.0,0.0,0.0,-3.2558,-3.1207,-3.1685,-3.2659,-3.2594,-3.4361,0.0,-3.9258,0.0,-4.3335,-4.4201,-4.4393,-4.4292,-4.3913,-4.4429,-4.4836,-4.4374,-4.3989,0.0,0.0,0.0,0.0,0.0,0.0,0.0,0.0,0.0,0.0,0.0,0.0,0.0,0.0,0.0,-3.8469,-3.8027,-3.7603,-3.7373,-3.7373,-3.7007,-3.6988,-3.7373,-3.7373,-3.7584,-3.8007,-3.8007,-3.7816,-3.7537,-3.8556,-3.9232,-3.9593,-3.9981,-4.028,-4.0561,-4.093,-4.1095,-4.1095,-4.1095,-4.1095,-4.115,-4.1572,-4.1735,-4.1846,0.0,0.0,0.0,0.0,0.0,0.0,0.0,0.0,0.0,0.0,0.0,0.0,0.0,0.0,0.0,0.0,0.0,0.0,0.0,0.0,0.0,-3.83,-3.9767,-4.021,-3.9453,-3.9231,-3.8397,-3.6867,-3.6732,-3.6915,-3.7407,-3.806,-3.8857,-3.9676,-3.9683,-3.9277,-3.8535,-3.7519,-3.666,-3.6055,-3.6797,-3.6641,-3.6152,-3.7598,-3.7266,-3.6094,-3.6816,-3.6601,-3.5996,-3.5996,0.0,0.0,0.0,0.0,-3.2187,-3.1063,-3.1227,-3.1773,-3.182,-3.4202,-3.7419,-4.0585,-4.2027,0.0,-4.3028,-4.3104,-4.3104,-4.3104,-4.3624,-4.4047,-4.3893,0.0,0.0,0.0,0.0,0.0,0.0,0.0,0.0,0.0,0.0,0.0,0.0,0.0,0.0,0.0,0.0,-3.7719,-3.7584,-3.6885,-3.6481,-3.6481,-3.5846,-3.5827,-3.6481,-3.6481,-3.6846,-3.7565,-3.7565,-3.7417,-3.7142,-3.6928,-3.7235,-3.8001,-3.8611,-3.9211,-3.9807,-4.0446,-4.0691,-4.0691,-4.0691,-4.0691,-4.0691,-4.0838,-4.0875,-4.1022,0.0,0.0,0.0,0.0,0.0,0.0,0.0,0.0,0.0,0.0,-3.4336,0.0,0.0,0.0,0.0,0.0,0.0,0.0,0.0,0.0,0.0,-3.7378,-3.827,-3.8647,-3.8418,-3.7642,-3.7094,-3.6734,-3.6022,-3.6825,-3.8972,-3.8523,-3.8773,-3.9591,-3.9012,-3.8711,-3.8496,-3.6855,-3.6113,-3.6016,-3.6133,-3.6094,-3.6035,-3.6269,-3.6191,-3.6016,-3.6133,-3.6094,-3.5996,-3.5996,-3.5918,0.0,0.0,0.0,-3.293,-3.1347,-3.0871,-3.1024,-3.1763,0.0,-3.6383,0.0,-4.0246,-4.1247,0.0,0.0,-4.3104,0.0,-4.3181,-4.3028,0.0,0.0,0.0,0.0,0.0,0.0,0.0,0.0,0.0,0.0,0.0,0.0,0.0,0.0,0.0,0.0,-3.6865,-3.6577,-3.5865,-3.5712,-3.5654,-3.5654,-3.5558,-3.5558,-3.5654,-3.5654,-3.5712,-3.5827,-3.5827,-3.5813,-3.5765,-3.5736,-3.665,-3.824,-3.8096,-3.8505,-3.9189,-3.9065,-3.9019,-3.9019,-3.9019,-3.9019,-3.9111,-3.979,-4.0065,-4.0267,0.0,0.0,0.0,0.0,0.0,0.0,0.0,0.0,0.0,0.0,0.0,-3.5039,0.0,0.0,0.0,0.0,0.0,0.0,0.0,0.0,0.0,-3.7193,-3.7906,-3.8026,-3.7471,-3.7009,-3.653,-3.6038,-3.5673,-3.6796,-3.9292,-3.9049,-3.9874,-4.1543,-3.9921,-3.9222,-3.9087,-3.6913,-3.5996,-3.5996,-3.5996,-3.5996,-3.5996,-3.5996,-3.5996,-3.5996,-3.5996,-3.5996,-3.5996,-3.5996,-3.5684,-3.5059,-3.3809,0.0,0.0,0.0,-3.121,-3.1805,-3.3059,-3.3759,-3.474,0.0,-3.8469,-3.9296,-4.0065,-4.0969,-4.1508,-4.1066,-4.0969,0.0,0.0,0.0,0.0,0.0,0.0,0.0,0.0,0.0,0.0,0.0,0.0,0.0,0.0,0.0,0.0,0.0,-3.6038,-3.5865,-3.5519,-3.55,-3.5269,-3.4795,-3.4776,-3.4776,-3.4776,-3.4776,-3.5026,-3.55,-3.55,-3.55,-3.55,-3.55,-3.6116,-3.7164,-3.7049,-3.7378,-3.7972,-3.7694,-3.7581,-3.7623,-3.7916,-3.8028,-3.812,-3.8927,-3.9239,-3.9386,0.0,0.0,0.0,0.0,0.0,0.0,0.0,0.0,0.0,0.0,0.0,0.0,0.0,0.0,0.0,0.0,0.0,0.0,0.0,0.0,0.0,-3.6799,-3.7271,-3.7232,-3.656,-3.6447,-3.6096,-3.55,-3.55,-3.6796,-3.9304,-3.9354,-4.0836,-4.3388,-4.1035,-3.973,-3.9212,-3.7127,-3.6263,-3.6267,-3.6052,-3.5976,-3.5996,-3.5996,-3.5996,-3.5996,-3.5996,-3.5996,-3.5976,-3.5742,-3.5234,-3.4512,-3.3437,-3.2676,0.0,0.0,0.0,-3.2107,0.0,0.0,-3.3518,-3.5315,-3.6588,-3.7448,0.0,0.0,-3.9438,0.0,0.0,0.0,0.0,0.0,0.0,0.0,0.0,0.0,0.0,0.0,0.0,0.0,0.0,0.0,0.0,0.0,0.0,0.0,-3.4846,-3.4846,-3.4846,-3.4846,-3.4545,-3.3898,-3.3878,-3.3975,-3.4205,-3.441,-3.4853,-3.55,-3.55,-3.55,-3.55,-3.55,-3.5721,-3.6099,-3.624,-3.6635,-3.7179,-3.6904,-3.6789,-3.6839,-3.7161,-3.7421,-3.7665,-3.8187,-3.8524,-3.8817,0.0,0.0,0.0,0.0,0.0,0.0,0.0,0.0,0.0,0.0,0.0,0.0,-3.5898,-3.5996,-3.5996,-3.5996,0.0,0.0,0.0,0.0,0.0,-3.5679,-3.5713,0.0,-3.5578,-3.5565,-3.5538,-3.55,-3.55,-3.6796,-3.9304,-3.9292,-4.107,-4.4138,-4.1784,-3.9859,-3.8314,-3.7345,-3.698,-3.6973,-3.6215,-3.5946,-3.5996,-3.5996,-3.5996,-3.5996,-3.5996,-3.5996,-3.5879,-3.5059,-3.4746,-3.4414,-3.2773,-3.2226,-3.2031,0.0,0.0,0.0,0.0,-3.2071,0.0,-3.3203,-3.4467,-3.5911,0.0,0.0,0.0,0.0,0.0,0.0,0.0,0.0,0.0,0.0,0.0,0.0,0.0,0.0,0.0,0.0,0.0,0.0,0.0,0.0,0.0,0.0,-3.3045,-3.3045,-3.3045,-3.3045,-3.3006,-3.2968,-3.2968,-3.3353,-3.4186,-3.5026,-3.5462,-3.55,-3.55,-3.55,-3.55,-3.55,-3.5512,-3.5568,-3.6088,-3.6747,-3.7462,-3.719,-3.7077,-3.7055,-3.6833,-3.7208,-3.7856,-3.7628,-3.8046,-3.8817,0.0,0.0,0.0,0.0,0.0,0.0,0.0,0.0,0.0,0.0,0.0,0.0,0.0,-3.5804,-3.5804,-3.5804,-3.589,0.0,0.0,0.0,0.0,-3.5675,-3.5588,-3.5528,-3.55,-3.55,-3.55,-3.55,-3.55,-3.6519,-3.8469,-3.8469,-3.9392,-4.1062,-4.0267,-3.9887,-3.9679,-3.7207,-3.6495,-3.6962,-3.6114,-3.6155,-3.6642,-3.6137,-3.5952,-3.5996,-3.5996,-3.5996,-3.5957,-3.5644,0.0,0.0,0.0,0.0,-3.1309,-3.0996,0.0,0.0,0.0,0.0,0.0,-3.2172,-3.3115,-3.3993,-3.4268,-3.5168,-3.6019,-3.6327,0.0,0.0,0.0,0.0,0.0,0.0,0.0,0.0,0.0,0.0,0.0,0.0,0.0,0.0,0.0,0.0,0.0,0.0,0.0,-3.3897,-3.3804,-3.4331,-3.4349,-3.3744,-3.3179,-3.2795,-3.2602,-3.343,-3.3833,-3.3833,-3.3833,-3.3833,-3.3833,-3.3833,-3.4141,-3.468,-3.4873,-3.5431,-3.6201,-3.5929,-3.5828,-3.5818,-3.5907,-3.6428,-3.7158,-3.7421,-3.8025,-3.8744,0.0,0.0,0.0,0.0,0.0,0.0,0.0,0.0,0.0,-3.4386,0.0,0.0,0.0,0.0,-3.5707,-3.5707,-3.5772,-3.5845,-3.5862,-3.5746,-3.5659,-3.5635,-3.5546,-3.55,-3.55,-3.5212,-3.5212,-3.55,-3.5212,-3.593,-3.7565,-3.7565,-3.818,-3.9284,-3.8723,-3.8981,-3.9644,-3.7413,-3.6662,-3.6887,-3.6021,-3.6232,-3.7021,-3.6518,-3.6523,-3.6773,-3.6523,-3.6445,-3.6348,-3.5762,0.0,0.0,0.0,0.0,0.0,0.0,0.0,0.0,-3.0793,0.0,0.0,0.0,0.0,-3.2734,-3.2991,0.0,-3.4334,0.0,0.0,0.0,0.0,0.0,0.0,0.0,0.0,0.0,0.0,0.0,0.0,0.0,0.0,0.0,0.0,0.0,0.0,0.0,0.0,0.0,-3.3473,-3.404,-3.4066,-3.3412,-3.2807,-3.2237,-3.1718,-3.2795,-3.3333,-3.3333,-3.3333,-3.3333,-3.3333,-3.3026,-3.3218,-3.3782,-3.4071,-3.4699,-3.5493,-3.5304,-3.5231,-3.522,-3.5235,-3.5722,-3.6491,-3.6929,-3.7621,-3.834,0.0,0.0,0.0,0.0,0.0,0.0,0.0,0.0,-3.3427,-3.4392,0.0,0.0,0.0,0.0,0.0,-3.57,-3.57,-3.5659,-3.5606,-3.5591,-3.5566,-3.5514,0.0,0.0,-3.55,-3.4661,-3.4641,-3.55,-3.4641,-3.5064,-3.6654,-3.6654,-3.7584,-3.915,-3.745,-3.718,-3.7969,-3.793,-3.7546,-3.6859,-3.5968,-3.6178,-3.7039,-3.7125,-3.7634,-3.8225,-3.7516,-3.7265,-3.6992,-3.5312,0.0,0.0,0.0,0.0,0.0,0.0,0.0,0.0,0.0,0.0,0.0,0.0,0.0,0.0,-3.2901,0.0,-3.1976,0.0,0.0,0.0,0.0,0.0,0.0,0.0,0.0,0.0,0.0,0.0,0.0,0.0,0.0,0.0,0.0,0.0,0.0,0.0,-3.065,-3.104,-3.1902,-3.1996,-3.1978,-3.1885,-3.1816,-3.1743,-3.1705,-3.3321,-3.4109,-3.409,-3.409,-3.409,-3.4071,-3.3218,-3.2852,-3.2949,-3.3801,-3.4661,-3.55,-3.55,-3.55,-3.5446,-3.4926,-3.5203,-3.594,-3.6213,-3.6828,-3.7636,0.0,0.0,0.0,0.0,0.0,0.0,-3.5175,-3.4969,-3.4905,0.0,0.0,0.0,-3.5525,-3.5564,-3.5571,-3.5616,-3.5626,-3.5648,-3.5659,-3.5626,-3.559,-3.5571,-3.5528,-3.55,-3.55,-3.525,-3.525,-3.55,-3.525,-3.5385,-3.5827,-3.5827,-3.6404,-3.7411,-3.6923,-3.6827,-3.7019,-3.6442,-3.6766,-3.7558,-3.6113,-3.6443,-3.7671,-3.6496,-3.6211,-3.6423,-3.6211,-3.6206,-3.6212,0.0,-3.5013,-3.4082,0.0,0.0,0.0,0.0,0.0,0.0,-3.0898,0.0,0.0,0.0,0.0,0.0,0.0,0.0,0.0,0.0,0.0,0.0,0.0,0.0,0.0,0.0,0.0,0.0,0.0,0.0,0.0,0.0,0.0,0.0,0.0,0.0,0.0,0.0,-3.1945,-3.2717,-3.2896,-3.4022,-3.4377,-3.3773,-3.364,-3.301,-3.1782,-3.2187,-3.2083,-3.1442,-3.1442,-3.1442,-3.1442,-3.1192,-3.175,-3.291,-3.3141,-3.4103,-3.55,-3.55,-3.55,-3.5479,-3.5122,-3.5485,-3.6226,-3.6491,-3.7103,-3.7877,0.0,0.0,0.0,0.0,0.0,-3.6,-3.6,-3.6,-3.5885,0.0,0.0,0.0,-3.55,-3.5808,-3.5868,-3.5583,-3.5556,-3.5571,-3.5616,-3.5588,-3.5556,-3.5556,-3.5515,-3.55,-3.55,-3.5135,-3.5135,-3.55,-3.5135,-3.5135,-3.55,-3.55,-3.575,-3.6192,-3.6192,-3.6192,-3.6173,-3.5692,-3.6058,-3.6873,-3.5885,-3.6318,-3.7416,-3.648,-3.6382,0.0,0.0,0.0,-3.6782,-3.6063,-3.5298,0.0,0.0,0.0,0.0,0.0,0.0,0.0,0.0,0.0,0.0,0.0,0.0,0.0,-3.1771,-3.1242,0.0,0.0,0.0,0.0,0.0,0.0,0.0,0.0,0.0,0.0,0.0,0.0,0.0,0.0,0.0,0.0,0.0,-3.1113,-3.0898,-3.0898,-3.2148,-3.3182,-3.3856,-3.4404,-3.465,-3.4557,-3.4088,-3.335,-3.2341,-3.2294,-3.2,-3.1442,-3.1096,-3.0942,-3.0923,-3.0577,-3.0923,-3.1891,-3.2237,-3.3179,-3.4442,-3.4814,-3.5173,-3.546,-3.5207,-3.5401,-3.5854,-3.6235,-3.6868,-3.7636,0.0,0.0,0.0,-3.6808,-3.675,-3.6731,-3.6827,-3.675,-3.6481,0.0,-3.5788,-3.5788,-3.5788,-3.6327,-3.6442,-3.5827,-3.5615,-3.5538,-3.5635,-3.5558,-3.55,-3.55,-3.55,-3.55,-3.55,-3.4737,-3.4718,-3.55,-3.4718,-3.4737,-3.55,-3.55,-3.55,-3.55,-3.55,-3.55,-3.55,-3.55,-3.55,-3.55,-3.55,-3.5981,-3.6694,-3.6731,-3.7232,-3.7804,-3.7085,-3.7335,-3.7767,-3.6225,-3.521,0.0,0.0,0.0,0.0,0.0,-3.1582,0.0,0.0,0.0,0.0,0.0,0.0,0.0,-3.1831,-3.1334,-3.0743,0.0,0.0,0.0,0.0,0.0,0.0,0.0,0.0,0.0,0.0,0.0,0.0,0.0,0.0,0.0,-3.1973,-3.1348,-3.0898,-3.0898,-3.1797,-3.3027,-3.4629,-3.3996,-3.3945,-3.4726,-3.394,-3.342,-3.3272,-3.3242,-3.3126,-3.2903,-3.2089,-3.1698,-3.1679,-3.0808,-3.0442,-3.0596,-3.1365,-3.216,-3.2968,-3.384,-3.4718,-3.5486,-3.5231,-3.5138,-3.52,-3.574,-3.6405,-3.709,0.0,0.0,-3.6154,-3.7507,-3.718,-3.6942,-3.7642,-3.7161,-3.6904,-3.745,-3.7507,-3.7507,-3.7507,-3.7026,-3.6923,-3.7469,-3.6269,-3.5769,-3.6423,-3.5865,-3.55,-3.55,-3.55,-3.55,-3.55,-3.5327,-3.5327,-3.55,-3.5327,-3.5327,-3.55,-3.55,-3.55,-3.55,-3.55,-3.55,-3.55,-3.55,-3.55,-3.55,-3.55,-3.5981,-3.6622,-3.6009,-3.5888,-3.601,-3.5849,-3.5944,-3.6072,-3.5795,-3.521,-3.4555,0.0,0.0,0.0,-3.2031,0.0,0.0,0.0,0.0,0.0,0.0,0.0,0.0,-3.2262,-3.2007,-3.1844,0.0,0.0,0.0,0.0,0.0,0.0,0.0,0.0,0.0,0.0,0.0,0.0,0.0,0.0,0.0,-3.1133,-3.0996,-3.0898,-3.0898,-3.2305,-3.3613,-3.4648,-3.5195,-3.5546,-3.5722,-3.5504,-3.503,-3.4304,-3.4148,-3.3727,-3.305,-3.2135,-3.1698,-3.1679,-3.0808,-3.0788,-3.1468,-3.1641,-3.216,-3.2968,-3.384,-3.4718,-3.5493,-3.5439,-3.5424,-3.5499,-3.6011,-3.6321,-3.653,0.0,-3.6442,-3.7007,-3.7853,-3.7642,-3.7642,-3.8527,-3.8277,-3.8007,-3.8007,-3.8373,-3.8469,-3.8046,-3.8007,-3.7815,-3.7392,-3.6577,-3.6096,-3.6096,-3.5712,-3.55,-3.55,-3.55,-3.55,-3.55,-3.55,-3.55,-3.55,-3.55,-3.55,-3.55,-3.55,-3.55,-3.55,-3.55,-3.55,-3.55,-3.55,-3.55,-3.55,-3.55,0.0,-3.6058,-3.5654,-3.55,-3.55,-3.55,-3.5522,-3.5639,-3.6125,-3.5757,0.0,-3.4152,-3.3674,-3.3135,0.0,-3.1814,-3.2207,0.0,0.0,0.0,-3.2305,0.0,0.0,0.0,-3.1458,-3.155,-3.1882,-3.0912,-3.0256,-3.1081,0.0,-3.0244,0.0,0.0,0.0,0.0,0.0,0.0,0.0,0.0,0.0,-3.0898,-3.0898,-3.1074,-3.1523,-3.1914,-3.2715,-3.3984,-3.4473,-3.4902,-3.5332,-3.5739,-3.5728,-3.5243,-3.472,-3.3996,-3.3093,-3.2174,-3.1491,-3.1038,-3.0596,-3.0635,-3.1058,-3.1058,-3.1525,-3.2333,-3.2776,-3.3449,-3.4288,-3.5154,-3.55,-3.5525,-3.5806,-3.6143,-3.652,-3.5808,-3.6596,-3.7565,-3.7719,-3.7757,-3.8046,-3.8911,-3.8911,-3.8604,-3.8065,-3.9046,-3.9508,-3.8815,-3.92,-3.9104,-3.8027,-3.7173,-3.6577,-3.625,-3.5769,-3.55,-3.55,-3.55,-3.55,-3.55,-3.55,-3.55,-3.55,-3.55,-3.55,-3.55,-3.55,-3.55,-3.55,-3.55,-3.55,-3.55,-3.55,-3.55,-3.55,0.0,-3.55,-3.55,-3.55,-3.55,-3.55,-3.55,-3.55,-3.5617,-3.6373,-3.6068,-3.5141,-3.4016,-3.3846,0.0,0.0,0.0,0.0,0.0,0.0,0.0,0.0,0.0,-3.2128,0.0,0.0,0.0,0.0,0.0,-3.0039,-3.1449,-3.0567,0.0,0.0,0.0,0.0,0.0,0.0,0.0,0.0,0.0,0.0,-3.1133,-3.0996,-3.1191,-3.1894,-3.1445,-3.1738,-3.3105,-3.3476,-3.3965,-3.4687,-3.5547,-3.5974,-3.5914,-3.5209,-3.4445,-3.3627,-3.2733,-3.1912,-3.1174,-3.0992,-3.0821,-3.0667,-3.0671,-3.0942,-3.1468,-3.1641,-3.2083,-3.2833,-3.4558,-3.525,-3.5269,-3.5442,-3.5904,-3.644,-3.5673,-3.5654,-3.6,-3.6712,-3.6846,-3.7142,-3.8007,-3.7488,-3.7238,-3.7911,-4.0046,-4.1489,-4.1385,-4.0777,-4.092,-4.2258,-3.8911,-3.7315,-3.8757,-3.6757,-3.55,-3.55,-3.55,-3.55,-3.55,-3.55,-3.55,-3.55,-3.55,-3.55,-3.55,-3.55,-3.55,-3.55,-3.55,-3.55,-3.55,-3.55,-3.55,0.0,-3.55,-3.55,0.0,-3.55,-3.55,-3.55,-3.55,-3.55,-3.5519,0.0,-3.5114,-3.4551,0.0,-3.3891,-3.2311,-3.2844,0.0,0.0,0.0,0.0,0.0,0.0,-3.3262,0.0,0.0,0.0,-3.1835,-3.1151,0.0,-3.078,-3.0975,0.0,0.0,0.0,0.0,0.0,0.0,0.0,0.0,0.0,0.0,0.0,0.0,-3.1348,-3.0937,-3.1035,-3.168,-3.2148,-3.2324,-3.375,-3.4609,-3.4707,-3.5547,-3.5996,-3.5995,-3.5823,-3.5683,-3.5574,-3.4645,-3.4137,-3.401,-3.3178,-3.2377,-3.1636,-3.157,-3.1173,-3.0615,-3.1385,-3.1756,-3.2006,-3.368,-3.4359,-3.443,-3.5212,-3.5558,-3.5635,-3.5577,-3.5885,-3.6308,-3.6635,-3.6692,-3.6981,0.0,0.0,-3.9046,-3.94,-4.0816,-4.1788,-4.1788,-4.1306,-4.1337,-4.2261,-4.007,-3.8818,-3.9269,-3.7834,-3.6949,-3.6949,-3.6462,-3.6192,-3.6192,-3.5731,-3.55,-3.55,-3.55,-3.55,-3.55,-3.55,-3.55,-3.55,-3.55,-3.55,-3.55,-3.55,-3.55,0.0,0.0,-3.55,0.0,-3.55,-3.55,-3.55,-3.55,-3.55,-3.55,0.0,-3.5284,0.0,0.0,0.0,0.0,0.0,0.0,0.0,0.0,0.0,0.0,0.0,0.0,0.0,-3.1152,0.0,-3.1484,0.0,0.0,0.0,0.0,0.0,0.0,0.0,-3.0936,0.0,0.0,0.0,0.0,0.0,0.0,0.0,0.0,0.0,0.0,0.0,-3.123,-3.1445,-3.1445,-3.3027,-3.3945,-3.3945,-3.5273,-3.5996,-3.5996,-3.5974,-3.5671,-3.5147,-3.4759,-3.4262,-3.3731,-3.3345,-3.2656,-3.1799,-3.1777,-3.1232,-3.0423,-3.0788,-3.0942,-3.1077,-3.2275,-3.3333,-3.4321,-3.5173,-3.5173,-3.4814,-3.55,-3.5962,-3.6365,-3.6365,-3.6365,0.0,0.0,-3.9,-4.0112,-4.0334,-4.126,-4.2009,-4.2302,-4.2057,-4.2072,-4.2648,-4.1178,-3.9974,-3.9416,-3.8651,-3.7854,-3.7135,-3.6834,-3.6555,-3.6274,-3.576,-3.55,-3.55,-3.55,-3.55,-3.55,-3.55,-3.55,-3.55,-3.55,-3.55,-3.55,0.0,-3.55,-3.55,-3.55,-3.55,-3.55,-3.55,-3.55,-3.55,-3.55,-3.5346,-3.5173,-3.5423,-3.5038,0.0,-3.3506,0.0,0.0,0.0,0.0,0.0,-3.249,0.0,0.0,0.0,0.0,0.0,0.0,0.0,0.0,0.0,0.0,0.0,0.0,0.0,-3.0293,0.0,0.0,-3.082,0.0,0.0,0.0,0.0,0.0,0.0,0.0,0.0,0.0,0.0,0.0,-3.0898,-3.0898,-3.2285,-3.3164,-3.3398,-3.4863,-3.5762,-3.5996,-3.5996,-3.5663,-3.4987,-3.4987,-3.4625,-3.3967,-3.3948,-3.343,-3.2524,-3.2277,-3.1622,-3.0731,-3.05,-3.0404,-3.0481,-3.1365,-3.2449,-3.3641,-3.4737,-3.4891,-3.4641,-3.55,-3.5519,-3.5538,-3.5538,-3.5538,-3.5808,-3.6615,-3.7934,-3.9138,-3.9919,-4.1237,-4.2517,-4.3615,-4.3443,-4.3717,-4.4895,-4.2415,-4.0438,-3.9641,-3.9026,-3.7518,0.0,0.0,-3.6209,-3.517,-3.5388,-3.55,-3.55,-3.55,-3.55,-3.55,-3.55,-3.55,-3.55,-3.55,-3.55,-3.55,-3.55,-3.55,-3.55,-3.55,-3.55,-3.55,0.0,-3.55,-3.55,-3.55,0.0,0.0,-3.5212,-3.3865,0.0,0.0,0.0,0.0,0.0,0.0,0.0,0.0,0.0,0.0,-3.2149,0.0,0.0,0.0,0.0,-3.2015,0.0,0.0,0.0,-3.1094,-3.0898,-3.0605,0.0,0.0,0.0,0.0,0.0,0.0,0.0,0.0,0.0,0.0,0.0,0.0,0.0,-3.1387,0.0,-3.0898,-3.1758,-3.2598,-3.3379,-3.4277,-3.5156,-3.5996,-3.5996,-3.5976,-3.5957,-3.5957,-3.5937,-3.5918,-3.584,-3.5307,-3.4364,-3.3455,-3.2531,-3.1583,-3.075,-3.0404,-3.0481,-3.1365,-3.1737,-3.1987,-3.3622,-3.4757,-3.5462,-3.6061,-3.6026,-3.587,-3.5326,-3.525,-3.5641,-3.6777,-3.8312,-3.981,-4.1146,-4.2227,-4.3441,-4.4896,-4.4754,-4.4829,-4.5489,-4.3946,-4.266,-4.209,-4.1326,0.0,-3.8803,-3.8609,-3.7876,0.0,0.0,0.0,-3.4972,-3.4972,-3.507,-3.525,-3.525,-3.532,-3.55,-3.55,-3.5391,0.0,0.0,0.0,0.0,0.0,-3.5346,-3.55,0.0,-3.55,-3.5423,-3.4853,-3.4814,0.0,-3.4737,-3.4064,-3.3449,-3.4013,-3.2852,-3.1435,-3.2278,-3.2141,0.0,0.0,0.0,-3.3077,-3.3412,0.0,0.0,0.0,0.0,0.0,0.0,0.0,0.0,0.0,0.0,0.0,0.0,0.0,0.0,0.0,0.0,0.0,0.0,0.0,0.0,0.0,0.0,0.0,0.0,-3.0215,0.0,-3.0039,-3.1406,-3.2578,-3.3379,-3.4258,-3.5117,-3.5996,-3.5996,-3.5996,-3.5996,-3.5996,-3.5996,-3.5996,-3.5974,-3.5454,-3.4521,-3.3622,-3.2661,-3.171,-3.0825,-3.0436,-3.0423,-3.0712,-3.1192,-3.1833,-3.2929,-3.3199,-3.3058,-3.6568,-3.6122,-3.5666,-3.5429,-3.5618,-3.6207,-3.7357,-3.9117,-4.0891,-4.2503,-4.3362,-4.4231,-4.5396,-4.5214,-4.5058,0.0,-4.4336,-4.3451,-4.2562,-4.2374,0.0,-4.0128,-3.9695,-3.8696,0.0,0.0,0.0,0.0,0.0,-3.5076,-3.4954,-3.4954,-3.5062,-3.5215,-3.5215,-3.5113,-3.4954,-3.4954,-3.487,0.0,0.0,-3.507,0.0,0.0,-3.5327,-3.5423,0.0,-3.4814,-3.4949,-3.4398,-3.3994,-3.3744,-3.3744,-3.3006,-3.2237,-3.2756,-3.2756,-3.2756,-3.3526,-3.3776,0.0,-3.3815,-3.3606,0.0,-3.3572,0.0,0.0,0.0,0.0,0.0,0.0,0.0,0.0,0.0,0.0,0.0,0.0,-2.9813,0.0,0.0,0.0,0.0,0.0,0.0,0.0,-3.0527,-3.0234,-3.0059,0.0,0.0,-3.2246,-3.3359,-3.3945,-3.4805,-3.5996,-3.5996,-3.5996,-3.5996,-3.5996,-3.5996,-3.5996,-3.5996,-3.566,-3.4991,-3.3802,-3.2915,-3.2202,-3.1026,-3.0516,-3.0472,-3.0446,-3.0777,-3.137,-3.2178,-3.2333,-3.2256,-3.6881,-3.5838,-3.5076,-3.5857,-3.6575,-3.7367,-3.8237,-4.016,-4.2114,-4.3813,-4.4472,-4.4903,-4.5244,-4.5024,-4.4608,-4.407,-4.3751,-4.2892,-4.1315,-4.222,0.0,0.0,-3.9328,-3.8695,-3.6775,0.0,0.0,0.0,0.0,-3.5407,-3.4674,-3.4674,-3.4684,-3.4694,-3.4694,0.0,-3.4674,-3.4674,-3.4674,-3.4674,-3.4674,-3.4684,-3.4694,-3.4694,-3.4988,-3.5402,-3.5409,-3.4916,-3.425,-3.4199,-3.3641,-3.2968,-3.2968,-3.2929,-3.291,-3.2949,-3.3545,-3.4032,-3.3237,-3.4231,-3.5096,-3.3449,0.0,0.0,0.0,0.0,-3.4376,0.0,0.0,0.0,0.0,0.0,0.0,0.0,0.0,0.0,0.0,0.0,0.0,0.0,0.0,0.0,0.0,0.0,-3.1939,-3.205,-3.1309,-3.084,0.0,0.0,-3.168,-3.3359,-3.3398,-3.4238,-3.5976,-3.5996,-3.5996,-3.5996,-3.5996,-3.5996,-3.5996,-3.5996,-3.5972,-3.5807,-3.4116,-3.3327,-3.3122,-3.139,-3.0667,-3.0655,-3.0548,-3.0507,-3.061,-3.1353,-3.216,-3.2968,-3.6033,-3.6383,-3.686,-3.7045,-3.6767,-3.7174,0.0,0.0,0.0,0.0,-4.5148,-4.5846,-4.6543,-4.6544,-4.5956,-4.4645,-4.4448,0.0,0.0,0.0,0.0,-4.1423,-4.0919,-3.9616,-3.7329,-3.6786,-3.5695,-3.4043,0.0,0.0,-3.4334,-3.4334,-3.4456,-3.4694,0.0,-3.4561,-3.4334,-3.4334,-3.4334,-3.4334,-3.4334,-3.4486,-3.4694,0.0,-3.4377,-3.3975,-3.4165,-3.4518,-3.481,-3.4351,-3.4052,-3.3878,-3.3878,-3.341,-3.3026,-3.3686,-3.4013,-3.4302,-3.4718,-3.5154,-3.5385,-3.4942,-3.5,-3.5167,0.0,0.0,0.0,0.0,0.0,0.0,0.0,0.0,0.0,0.0,0.0,0.0,0.0,0.0,0.0,-3.1344,0.0,0.0,0.0,-3.0461,-3.0151,-3.0199,-3.0037,-2.9922,-2.9922,0.0,0.0,-3.3359,-3.3398,-3.4238,-3.5976,-3.5996,-3.5996,-3.5996,-3.5996,-3.5996,-3.5996,-3.5996,-3.5996,-3.5916,-3.4822,-3.4306,-3.4117,-3.236,-3.1612,-3.1504,-3.0837,-3.0571,-3.0593,-3.0692,-3.1269,-3.2045,-3.6409,-3.755,-3.8557,-3.8557,0.0,0.0,-4.0157,-4.102,0.0,-4.4433,-4.5406,0.0,-4.603,-4.6049,-4.5535,-4.4287,-4.4176,0.0,-4.3533,0.0,0.0,-4.2341,-4.1534,-3.9974,-3.7547,-3.707,0.0,-3.3807,0.0,0.0,-3.4018,-3.4018,-3.4129,0.0,0.0,-3.4189,-3.4018,-3.4018,-3.4018,-3.4018,-3.4018,-3.4129,0.0,-3.4314,-3.4008,-3.3605,-3.387,-3.4141,-3.4241,-3.3549,-3.3818,-3.438,-3.4109,-3.394,-3.3973,-3.4595,-3.4776,-3.4852,-3.5227,-3.5417,-3.546,-3.5361,-3.5398,-3.55,-3.55,-3.55,-3.5365,0.0,0.0,0.0,0.0,0.0,0.0,0.0,0.0,0.0,0.0,0.0,0.0,0.0,-3.108,0.0,0.0,-3.0224,-3.0003,-2.9981,-3.0407,-3.0481,0.0,0.0,0.0,-3.3359,-3.3398,-3.4238,-3.5976,-3.5996,-3.5996,-3.5996,-3.5996,-3.5996,-3.5996,-3.5996,-3.5996,-3.5957,-3.5078,-3.4686,-3.4543,-3.3176,-3.2385,-3.1934,-3.1014,-3.0633,-3.0594,-3.052,-3.0786,-3.1284,-3.7529,-3.8961,-4.0065,0.0,0.0,0.0,0.0,-4.2506,0.0,-4.4856,0.0,-4.5626,-4.4947,-4.4746,-4.4378,-4.357,0.0,-4.3515,-4.3515,-4.3387,-4.302,-4.2323,-4.1442,-3.9863,-3.7547,-3.7401,-3.6189,0.0,0.0,0.0,-3.3642,-3.3752,0.0,0.0,0.0,0.0,0.0,-3.3642,-3.3697,-3.3807,-3.3807,-3.3807,-3.3807,-3.3807,-3.3733,-3.3663,-3.3901,-3.3788,-3.3392,-3.2751,-3.3505,-3.4583,-3.3945,-3.4348,-3.5077,-3.5185,-3.5314,-3.5335,-3.5113,-3.5215,-3.5346,-3.5105,-3.5223,-3.541,-3.541,-3.541,-3.541,-3.541,-3.5336,-3.5042,0.0,0.0,0.0,0.0,0.0,0.0,0.0,0.0,0.0,0.0,0.0,0.0,0.0,0.0,-3.0774,-3.0594,-3.1352,0.0,0.0,0.0,0.0,-3.3379,-3.3516,-3.4355,-3.5976,0.0,-3.5996,-3.5995,-3.5996,-3.5996,-3.5996,-3.5996,-3.5996,-3.5957,-3.5195,-3.4863,-3.4785,-3.3809,-3.2851,-3.1933,-3.1063,-3.0698,-3.0633,-3.0623,-3.0575,-3.0722,-3.8469,-3.979,0.0,0.0,0.0,-4.2927,-4.3057,-4.2763,-4.3516,-4.6305,-4.6232,-4.5847,-4.5718,-4.5112,-4.4378,-4.357,-4.3515,0.0,0.0,0.0,0.0,-4.2304,-4.0891,-3.9276,-3.7529,-3.685,-3.5624,0.0,0.0,0.0,-3.2821,0.0,0.0,0.0,0.0,0.0,-3.2803,-3.2803,0.0,-3.3807,-3.3807,-3.3807,-3.3807,-3.3807,-3.3385,-3.2816,-3.2862,-3.3395,-3.4072,-3.4227,-3.4468,-3.4562,-3.3723,-3.4064,-3.4632,-3.3961,-3.4283,-3.4822,-3.4774,-3.4793,-3.4841,-3.4774,-3.4812,-3.4851,-3.4851,-3.4851,-3.4851,-3.4851,-3.4437,-3.4055,-3.3902,0.0,0.0,0.0,0.0,0.0,0.0,0.0,0.0,0.0,0.0,-3.1699,0.0,0.0,0.0,0.0,0.0,0.0,0.0,0.0,0.0,0.0,-3.4101,0.0,0.0,0.0,-3.5974,-3.5914,-3.5974,-3.5996,-3.5996,-3.5996,-3.5996,-3.5996,-3.584,-3.5762,-3.5644,-3.4062,-3.25,-3.1113,-3.0937,-3.0857,-3.0834,-3.0716,-3.0679,-3.0702,-4.0396,0.0,0.0,0.0,0.0,0.0,0.0,-4.3167,-4.3479,-4.5039,-4.4892,-4.4654,-4.4654,-4.4305,-4.392,-4.3533,-4.3515,-4.3331,-4.2892,-4.2525,-4.1937,-4.1093,-3.99,-3.8524,-3.6923,-3.6064,-3.5037,-3.3807,0.0,0.0,-3.2601,0.0,0.0,-3.2008,0.0,-3.2821,0.0,0.0,0.0,-3.3807,-3.3807,-3.3807,-3.3807,-3.3807,-3.3568,-3.322,-3.322,-3.3545,-3.395,-3.3701,-3.389,-3.4193,-3.39,-3.4105,-3.4381,-3.4143,-3.4363,-3.4663,-3.4497,-3.4561,-3.4663,-3.4478,-3.4572,-3.4694,-3.4694,-3.4694,-3.4694,-3.4694,-3.4472,-3.4272,-3.4272,-3.4132,0.0,0.0,0.0,0.0,0.0,0.0,0.0,0.0,0.0,0.0,0.0,0.0,0.0,0.0,0.0,0.0,0.0,0.0,0.0,0.0,0.0,0.0,0.0,0.0,0.0,-3.5799,-3.5832,-3.5843,-3.5843,-3.5922,-3.5948,-3.5948,-3.5976,-3.5996,-3.5859,-3.4121,-3.2676,-3.1523,-3.1074,-3.0898,-3.0898,-3.0836,-3.0794,-3.0848,-4.2047,-4.1937,0.0,0.0,-4.2433,-4.2763,-4.3387,-4.3515,-4.3608,-4.3974,-4.3717,-4.357,-4.3736,-4.3606,-4.3515,-4.3515,-4.3332,-4.2983,-4.2341,-4.1974,-4.1222,-3.9955,-3.8964,-3.7771,-3.6321,-3.5445,-3.4619,0.0,0.0,0.0,0.0,0.0,0.0,0.0,0.0,0.0,0.0,0.0,-3.3642,-3.3807,-3.3807,-3.3807,-3.3807,-3.3807,-3.3807,-3.3807,-3.3807,-3.3807,-3.3697,-3.306,-3.3293,-3.3842,-3.4056,-3.4111,-3.4159,-3.4431,-3.4516,-3.4442,-3.4183,-3.4318,-3.4461,-3.4183,-3.43,-3.4516,-3.4516,-3.4516,-3.4516,-3.4516,-3.454,-3.4622,-3.4684,-3.486,0.0,0.0,0.0,0.0,0.0,0.0,0.0,0.0,0.0,0.0,-3.05,0.0,0.0,0.0,0.0,0.0,-3.0614,0.0,0.0,0.0,0.0,-3.4351,-3.5675,0.0,-3.5696,-3.5675,-3.5696,-3.5707,-3.5707,-3.5807,-3.5867,-3.5869,-3.5903,-3.5855,-3.5584,-3.4022,-3.2909,-3.2109,-3.123,-3.0898,-3.0898,-3.0898,-3.0898,-3.0976,0.0,0.0,0.0,0.0,0.0,-4.3423,-4.3496,-4.3515,-4.4011,-4.548,-4.4397,-4.3773,-4.4525,-4.3938,-4.3515,-4.3515,-4.2818,-4.2378,-4.2304,-4.0928,-4.0047,-3.9916,-3.8429,-3.7199,-3.6321,-3.5445,-3.4619,0.0,0.0,-3.3018,0.0,0.0,0.0,0.0,0.0,0.0,0.0,-3.2711,-3.3115,-3.3807,-3.3807,-3.3807,-3.3807,-3.3807,-3.3807,-3.3807,-3.3807,-3.3807,-3.3788,-3.3715,-3.3733,-3.3802,-3.3829,-3.3842,-3.3842,-3.3881,-3.3881,-3.3881,-3.3855,-3.3868,-3.3881,-3.3842,-3.3868,-3.3881,-3.3881,-3.3881,-3.3881,-3.3881,-3.408,-3.4345,-3.4643,-3.4714,-3.4715,0.0,0.0,0.0,0.0,0.0,-3.3004,-3.1405,0.0,0.0,0.0,-3.1192,0.0,0.0,-3.0473,0.0,0.0,0.0,0.0,-3.3203,0.0,-3.5508,-3.5611,-3.5679,-3.5679,-3.5611,-3.5663,-3.5707,-3.5707,-3.5713,-3.5717,-3.5717,-3.5726,-3.5356,-3.4658,-3.37,-3.2879,-3.2109,-3.123,-3.0898,-3.0898,-3.0898,-3.0898,-3.0918,0.0,0.0,0.0,0.0,0.0,0.0,0.0,-4.2696,-4.2699,-4.3348,-4.3051,-4.3094,-4.3883,-4.2538,-4.1759,-4.2268,-4.1306,-4.0472,-3.9985,-3.9355,-3.8564,-3.7592,-3.6476,-3.5522,-3.4749,-3.3908,-3.3491,0.0,0.0,0.0,0.0,0.0,0.0,0.0,0.0,-3.208,-3.2559,-3.2846,-3.3146,-3.3465,-3.3707,-3.3807,-3.3807,-3.3807,-3.3807,-3.3807,-3.3807,-3.3807,-3.3807,-3.3807,-3.3807,-3.3807,-3.3807,-3.3807,-3.3807,-3.3807,-3.3807,-3.3807,-3.3807,-3.3807,-3.3807,-3.3807,-3.3807,-3.3807,-3.3807,-3.3807,-3.3807,-3.3807,-3.3889,-3.3999,-3.4136,-3.4295,-3.4401,0.0,0.0,0.0,0.0,0.0,0.0,-3.1254,0.0,-3.1287,0.0,0.0,0.0,0.0,0.0,0.0,0.0,0.0,0.0,-3.3055,0.0,-3.5038,-3.5547,-3.5574,-3.5574,-3.5547,-3.5574,-3.5582,-3.5588,-3.5611,-3.5667,-3.5707,-3.5707,-3.5253,-3.452,-3.4166,-3.3247,-3.2056,-3.1704,-3.1284,-3.0898,-3.0898,-3.0898,-3.0898,-4.2996,0.0,-4.2323,0.0,-4.2189,-4.1721,-4.2332,-4.2062,-4.181,-4.181,-4.1622,-4.1778,-4.2596,-4.1124,-4.0307,-4.0883,-3.9895,-3.8915,-3.8133,-3.7831,-3.7086,-3.574,-3.4907,0.0,-3.3702,-3.2907,-3.2665,-3.2999,-3.2665,0.0,0.0,0.0,0.0,0.0,-3.1797,-3.1971,-3.2517,-3.284,-3.2999,-3.3014,-3.3299,-3.3419,-3.3419,-3.3419,-3.3419,-3.3433,-3.3578,-3.362,-3.3634,-3.3762,-3.3807,-3.3807,-3.3807,-3.3807,-3.3807,-3.3807,-3.3807,-3.3807,-3.3807,-3.3807,-3.3807,-3.3807,-3.3807,-3.3807,-3.3807,-3.3807,-3.3807,-3.3807,-3.3807,-3.3807,-3.3807,-3.3948,-3.4074,-3.4074,0.0,0.0,0.0,0.0,0.0,0.0,-3.1591,-3.1372,-3.0682,-3.0394,0.0,0.0,0.0,0.0,0.0,0.0,0.0,0.0,0.0,0.0,-3.5481,-3.55,-3.55,-3.55,-3.55,-3.55,-3.5507,-3.5552,-3.56,-3.5629,-3.5629,-3.5336,-3.4797,-3.4544,-3.3777,-3.271,-3.2454,-3.1884,-3.1246,-3.15,-3.1464,-3.1328,-4.1832,-4.1814,-4.1814,-4.1814,-4.1814,-4.1793,-4.181,-4.1793,-4.181,-4.181,-4.0486,-3.9851,-4.0648,-4.005,-3.9611,-3.9609,-3.8878,-3.8098,-3.7374,-3.6502,-3.5705,0.0,0.0,-3.3719,-3.3701,-3.2907,-3.2501,-3.2517,0.0,0.0,-3.1317,0.0,-3.1724,-3.2483,-3.2483,-3.2501,-3.2501,-3.2501,-3.2517,-3.2517,-3.2517,-3.2517,-3.2517,-3.2517,-3.2517,-3.2583,-3.3045,-3.3214,-3.3273,-3.3666,-3.3807,-3.3807,-3.3807,-3.3807,-3.3807,-3.3807,-3.3807,-3.3807,-3.3807,-3.3807,-3.3807,-3.3807,-3.3807,-3.3807,-3.3807,-3.3807,-3.3807,-3.3807,-3.3807,-3.3807,-3.3807,-3.3788,-3.3802,-3.3802,0.0,0.0,0.0,0.0,0.0,-3.3073,-3.3208,-3.3033,-3.2156,-3.1356,0.0,0.0,0.0,0.0,0.0,0.0,0.0,-3.2891,-3.4577,0.0,-3.55,-3.55,-3.55,-3.55,-3.55,-3.55,-3.55,-3.55,-3.5507,-3.5507,-3.5507,-3.5527,-3.5514,-3.4666,-3.4369,-3.4374,-3.3511,-3.2681,-3.209,-3.295,-3.282,-3.2305,-4.181,-4.181,-4.181,-4.181,-4.1468,-4.1201,-4.1201,-4.0868,-4.047,-3.9954,-3.9473,-3.8872,-3.8121,-3.7658,-3.7647,0.0,-3.6707,-3.5648,0.0,-3.4665,-3.3891,-3.3173,-3.2896,-3.2515,-3.1999,-3.174,-3.175,-3.2022,0.0,0.0,0.0,-3.1638,-3.1777,-3.2004,-3.1732,-3.1601,-3.162,-3.1914,-3.2022,-3.2039,-3.2384,-3.2501,-3.2501,-3.2501,-3.2501,-3.2517,-3.2665,-3.2713,-3.2745,-3.2872,-3.2919,-3.2919,-3.2919,-3.3314,-3.3807,-3.3807,-3.3807,-3.3807,-3.3807,-3.3807,-3.3807,-3.3807,-3.3807,-3.3807,-3.3807,-3.3807,-3.3807,-3.3807,-3.3807,-3.3807,-3.3807,-3.3807,-3.3807,-3.3807,-3.3807,0.0,0.0,0.0,0.0,-3.2828,-3.2804,-3.2595,-3.1958,-3.1661,0.0,0.0,0.0,0.0,0.0,0.0,0.0,0.0,-3.4911,0.0,-3.55,-3.55,-3.55,-3.55,-3.55,-3.55,-3.55,-3.55,-3.55,-3.55,-3.55,-3.5515,-3.5509,-3.5232,-3.4814,-3.4337,-3.4061,-3.3483,-3.2845,-3.314,-3.3075,-3.2927,-4.115,-4.115,-4.115,-4.115,-4.0844,-4.0601,-4.0601,-4.0311,-3.9842,-3.9089,-3.8751,-3.8125,-3.6931,-3.6398,0.0,-3.6423,-3.5253,-3.4252,-3.3715,-3.3237,-3.2645,-3.1921,-3.1887,-3.1684,-3.1207,-3.119,0.0,-3.1565,-3.1312,-3.1332,-3.1565,-3.1565,-3.1565,-3.1565,-3.131,-3.119,-3.121,-3.147,-3.1565,-3.1603,-3.1896,-3.2003,-3.2003,-3.2003,-3.2003,-3.2039,-3.2179,-3.2248,-3.2247,-3.2451,-3.2501,-3.2501,-3.2501,-3.2872,-3.3343,-3.3522,-3.368,-3.3807,-3.3807,-3.3807,-3.3807,-3.3807,-3.3694,-3.3564,-3.3564,-3.3694,-3.3807,-3.3807,-3.3807,-3.3807,-3.3807,-3.3807,-3.3807,-3.3807,-3.3807,-3.3807,-3.3807,0.0,0.0,0.0,0.0,0.0,0.0,-3.2272,-3.2478,0.0,0.0,0.0,0.0,0.0,0.0,-3.4205,-3.5045,0.0,-3.55,-3.55,-3.55,-3.55,-3.55,-3.55,-3.55,-3.55,-3.55,-3.55,-3.55,-3.55,-3.55,-3.55,-3.5194,-3.4753,-3.4753,-3.4279,-3.3646,-3.398,-3.3926,-3.3732,-4.0096,-4.0096,-4.0096,0.0,-4.0096,0.0,-4.0096,-4.0096,-3.9825,-3.9022,-3.8379,-3.7652,-3.6812,-3.6096,-3.5329,-3.4489,0.0,0.0,0.0,-3.2242,-3.1921,-3.1224,-3.119,-3.119,-3.119,-3.119,-3.119,-3.119,-3.119,-3.119,-3.119,-3.119,-3.119,-3.119,-3.119,-3.119,-3.119,-3.119,-3.119,-3.119,-3.119,-3.119,-3.119,-3.119,-3.119,-3.1249,-3.1623,-3.1752,-3.1825,-3.2265,-3.2417,-3.2417,-3.2417,-3.2434,-3.255,-3.3014,-3.3422,-3.3707,-3.3707,-3.3707,-3.3707,-3.3707,-3.3419,-3.3136,-3.3136,-3.3433,-3.3707,-3.3707,-3.3734,-3.3748,-3.3748,-3.3748,-3.378,-3.3807,-3.3793,-3.3762,-3.3807,0.0,0.0,0.0,0.0,0.0,0.0,-3.3128,-3.2784,0.0,0.0,0.0,0.0,0.0,-3.4223,-3.4223,-3.5023,-3.5446,-3.546,-3.546,-3.5486,-3.55,-3.55,-3.55,-3.55,-3.55,-3.55,-3.55,-3.55,-3.55,-3.55,-3.55,-3.55,-3.55,-3.55,-3.5046,-3.4471,-3.53,-3.5165,-3.4667,0.0,0.0,-4.0096,-4.0096,-4.0096,-4.0096,-4.0096,-4.0096,-3.9639,-3.8328,-3.8497,-3.8007,-3.6096,-3.6265,-3.574,-3.3829,-3.366,-3.3271,-3.2361,-3.1769,-3.1376,-3.1207,-3.119,-3.119,-3.119,-3.119,-3.119,-3.119,-3.119,-3.119,-3.119,-3.119,-3.119,-3.119,-3.119,-3.119,-3.119,-3.119,-3.119,-3.119,-3.119,-3.119,-3.119,-3.119,-3.119,-3.121,-3.131,-3.1332,-3.1351,-3.1468,-3.1506,-3.1506,-3.1506,-3.1714,-3.2057,-3.2534,-3.2729,-3.2809,-3.2809,-3.2809,-3.2809,-3.2809,-3.2745,-3.2665,-3.2665,-3.2745,-3.2809,-3.2809,-3.309,-3.3332,-3.3332,-3.3332,-3.3433,-3.3748,-3.3536,-3.3451,-3.3748,-3.3807,0.0,0.0,-3.3807,-3.3807,-3.3807,-3.3623,-3.3639,0.0,0.0,0.0,0.0,-3.45,-3.4576,-3.4576,-3.4784,-3.4981,-3.5198,-3.5198,-3.5297,-3.55,-3.55,-3.55,-3.55,-3.55,-3.55,-3.55,-3.55,-3.55,-3.55,-3.55,-3.55,-3.55,-3.55,-3.5386,-3.5245,-3.5445,-3.5412,-3.5191,-4.0096,-4.0096,-4.0096,-4.0096,-4.0096,-4.0096,-4.0096,-3.9808,-3.9174,-3.8058,-3.7956,-3.7381,-3.5769,-3.5994,-3.5622,-3.4032,-3.3592,-3.2933,-3.187,-3.141,-3.119,-3.119,-3.119,-3.119,-3.119,-3.119,-3.119,-3.119,-3.119,-3.119,-3.119,-3.119,-3.119,-3.119,-3.119,-3.119,-3.119,-3.119,-3.119,-3.119,-3.119,-3.119,-3.119,-3.119,-3.119,-3.119,-3.119,-3.119,-3.119,-3.119,-3.119,-3.119,-3.119,-3.1351,-3.1582,-3.1841,-3.2196,-3.2501,-3.2501,-3.2501,-3.2451,-3.223,-3.235,-3.2451,-3.223,-3.235,-3.2501,-3.2501,-3.2697,-3.289,-3.289,-3.289,-3.295,-3.3181,-3.3196,-3.3273,-3.3494,-3.3694,0.0,-3.355,-3.3694,-3.3721,-3.3536,-3.3694,-3.385,-3.4012,-3.4006,0.0,-3.4291,-3.4291,-3.4428,-3.4684,-3.4694,-3.4764,-3.4917,-3.4917,-3.499,-3.513,-3.513,-3.513,-3.513,-3.513,-3.513,-3.5138,-3.5254,-3.5312,-3.5339,-3.5446,-3.55,-3.55,-3.55,-3.55,-3.55,-3.55,-3.525,-3.4847,-4.0096,-4.0096,-4.0096,-4.0096,-4.0096,-4.0096,-4.0096,-3.9462,-3.8734,-3.8007,-3.7246,-3.6485,-3.5684,-3.56,-3.5295,-3.4556,-3.3829,-3.2831,-3.1464,-3.1258,-3.119,-3.119,-3.119,-3.119,-3.119,-3.119,-3.119,-3.119,-3.119,-3.119,-3.119,-3.119,-3.119,-3.119,-3.119,-3.119,-3.119,-3.119,-3.119,-3.119,-3.119,-3.119,-3.119,-3.119,-3.119,-3.119,-3.119,-3.119,-3.119,-3.119,-3.119,-3.119,-3.119,-3.119,-3.119,-3.119,-3.1714,-3.2299,-3.2299,-3.2299,-3.2213,-3.1807,-3.2004,-3.2196,-3.1789,-3.2021,-3.2299,-3.2299,-3.235,-3.2401,-3.2401,-3.2401,-3.2417,-3.2484,-3.2777,-3.3014,-3.3075,0.0,-3.3476,-3.3121,-3.339,-3.3508,-3.3229,-3.3508,-3.3734,-3.3807,-3.3807,-3.3807,-3.3807,-3.3807,-3.4024,-3.4548,-3.4569,-3.4591,-3.4614,-3.4674,-3.4694,-3.4694,-3.4694,-3.4694,-3.4694,-3.4694,-3.4694,-3.4704,-3.4944,-3.5053,-3.5062,-3.5289,-3.5391,-3.5439,-3.5439,-3.5453,-3.55,-3.55,-3.4949,-3.4186,-4.0096,-4.0096,-4.0096,-4.0096,-4.0096,-4.0096,-4.0096,-3.9462,-3.8734,-3.8007,-3.7246,-3.6485,-3.5684,-3.56,-3.5295,-3.4556,-3.3829,-3.3034,-3.2192,-3.1565,-3.119,-3.119,-3.119,-3.119,-3.119,-3.119,-3.119,-3.119,-3.119,-3.119,-3.119,-3.119,-3.119,-3.119,-3.119,-3.119,-3.119,-3.119,-3.119,-3.119,-3.119,-3.119,-3.119,-3.119,-3.119,-3.119,-3.119,-3.119,-3.119,-3.119,-3.119,-3.119,-3.119,-3.119,-3.119,-3.119,-3.1291,-3.1389,-3.1389,-3.1389,-3.137,-3.131,-3.1349,-3.137,-3.131,-3.1349,-3.1389,-3.1389,-3.1677,-3.1915,-3.1985,-3.195,-3.2039,-3.2434,-3.223,-3.2161,-3.255,0.0,-3.2681,-3.2616,-3.2665,-3.2825,-3.3169,-3.3258,-3.3419,-3.3762,-3.3807,-3.3807,-3.3807,-3.3807,-3.3842,-3.3928,-3.3941,-3.4049,-3.4288,-3.4561,-3.4694,-3.4694,-3.4694,-3.4694,-3.4694,-3.4694,-3.4694,-3.4694,-3.4734,-3.4754,-3.4773,-3.4822,-3.4954,-3.5155,-3.5155,-3.5297,-3.55,-3.55,-3.4949,-3.409,-4.0096,-4.0096,-4.0096,-4.0096,-4.0096,-4.0096,-4.0096,-3.9123,-3.8294,-3.7939,-3.6891,-3.6011,-3.5633,-3.56,-3.5295,-3.4556,-3.3829,-3.3085,-3.2344,-3.1616,-3.119,-3.119,-3.119,-3.119,-3.119,-3.119,-3.119,-3.119,-3.119,-3.119,-3.119,-3.119,-3.119,-3.119,-3.119,-3.119,-3.119,-3.119,-3.119,-3.119,-3.119,-3.119,-3.119,-3.119,-3.119,-3.119,-3.119,-3.119,-3.119,-3.119,-3.119,-3.119,-3.119,-3.119,-3.119,-3.119,-3.119,-3.119,-3.119,-3.119,-3.119,-3.119,-3.119,-3.119,-3.119,-3.119,-3.119,-3.119,-3.1351,-3.1487,-3.1523,-3.1487,-3.1545,-3.175,-3.1806,0.0,0.0,-3.235,-3.2417,-3.2144,-3.235,-3.2484,-3.245,-3.2663,-3.2887,-3.3087,-3.3328,-3.348,-3.348,-3.3694,-3.3807,-3.3807,-3.3807,-3.3868,-3.3986,-3.4148,-3.422,-3.422,-3.422,-3.422,-3.422,-3.422,-3.422,-3.4232,-3.4375,-3.4423,-3.4434,-3.4632,-3.4764,-3.487,-3.487,-3.4963,-3.5022,-3.4543,-3.3838,-3.3007,-4.0079,-4.0096,-4.0096,-4.0096,-4.0096,-4.0096,-4.0096,-3.8988,-3.8091,-3.7922,-3.6721,-3.5825,-3.5616,-3.56,-3.5295,-3.4556,-3.3829,-3.3085,-3.2344,-3.1616,-3.119,-3.119,-3.119,-3.119,-3.119,-3.119,-3.119,-3.119,-3.119,-3.119,-3.119,-3.119,-3.119,-3.119,-3.119,-3.119,-3.119,-3.119,-3.119,-3.119,-3.119,-3.119,-3.119,-3.119,-3.119,-3.119,-3.119,-3.119,-3.119,-3.119,-3.119,-3.119,-3.119,-3.119,-3.119,-3.119,-3.119,-3.119,-3.119,-3.119,-3.119,-3.119,-3.119,-3.1241,-3.141,-3.1464,-3.1464,-3.1464,-3.1579,-3.1613,-3.1258,-3.1326,-3.1393,-3.1224,0.0,0.0,0.0,-3.2229,-3.2318,-3.1955,-3.2229,-3.2284,-3.1842,-3.2144,-3.2366,-3.2484,-3.2825,-3.3029,-3.3029,-3.3332,-3.355,-3.3666,-3.3748,-3.3807,-3.3807,-3.3807,-3.3807,-3.3807,-3.3807,-3.3807,-3.3807,-3.3807,-3.3807,-3.3802,-3.4018,-3.4099,-3.4123,-3.4386,-3.4537,-3.4582,-3.4582,-3.4632,-3.4581,-3.3723,-3.2893,-3.2109,-3.9977,-4.0096,-4.0096,-4.0096,-4.0096,-4.0096,-4.0096,-3.9436,-3.8667,-3.799,-3.7212,-3.6417,-3.5667,-3.56,-3.5295,-3.4556,-3.3829,-3.3085,-3.2344,-3.1616,-3.119,-3.119,-3.119,-3.119,-3.119,-3.119,-3.119,-3.119,-3.119,-3.119,-3.119,-3.119,-3.119,-3.119,-3.119,-3.119,-3.119,-3.119,-3.119,-3.119,-3.119,-3.119,-3.119,-3.119,-3.119,-3.119,-3.119,-3.119,-3.119,-3.119,-3.119,-3.119,-3.119,-3.119,-3.119,-3.119,-3.119,-3.119,-3.119,-3.119,-3.119,-3.119,-3.119,-3.1376,-3.2056,-3.2226,-3.2226,-3.2226,-3.2747,-3.2831,-3.1444,-3.1769,-3.2005,-3.1309,0.0,0.0,-3.2167,-3.2289,-3.2309,-3.2269,-3.2289,-3.2181,-3.184,-3.1843,-3.2022,-3.2467,-3.2534,-3.255,-3.255,-3.2583,-3.2793,-3.3229,-3.3606,-3.3807,-3.3807,-3.3807,-3.3807,-3.3807,-3.3807,-3.3807,-3.3807,-3.3807,-3.3807,-3.3807,-3.3815,-3.3829,-3.3829,-3.3855,-3.4012,-3.4253,-3.4253,-3.4423,-3.4581,-3.3723,-3.2893,-3.2081,-3.9259,-3.9436,-3.9571,-4.0028,-4.0096,-3.996,-3.9503,-3.8785,-3.8058,-3.7297,-3.6535,-3.5774,-3.4996,-3.4928,-3.4438,-3.3241,-3.2886,-3.2412,-3.1684,-3.1362,-3.119,-3.119,-3.119,-3.119,-3.119,-3.119,-3.1015,-3.0638,-3.0638,-3.0456,-3.0064,-3.0064,-3.0064,-3.0102,-3.0477,-3.0638,-3.0679,-3.1035,-3.119,-3.119,-3.119,-3.119,-3.119,-3.119,-3.119,-3.119,-3.119,-3.119,-3.119,-3.119,-3.119,-3.119,-3.119,-3.119,-3.119,-3.119,-3.119,-3.119,-3.119,-3.119,-3.119,-3.119,-3.119,-3.1376,-3.2141,-3.2293,-3.2429,-3.2882,-3.322,-3.3237,-3.2679,-3.2429,-3.2361,-3.2544,0.0,-3.2141,-3.2882,-3.2983,-3.2797,-3.2344,-3.2293,-3.2086,-3.1479,-3.143,-3.1506,-3.1675,-3.1915,-3.2074,-3.2074,-3.235,-3.2583,-3.2761,-3.2919,-3.3255,-3.3788,-3.3807,-3.3807,-3.3807,-3.3807,-3.3807,-3.3807,-3.3807,-3.3807,-3.3807,-3.3807,-3.3807,-3.3807,-3.3807,-3.385,-3.3948,-3.3948,-3.4024,-3.4036,-3.3201,-3.2706,-3.2284,-3.8514,-3.8836,-3.9157,-3.9673,-3.996,-3.9859,-3.9106,-3.8565,-3.7889,-3.6931,-3.6315,-3.569,-3.4928,-3.4641,-3.3998,-3.275,-3.2429,-3.1989,-3.1241,-3.1015,-3.0918,-3.0918,-3.1112,-3.1112,-3.0918,-3.1095,-3.0898,-3.0293,-3.0293,-2.9995,-2.9406,-2.9406,-2.9406,-2.9429,-2.9827,-3.0016,-3.0043,-3.0456,-3.0638,-3.0638,-3.0638,-3.0638,-3.0638,-3.0638,-3.0638,-3.0658,-3.0858,-3.0797,-3.0699,-3.1075,-3.0938,-3.0679,-3.0858,-3.0797,-3.0679,-3.0858,-3.0781,-3.0679,-3.0858,-3.0927,-3.1033,-3.1449,-3.1565,-3.1802,-3.2767,-3.2987,-3.3139,-3.3643,-3.3931,-3.3964,-3.3491,-3.3169,-3.3089,-3.3372,-3.2983,-3.2899,-3.3643,-3.3744,-3.3474,-3.2733,-3.2852,-3.253,-3.1309,-3.1613,-3.1782,-3.1546,-3.181,-3.1862,-3.1621,-3.2039,-3.2282,-3.2282,-3.2434,-3.2793,-3.339,-3.3386,-3.3386,-3.3386,-3.355,-3.3606,-3.3625,-3.3734,-3.3807,-3.3807,-3.3807,-3.3807,-3.3807,-3.3807,-3.3807,-3.3807,-3.3807,-3.3807,-3.3697,-3.2894,-3.2601,-3.2438,-3.7729,-3.8456,-3.8971,-3.8988,-3.958,-3.9817,-3.9089,-3.8971,-3.8447,-3.6958,-3.6772,-3.6468,-3.5667,-3.4906,-3.4184,-3.3436,-3.2713,-3.1968,-3.1241,-3.0638,-3.0293,-3.0293,-3.0858,-3.0915,-3.0293,-3.0878,-3.0878,-3.0293,-3.0293,-2.9995,-2.9384,-2.9384,-2.9384,-2.9384,-2.9384,-2.9384,-2.9384,-2.9406,-2.9406,-2.9406,-2.9406,-2.9406,-2.9406,-2.9406,-2.9406,-2.9473,-3.0081,-2.9908,-2.9585,-3.0781,-3.0393,-2.9496,-3.0086,-2.987,-2.9518,-3.0123,-2.987,-2.954,-3.0123,-3.0362,-3.07,-3.1989,-3.231,-3.2699,-3.415,-3.4489,-3.4489,-3.4506,-3.5098,-3.5143,-3.3694,-3.4015,-3.4252,-3.3541,-3.3423,-3.3677,-3.4387,-3.4489,-3.4218,-3.3491,-3.4049,-3.3626,-3.141,-3.2544,-3.3085,-3.2361,-3.2293,-3.1972,-3.1241,-3.1584,-3.1807,-3.1807,-3.2248,-3.2484,-3.2484,-3.2501,-3.2501,-3.2501,-3.2968,-3.3199,-3.3214,-3.3606,-3.3775,-3.3775,-3.3775,-3.3775,-3.3775,-3.3775,-3.3775,-3.3807,-3.3807,-3.3807,-3.3697,-3.2894,-3.2601,-3.2491,-3.5524,-3.5834,-3.629,-3.7285,-3.7247,-3.7144,-3.7376,-3.6591,-3.5791,-3.5335,-3.4865,-3.4267,-3.3502,-3.2802,-3.2108,-3.1362,-3.0668,-3.0163,-2.9951,-2.9761,-2.9473,-2.9058,-2.9607,-2.9848,-2.9673,-2.9848,-2.9651,-2.9042,-2.9042,-2.8732,-2.8149,-2.8149,-2.8149,-2.8149,-2.8567,-2.8756,-2.8803,-2.9225,-2.9406,-2.9406,-2.9406,-2.9406,-2.9406,-2.9406,-2.9406,-2.9429,-2.9607,-2.9563,-2.9451,-2.9805,-2.9695,-2.9429,-2.9607,-2.954,-2.9429,-2.9607,-2.954,-2.9541,-3.018,-3.0378,-3.0608,-3.145,-3.2021,-3.2735,-3.4182,-3.4489,-3.4641,-3.5182,-3.5447,-3.5464,-3.5008,-3.4709,-3.459,-3.489,-3.4523,-3.4438,-3.5182,-3.4827,-3.4218,-3.3491,-3.3592,-3.3271,-3.209,-3.2831,-3.3085,-3.2361,-3.1819,-3.1667,-3.1955,-3.1601,-3.1389,-3.1389,-3.1506,-3.16,-3.16,-3.2179,-3.2501,-3.2501,-3.2632,-3.2713,-3.2713,-3.284,-3.2887,-3.2887,-3.2887,-3.2887,-3.2887,-3.2887,-3.309,-3.3375,-3.3375,-3.355,-3.377,-3.3532,-3.344,-3.3256,-3.4184,-3.4514,-3.4979,-3.5812,-3.5883,-3.5825,-3.5909,-3.5217,-3.4581,-3.4259,-3.3862,-3.3438,-3.2981,-3.2078,-3.1334,-3.0871,-2.9966,-2.9293,-2.9042,-2.9042,-2.8779,-2.8165,-2.8496,-2.8787,-2.9042,-2.9271,-2.9088,-2.8487,-2.8487,-2.8189,-2.76,-2.76,-2.76,-2.7625,-2.7968,-2.814,-2.8165,-2.8543,-2.8693,-2.8693,-2.8693,-2.8693,-2.8693,-2.8693,-2.8693,-2.8717,-2.895,-2.888,-2.8764,-2.9248,-2.9248,-2.8996,-2.8764,-2.8693,-2.8717,-2.8973,-2.8857,-2.8897,-2.9801,-3.0049,-3.0306,-3.1262,-3.1972,-3.2751,-3.3879,-3.4362,-3.4655,-3.5107,-3.5424,-3.5515,-3.5253,-3.5077,-3.4975,-3.5186,-3.506,-3.5098,-3.5532,-3.5211,-3.4658,-3.3931,-3.41,-3.388,-3.2831,-3.3677,-3.3846,-3.2797,-3.2324,-3.2138,-3.2293,-3.1616,-3.1326,-3.1633,-3.1343,-3.119,-3.119,-3.1714,-3.1986,-3.1986,-3.2144,-3.2213,-3.223,-3.2417,-3.2501,-3.2501,-3.2501,-3.2501,-3.2501,-3.2501,-3.2665,-3.2916,-3.2781,-3.2773,-3.2871,-3.3035,-3.2993,-3.2726,-3.3401,-3.3953,-3.4415,-3.4478,-3.501,-3.524,-3.4681,-3.45,-3.4202,-3.3601,-3.3453,-3.3401,-3.3401,-3.2192,-3.1421,-3.1421,-3.0139,-2.9075,-2.8479,-2.8415,-2.8174,-2.7625,-2.76,-2.786,-2.8415,-2.895,-2.8973,-2.8415,-2.8415,-2.814,-2.76,-2.76,-2.76,-2.76,-2.76,-2.76,-2.76,-2.76,-2.76,-2.76,-2.76,-2.76,-2.76,-2.76,-2.76,-2.766,-2.8238,-2.8067,-2.776,-2.8857,-2.8857,-2.8319,-2.776,-2.76,-2.771,-2.8262,-2.8018,-2.7876,-2.9152,-2.9544,-2.9934,-3.1263,-3.2008,-3.2628,-3.3428,-3.4087,-3.4503,-3.4503,-3.5005,-3.523,-3.4616,-3.5005,-3.5207,-3.4616,-3.5028,-3.5424,-3.5424,-3.5357,-3.5071,-3.4403,-3.4987,-3.4869,-3.3455,-3.4532,-3.4785,-3.3506,-3.3347,-3.3052,-3.2431,-3.1762,-3.1684,-3.2276,-3.165,-3.1258,-3.119,-3.119,-3.119,-3.121,-3.1565,-3.1734,-3.1752,-3.2196,-3.2384,-3.2384,-3.2384,-3.2384,-3.2384,-3.2384,-3.2401,-3.2413,-3.2102,-3.1786,-3.1533,-3.1853,-3.1709,-3.1426,-3.1979,-3.2085,-3.2359,-3.2875,-3.2676,-3.2739,-3.3625,-3.2849,-3.2341,-3.2749,-3.2312,-3.1979,-3.1979,-3.122,-3.0718,-3.0718,-2.9533,-2.8511,-2.784,-2.781,-2.7735,-2.7625,-2.76,-2.766,-2.7785,-2.7919,-2.7919,-2.781,-2.781,-2.7735,-2.76,-2.76,-2.76,-2.76,-2.76,-2.76,-2.76,-2.76,-2.76,-2.76,-2.76,-2.76,-2.76,-2.76,-2.76,-2.7625,-2.776,-2.771,-2.7635,-2.7894,-2.7894,-2.776,-2.765,-2.76,-2.7625,-2.776,-2.771,-2.788,-2.9211,-2.9594,-2.9918,-3.1214,-3.1626,-3.206,-3.3318,-3.371,-3.3811,-3.3811,-3.3937,-3.3987,-3.3836,-3.3937,-3.4003,-3.3836,-3.3937,-3.4037,-3.4037,-3.3534,-3.3105,-3.2943,-3.3552,-3.3613,-3.2781,-3.2975,-3.3275,-3.3542,-3.2978,-3.2806,-3.3226,-3.3033,-3.273,-3.231,-3.2141,-3.1785,-3.1207,-3.119,-3.119,-3.119,-3.1291,-3.1332,-3.1332,-3.1447,-3.1468,-3.1468,-3.1468,-3.1468,-3.1468,-3.1468,-3.1658,-3.1933,-3.1882,-3.2018,-3.2197,-3.1706,-3.1475,-3.1235,-3.1511,-3.1511,-3.1615,-3.1959,-3.1735,-3.1745,-3.2448,-3.195,-3.164,-3.2035,-3.1739,-3.1511,-3.1511,-3.0883,-3.0253,-2.9654,-2.8981,-2.8308,-2.7645,-2.76,-2.76,-2.76,-2.76,-2.76,-2.76,-2.76,-2.76,-2.76,-2.76,-2.76,-2.76,-2.76,-2.76,-2.76,-2.76,-2.76,-2.76,-2.76,-2.76,-2.76,-2.76,-2.76,-2.76,-2.76,-2.76,-2.76,-2.76,-2.76,-2.76,-2.76,-2.76,-2.76,-2.76,-2.76,-2.76,-2.76,-2.76,-2.7884,-2.9247,-2.9606,-2.9894,-3.1182,-3.1511,-3.1682,-3.2434,-3.2879,-3.3198,-3.3486,-3.3588,-3.3575,-3.3566,-3.3572,-3.3495,-3.3156,-3.3391,-3.3582,-3.3582,-3.3278,-3.3029,-3.3029,-3.3338,-3.3412,-3.3054,-3.3029,-3.3045,-3.3077,-3.2676,-3.261,-3.2991,-3.2954,-3.2757,-3.2401,-3.2375,-3.2155,-3.1788,-3.142,-3.1258,-3.1299,-3.1598,-3.1529,-3.1207,-3.1546,-3.1532,-3.119,-3.119,-3.119,-3.119,-3.119,-3.1312,-3.1476,-3.0921,-3.0751,-3.0803,-3.0588,-3.0478,-3.0337,-3.1511,-3.1511,-3.1511,-3.1511,-3.1511,-3.1511,-3.1511,-3.1511,-3.1511,-3.1511,-3.1511,-3.1511,-3.1511,-3.0987,-3.0163,-2.8876,-2.8771,-2.8427,-2.7645,-2.76,-2.76,-2.76,-2.7705,-2.772,-2.76,-2.7705,-2.7705,-2.76,-2.76,-2.76,-2.76,-2.76,-2.76,-2.76,-2.76,-2.76,-2.76,-2.76,-2.76,-2.76,-2.76,-2.76,-2.76,-2.76,-2.76,-2.76,-2.76,-2.76,-2.76,-2.76,-2.76,-2.76,-2.76,-2.7675,-2.7764,-2.7764,-2.7764,-2.8064,-2.9397,-2.9696,-2.9894,-3.1182,-3.1511,-3.1525,-3.1645,-3.2146,-3.2733,-3.3229,-3.3466,-3.357,-3.3512,-3.3545,-3.3365,-3.2705,-3.3052,-3.3361,-3.3251,-3.3245,-3.3245,-3.3245,-3.3245,-3.3287,-3.3417,-3.3313,-3.2997,-3.2392,-3.2447,-3.2523,-3.2523,-3.2579,-3.2577,-3.2508,-3.2448,-3.2354,-3.224,-3.1634,-3.1346,-3.1396,-3.1907,-3.1761,-3.1072,-3.1796,-3.1785,-3.119,-3.119,-3.119,-3.119,-3.119,-3.119,-3.1094,-3.0019,-2.9434,-2.9182,-2.9196,-2.9127,-2.8938,-3.1511,-3.1511,-3.1511,-3.1511,-3.1511,-3.1511,-3.1511,-3.1511,-3.1511,-3.1511,-3.1511,-3.1511,-3.1511,-3.1421,-3.0838,-2.9592,-2.9472,-2.8933,-2.7675,-2.76,-2.76,-2.76,-2.8169,-2.8173,-2.76,-2.8184,-2.8173,-2.76,-2.76,-2.76,-2.76,-2.76,-2.76,-2.76,-2.76,-2.76,-2.76,-2.76,-2.76,-2.76,-2.76,-2.76,-2.76,-2.76,-2.76,-2.76,-2.76,-2.76,-2.76,-2.76,-2.76,-2.76,-2.76,-2.8004,-2.8457,-2.8457,-2.8457,-2.8742,-3.0028,-2.9983,-2.9894,-3.1182,-3.1511,-3.1645,-3.2228,-3.2436,-3.254,-3.263,-3.311,-3.3502,-3.3502,-3.3502,-3.3291,-3.26,-3.2598,-3.2445,-3.1872,-3.1781,-3.1781,-3.1781,-3.1781,-3.202,-3.2668,-3.216,-3.1751,-3.1632,-3.2216,-3.2582,-3.2582,-3.3143,-3.3162,-3.2524,-3.2503,-3.2175,-3.1526,-3.143,-3.1382,-3.1406,-3.1556,-3.1183,-3.0435,-3.1076,-3.1275,-3.119,-3.119,-3.119,-3.119,-3.119,-3.119,-3.1125,-3.0334,-2.9976,-2.9803,-2.8504,-2.764,-2.7046,-3.1511,-3.1511,-3.1511,-3.1511,-3.1511,-3.1511,-3.1511,-3.1511,-3.1511,-3.1511,-3.1511,-3.1511,-3.1511,-3.1511,-3.0972,-2.9726,-2.9606,-2.9202,-2.8203,-2.8169,-2.8334,-2.8708,-2.9007,-2.9037,-2.8723,-2.8637,-2.8637,-2.8723,-2.7959,-2.76,-2.76,-2.76,-2.76,-2.76,-2.76,-2.76,-2.76,-2.76,-2.76,-2.76,-2.76,-2.76,-2.76,-2.76,-2.76,-2.76,-2.76,-2.76,-2.76,-2.76,-2.76,-2.766,-2.8049,-2.8353,-2.8667,-2.9041,-2.9146,-2.934,-3.0253,-3.0313,-3.0328,-3.1271,-3.1511,-3.1675,-3.2333,-3.2796,-3.3155,-3.3529,-3.3544,-3.3604,-3.3978,-3.3739,-3.3275,-3.2617,-3.2512,-3.2258,-3.16,-3.1511,-3.1511,-3.1511,-3.1511,-3.164,-3.1951,-3.1697,-3.1511,-3.1511,-3.1796,-3.1979,-3.1979,-3.2652,-3.2685,-3.1948,-3.2335,-3.2217,-3.151,-3.1428,-3.125,-3.0964,-3.0895,-3.0707,-3.0383,-3.1031,-3.1083,-3.072,-3.1055,-3.119,-3.119,-3.119,-3.119,-3.1052,-2.9585,-2.8803,-2.8321,-2.7483,-2.7249,-2.7266]},{"header":{"parameterUnit":"m.s-1","parameterCategory":1,"la1":30.6,"la2":28.766,"lo1":-90.7593,"lo2":-88.6598,"dy":0.0162,"dx":0.0183,"nx":116,"ny":114,"refTime":"2023-05-27T06:00:00:Z","depth":0,"parameterNumber":3,"parameterNumberName":"V-component_of_WINDS"},"data":[0.0,0.0,0.0,0.0,0.0,0.0,0.0,0.0,0.0,0.0,0.0,0.0,0.0,0.0,0.0,0.0,0.0,0.0,0.0,0.0,0.0,0.0,0.0,0.0,0.0,0.0,0.0,0.0,0.0,0.0,0.0,0.0,0.0,0.0,0.0,0.0,0.0,0.0,0.0,0.0,0.0,0.0,0.0,0.0,0.0,0.0,0.0,0.0,0.0,0.0,0.0,0.0,0.0,0.0,0.0,0.0,0.0,0.0,0.0,0.0,0.0,0.0,0.0,0.0,0.0,0.0,0.0,0.0,0.0,0.0,0.0,0.0,0.0,0.0,0.0,0.0,0.0,0.0,0.0,0.0,0.0,0.0,0.0,0.0,0.0,0.0,0.0,0.0,0.0,0.0,0.0,0.0,0.0,0.0,0.0,0.0,0.0,0.0,0.0,0.0,0.0,0.0,0.0,0.0,0.0,0.0,0.0,0.0,0.0,0.0,0.0,0.0,0.0,0.0,0.0,0.0,0.0,0.0,0.0,0.0,0.0,0.0,0.0,0.0,0.0,0.0,0.0,0.0,0.0,0.0,0.0,0.0,0.0,0.0,0.0,0.0,0.0,0.0,0.0,0.0,0.0,0.0,0.0,0.0,0.0,0.0,0.0,0.0,0.0,0.0,0.0,0.0,0.0,0.0,0.0,0.0,0.0,0.0,0.0,0.0,0.0,0.0,0.0,0.0,0.0,0.0,0.0,0.0,0.0,0.0,0.0,0.0,0.0,0.0,0.0,0.0,0.0,0.0,0.0,0.0,0.0,0.0,0.0,0.0,0.0,0.0,0.0,0.0,0.0,0.0,0.0,0.0,0.0,0.0,0.0,0.0,0.0,0.0,0.0,0.0,0.0,0.0,0.0,0.0,0.0,0.0,0.0,0.0,0.0,0.0,0.0,0.0,0.0,0.0,0.0,0.0,0.0,0.0,0.0,0.0,0.0,0.0,0.0,0.0,0.0,0.0,0.0,0.0,0.0,0.0,0.0,0.0,0.0,0.0,0.0,0.0,0.0,0.0,0.0,0.0,0.0,0.0,0.0,0.0,0.0,0.0,0.0,0.0,0.0,0.0,0.0,0.0,0.0,0.0,0.0,0.0,0.0,0.0,0.0,0.0,0.0,0.0,0.0,0.0,0.0,0.0,0.0,0.0,0.0,0.0,0.0,0.0,0.0,0.0,0.0,0.0,0.0,0.0,0.0,0.0,0.0,0.0,0.0,0.0,0.0,0.0,0.0,0.0,0.0,0.0,0.0,0.0,0.0,0.0,0.0,0.0,0.0,0.0,0.0,0.0,0.0,0.0,0.0,0.0,0.0,0.0,0.0,0.0,0.0,0.0,0.0,0.0,0.0,0.0,0.0,0.0,0.0,0.0,0.0,0.0,0.0,0.0,0.0,0.0,0.0,0.0,0.0,0.0,0.0,0.0,0.0,0.0,0.0,0.0,0.0,0.0,0.0,0.0,0.0,0.0,0.0,0.0,0.0,0.0,0.0,0.0,0.0,0.0,0.0,0.0,0.0,0.0,0.0,0.0,0.0,0.0,0.0,0.0,0.0,0.0,0.0,0.0,0.0,0.0,0.0,0.0,0.0,0.0,0.0,0.0,0.0,0.0,0.0,0.0,0.0,0.0,0.0,0.0,0.0,0.0,0.0,0.0,0.0,0.0,0.0,0.0,0.0,0.0,0.0,0.0,0.0,0.0,0.0,0.0,0.0,0.0,0.0,0.0,0.0,0.0,0.0,0.0,0.0,0.0,0.0,0.0,0.0,0.0,0.0,0.0,0.0,0.0,0.0,0.0,0.0,0.0,0.0,0.0,0.0,0.0,0.0,0.0,0.0,0.0,0.0,0.0,0.0,0.0,0.0,0.0,0.0,0.0,0.0,0.0,0.0,0.0,0.0,0.0,0.0,0.0,0.0,0.0,0.0,0.0,0.0,0.0,0.0,0.0,0.0,0.0,0.0,0.0,0.0,0.0,0.0,0.0,0.0,0.0,0.0,0.0,0.0,0.0,0.0,0.0,0.0,0.0,0.0,0.0,0.0,0.0,0.0,0.0,0.0,0.0,0.0,0.0,0.0,0.0,0.0,0.0,0.0,0.0,0.0,0.0,0.0,0.0,0.0,0.0,0.0,0.0,0.0,0.0,0.0,0.0,0.0,0.0,0.0,0.0,0.0,0.0,0.0,0.0,0.0,0.0,0.0,0.0,0.0,0.0,0.0,0.0,0.0,0.0,0.0,0.0,0.0,0.0,0.0,0.0,0.0,0.0,0.0,0.0,0.0,0.0,0.0,0.0,0.0,0.0,0.0,0.0,0.0,0.0,0.0,0.0,0.0,0.0,0.0,0.0,0.0,0.0,0.0,0.0,0.0,0.0,0.0,0.0,0.0,0.0,0.0,0.0,0.0,0.0,0.0,0.0,0.0,0.0,0.0,0.0,0.0,0.0,0.0,0.0,0.0,0.0,0.0,0.0,0.0,0.0,0.0,0.0,0.0,0.0,0.0,0.0,0.0,0.0,0.0,0.0,0.0,0.0,0.0,0.0,0.0,0.0,0.0,0.0,0.0,0.0,0.0,0.0,0.0,0.0,0.0,0.0,0.0,0.0,0.0,0.0,0.0,0.0,0.0,0.0,0.0,0.0,0.0,0.0,0.0,0.0,0.0,0.0,0.0,0.0,0.0,0.0,0.0,0.0,0.0,0.0,0.0,0.0,0.0,0.0,0.0,0.0,0.0,0.0,0.0,0.0,0.0,0.0,0.0,0.0,0.0,0.0,0.0,0.0,0.0,0.0,0.0,0.0,0.0,0.0,0.0,0.0,0.0,0.0,0.0,0.0,0.0,0.0,0.0,0.0,0.0,0.0,0.0,0.0,0.0,0.0,0.0,0.0,0.0,0.0,0.0,0.0,0.0,0.0,0.0,0.0,0.0,0.0,0.0,0.0,0.0,0.0,0.0,0.0,0.0,0.0,0.0,0.0,0.0,0.0,0.0,0.0,0.0,0.0,0.0,0.0,0.0,0.0,0.0,0.0,0.0,0.0,0.0,0.0,0.0,0.0,0.0,0.0,0.0,0.0,0.0,0.0,0.0,0.0,0.0,0.0,0.0,0.0,0.0,0.0,0.0,0.0,0.0,0.0,0.0,0.0,0.0,0.0,0.0,0.0,0.0,0.0,0.0,0.0,0.0,0.0,0.0,0.0,0.0,0.0,0.0,0.0,0.0,0.0,0.0,0.0,0.0,0.0,0.0,0.0,0.0,0.0,0.0,0.0,0.0,0.0,0.0,0.0,0.0,0.0,0.0,0.0,0.0,0.0,0.0,0.0,0.0,0.0,0.0,0.0,0.0,0.0,0.0,0.0,0.0,0.0,0.0,0.0,0.0,0.0,0.0,0.0,0.0,0.0,0.0,0.0,0.0,0.0,0.0,0.0,0.0,0.0,0.0,0.0,0.0,0.0,0.0,0.0,0.0,0.0,0.0,0.0,0.0,0.0,0.0,0.0,0.0,0.0,0.0,0.0,0.0,0.0,0.0,0.0,0.0,0.0,0.0,0.0,0.0,0.0,0.0,0.0,0.0,0.0,0.0,0.0,0.0,0.0,0.0,0.0,0.0,0.0,0.0,0.0,0.0,0.0,0.0,0.0,0.0,0.0,0.0,0.0,0.0,0.0,0.0,0.0,0.0,0.0,0.0,0.0,0.0,0.0,0.0,0.0,0.0,0.0,0.0,0.0,0.0,0.0,0.0,0.0,0.0,0.0,0.0,0.0,0.0,0.0,0.0,0.0,0.0,0.0,0.0,0.0,0.0,0.0,0.0,0.0,0.0,0.0,0.0,0.0,0.0,0.0,0.0,0.0,0.0,0.0,0.0,0.0,0.0,0.0,0.0,0.0,0.0,0.0,0.0,0.0,0.0,0.0,0.0,0.0,0.0,0.0,0.0,0.0,0.0,0.0,0.0,0.0,0.0,0.0,0.0,0.0,0.0,0.0,0.0,0.0,0.0,0.0,0.0,0.0,0.0,0.0,0.0,0.0,0.0,0.0,0.0,0.0,0.0,0.0,0.0,0.0,0.0,0.0,0.0,0.0,0.0,0.0,0.0,0.0,0.0,0.0,0.0,0.0,0.0,0.0,0.0,0.0,0.0,0.0,0.0,0.0,0.0,0.0,0.0,0.0,0.0,0.0,0.0,0.0,0.0,0.0,0.0,0.0,0.0,0.0,0.0,0.0,0.0,0.0,0.0,0.0,0.0,0.0,0.0,0.0,0.0,0.0,0.0,0.0,0.0,0.0,0.0,0.0,0.0,0.0,0.0,0.0,0.0,0.0,0.0,0.0,0.0,0.0,0.0,0.0,0.0,0.0,0.0,0.0,0.0,0.0,0.0,0.0,0.0,0.0,0.0,0.0,0.0,0.0,0.0,0.0,0.0,0.0,0.0,0.0,0.0,0.0,0.0,0.0,0.0,0.0,0.0,0.0,0.0,0.0,0.0,0.0,0.0,0.0,0.0,0.0,0.0,0.0,0.0,0.0,0.0,0.0,0.0,0.0,0.0,0.0,0.0,0.0,0.0,0.0,0.0,0.0,0.0,0.0,0.0,0.0,0.0,0.0,0.0,0.0,0.0,0.0,0.0,0.0,0.0,0.0,0.0,0.0,0.0,0.0,0.0,0.0,0.0,0.0,0.0,0.0,0.0,0.0,0.0,0.0,0.0,0.0,0.0,0.0,0.0,0.0,0.0,0.0,0.0,0.0,0.0,0.0,0.0,0.0,0.0,0.0,0.0,0.0,0.0,0.0,0.0,0.0,0.0,0.0,0.0,0.0,0.0,0.0,0.0,0.0,0.0,0.0,0.0,0.0,0.0,0.0,0.0,0.0,0.0,0.0,0.0,0.0,0.0,0.0,0.0,0.0,0.0,0.0,0.0,0.0,0.0,0.0,0.0,0.0,0.0,0.0,0.0,0.0,0.0,0.0,0.0,0.0,0.0,0.0,0.0,0.0,0.0,0.0,0.0,0.0,0.0,0.0,0.0,0.0,0.0,0.0,0.0,0.0,0.0,0.0,0.0,0.0,0.0,0.0,0.0,0.0,0.0,0.0,0.0,0.0,0.0,0.0,0.0,0.0,0.0,0.0,0.0,0.0,0.0,0.0,0.0,0.0,0.0,0.0,0.0,0.0,0.0,0.0,0.0,0.0,0.0,0.0,0.0,0.0,0.0,0.0,0.0,0.0,0.0,0.0,0.0,0.0,0.0,0.0,0.0,0.0,0.0,0.0,0.0,0.0,0.0,0.0,0.0,0.0,0.0,0.0,0.0,0.0,0.0,0.0,0.0,0.0,0.0,0.0,0.0,0.0,0.0,0.0,0.0,0.0,0.0,0.0,0.0,0.0,0.0,0.0,0.0,0.0,0.0,0.0,0.0,0.0,0.0,0.0,0.0,0.0,0.0,0.0,0.0,0.0,0.0,0.0,0.0,0.0,0.0,0.0,0.0,0.0,0.0,0.0,0.0,0.0,0.0,0.0,0.0,0.0,0.0,0.0,0.0,0.0,0.0,0.0,0.0,0.0,0.0,0.0,0.0,0.0,0.0,0.0,0.0,0.0,0.0,0.0,0.0,0.0,0.0,0.0,0.0,0.0,0.0,0.0,0.0,0.0,0.0,0.0,0.0,0.0,0.0,0.0,0.0,0.0,0.0,0.0,0.0,0.0,0.0,0.0,0.0,0.0,0.0,0.0,0.0,0.0,0.0,0.0,0.0,0.0,0.0,0.0,0.0,0.0,0.0,0.0,0.0,0.0,0.0,0.0,0.0,0.0,0.0,0.0,0.0,0.0,0.0,0.0,0.0,0.0,0.0,0.0,0.0,0.0,0.0,0.0,0.0,0.0,0.0,0.0,0.0,0.0,0.0,0.0,0.0,0.0,0.0,0.0,0.0,0.0,0.0,0.0,0.0,0.0,0.0,0.0,0.0,0.0,0.0,0.0,0.0,0.0,0.0,0.0,0.0,0.0,0.0,0.0,0.0,0.0,0.0,0.0,0.0,0.0,0.0,0.0,0.0,0.0,0.0,0.0,0.0,0.0,-1.9141,0.0,0.0,0.0,0.0,0.0,0.0,0.0,0.0,0.0,0.0,0.0,0.0,0.0,0.0,0.0,0.0,0.0,0.0,0.0,0.0,0.0,0.0,0.0,0.0,0.0,0.0,0.0,0.0,0.0,0.0,0.0,0.0,0.0,0.0,0.0,0.0,0.0,0.0,0.0,-0.0167,-0.0401,-0.1303,-0.0848,-0.1844,-0.4065,0.0,0.0,0.0,0.0,0.0,0.0,0.0,0.0,0.0,0.0,0.0,0.0,0.0,0.0,0.0,0.0,0.0,0.0,0.0,0.0,0.0,0.0,0.0,0.0,0.0,0.0,0.0,0.0,0.0,0.0,0.0,0.0,0.0,0.0,0.0,0.0,0.0,0.0,0.0,0.0,0.0,0.0,0.0,0.0,0.0,0.0,0.0,0.0,0.0,0.0,0.0,0.0,0.0,0.0,0.0,0.0,0.0,0.0,0.0,0.0,0.0,0.0,0.0,0.0,0.0,0.0,0.0,0.0,0.0,0.0,0.0,-2.0225,0.0,0.0,0.0,0.0,0.0,0.0,0.0,0.0,0.0,0.0,0.0,0.0,0.0,0.0,0.0,0.0,0.0,0.0,0.0,0.0,0.0,0.0,0.0,0.0,0.0,0.0,0.0,0.0,0.0,0.0,0.0,0.0,0.0,0.0,0.0,0.0,0.0,0.0,-0.1413,-0.182,-0.2732,-0.1963,-0.251,-0.4172,-0.5752,0.0,0.0,0.0,0.0,0.0,0.0,0.0,0.0,0.0,0.0,0.0,0.0,0.0,0.0,0.0,0.0,0.0,0.0,0.0,0.0,0.0,0.0,0.0,0.0,0.0,0.0,0.0,0.0,0.0,0.0,0.0,0.0,0.0,0.0,0.0,0.0,0.0,0.0,0.0,0.0,0.0,0.0,0.0,0.0,0.0,0.0,0.0,0.0,0.0,0.0,0.0,0.0,0.0,0.0,0.0,0.0,0.0,0.0,0.0,0.0,0.0,0.0,0.0,-2.3076,-2.3988,-2.4639,-2.4287,-2.4131,-2.4043,-2.2549,-2.1697,-2.1375,-2.0898,0.0,0.0,0.0,0.0,0.0,0.0,0.0,0.0,0.0,0.0,0.0,0.0,0.0,0.0,0.0,0.0,0.0,0.0,0.0,0.0,0.0,0.0,0.0,0.0,0.0,0.0,0.0,0.0,0.0,0.0,0.0,0.0,0.0,-0.2041,-0.2511,-0.2511,-0.1881,-0.2007,-0.2882,-0.2864,-0.343,-0.4474,-0.5174,-0.5986,-0.6915,0.0,0.0,0.0,0.0,0.0,0.0,0.0,0.0,0.0,0.0,0.0,0.0,0.0,0.0,0.0,0.0,0.0,0.0,0.0,0.0,0.0,0.0,0.0,0.0,0.0,0.0,0.0,0.0,0.0,0.0,0.0,0.0,0.0,0.0,0.0,0.0,0.0,0.0,0.0,0.0,0.0,-1.2087,-1.0925,0.0,0.0,0.0,0.0,0.0,0.0,0.0,0.0,0.0,0.0,0.0,0.0,0.0,-1.643,-1.8176,-1.9934,-2.1633,-2.3272,-2.5091,-2.582,-2.5508,-2.546,-2.543,-2.5401,-2.4834,0.0,-2.2285,-2.1434,0.0,0.0,0.0,0.0,0.0,0.0,0.0,0.0,0.0,0.0,0.0,0.0,0.0,0.0,0.0,0.0,0.0,0.0,0.0,0.0,0.0,0.0,0.0,0.0,0.0,0.0,0.0,0.0,0.0,0.0,0.0,0.0,-0.2809,-0.2744,-0.2732,-0.2811,-0.2493,-0.2842,-0.3779,-0.3313,-0.3871,-0.5212,-0.4979,-0.5569,-0.6873,-0.7653,0.0,0.0,0.0,0.0,0.0,0.0,0.0,0.0,0.0,0.0,0.0,0.0,0.0,0.0,0.0,0.0,0.0,0.0,0.0,0.0,0.0,0.0,0.0,0.0,0.0,0.0,0.0,0.0,0.0,0.0,0.0,0.0,0.0,0.0,0.0,0.0,0.0,0.0,0.0,-1.2705,-1.2731,-1.2005,-1.2582,-1.2924,0.0,0.0,0.0,0.0,0.0,0.0,0.0,0.0,0.0,-1.5985,-1.6687,-1.8223,-2.0614,-2.1563,-2.3426,-2.6203,-2.7059,-2.7607,-2.7881,-2.7637,-2.7393,-2.7148,-2.6719,-2.5693,-2.4192,-2.3125,-2.2129,-2.1329,0.0,0.0,0.0,0.0,-2.3252,-2.3372,0.0,0.0,0.0,0.0,0.0,0.0,0.0,0.0,0.0,0.0,0.0,0.0,0.0,0.0,0.0,0.5436,0.0,0.0,0.0,0.0,0.0,0.0,0.0,-0.236,-0.3863,-0.309,-0.2852,-0.3244,-0.3043,-0.3642,-0.4953,-0.4281,-0.4704,-0.5969,-0.5518,-0.5808,-0.6591,-0.7156,-0.8355,-0.9901,0.0,0.0,0.0,0.0,0.0,0.0,0.0,0.0,0.0,0.0,0.0,0.0,0.0,0.0,0.0,0.0,0.0,0.0,0.0,0.0,0.0,0.0,0.0,0.0,0.0,0.0,0.0,0.0,0.0,0.0,0.0,0.0,0.0,0.0,0.0,0.0,0.0,-1.3066,-1.3373,-1.2958,-1.3467,-1.3641,0.0,0.0,0.0,0.0,0.0,0.0,-1.5812,-1.6613,-1.7188,-1.7534,-1.855,-2.035,-2.2818,-2.3644,-2.5647,-2.8779,-2.8779,-2.918,-2.9893,-2.9453,-2.9014,-2.8594,-2.8174,-2.7314,-2.6123,-2.4697,-2.3359,-2.2197,-2.209,-2.1572,-2.1135,-2.2733,-2.3113,-2.3147,0.0,0.0,0.0,0.0,0.0,0.0,0.0,0.0,0.0,0.0,0.0,0.0,0.0,0.0,0.8166,0.7424,0.798,0.7626,0.0,0.0,0.0,0.0,-0.1609,-0.2945,-0.3612,-0.2902,-0.3059,-0.4151,-0.3451,-0.4147,-0.6202,-0.6294,-0.6397,-0.651,-0.7293,-0.6906,-0.5658,-0.5717,-0.6663,-0.8118,-0.8135,0.0,0.0,0.0,0.0,0.0,0.0,0.0,0.0,0.0,0.0,0.0,0.0,0.0,0.0,0.0,0.0,0.0,0.0,0.0,0.0,0.0,0.0,0.0,0.0,0.0,0.0,0.0,0.0,0.0,0.0,0.0,0.0,0.0,0.0,0.0,0.0,0.0,0.0,-1.3287,-1.4625,0.0,0.0,0.0,0.0,-1.5264,-1.5845,-1.6489,-1.7079,-1.7642,-1.8116,-1.8417,-2.0879,-2.2905,-2.4373,-2.6601,-2.8533,-3.0098,-3.0098,-3.0351,-3.081,-3.0342,-2.9902,-2.9482,-2.9043,-2.8369,-2.7483,-2.5761,-2.4248,-2.2994,-2.2637,-2.2207,-2.194,-2.2929,-2.3271,-2.341,0.0,0.0,0.0,0.0,0.0,0.0,0.0,0.0,0.0,0.0,0.0,0.0,0.0,0.9005,0.9383,0.8196,0.9449,0.8964,0.5763,0.0,0.0,0.0,-0.0876,-0.1915,-0.2103,-0.3099,-0.3552,-0.3489,-0.4482,-0.5421,-0.6303,-0.6446,-0.6511,-0.6508,-0.681,-0.6652,-0.6246,-0.7039,-0.8048,-0.9079,-0.9153,-0.9995,0.0,0.0,0.0,0.0,0.0,0.0,0.0,0.0,0.0,0.0,0.0,0.0,0.0,0.0,0.0,0.0,0.0,0.0,0.0,0.0,0.0,0.0,0.0,0.0,0.0,0.0,0.0,0.0,0.0,0.0,0.0,0.0,0.0,0.0,0.0,0.0,0.0,-1.517,-1.6233,0.0,-1.5972,-1.6234,-1.6536,-1.678,-1.7535,-1.8237,-1.8824,-1.9419,-1.9873,-2.0167,-2.2147,-2.4044,-2.583,-2.7727,-2.9651,-3.1465,-3.1182,-3.1133,-3.1279,-3.084,-3.04,-2.9951,-2.9521,-2.8857,-2.7998,-2.7161,-2.5977,-2.469,-2.4014,-2.3477,-2.3149,-2.3511,-2.346,-2.3507,0.0,0.0,0.0,0.0,0.0,0.0,0.0,0.0,0.0,0.0,0.0,0.9394,0.877,1.0166,1.0637,0.9411,1.0595,0.9957,0.6493,0.0,0.0,0.0,-0.0555,-0.1668,-0.1846,-0.3091,-0.3734,-0.3703,-0.5041,-0.5976,-0.6488,-0.6583,-0.6627,-0.6665,-0.6989,-0.7119,-0.7159,-0.8282,-0.8998,-0.9417,-0.9772,-1.0573,-1.1532,0.0,0.0,0.0,0.0,0.0,0.0,0.0,0.0,0.0,0.0,0.0,0.0,0.0,0.0,0.0,0.0,0.0,0.0,0.0,0.0,0.0,0.0,0.0,0.0,0.0,0.0,0.0,0.0,0.0,0.0,0.0,0.0,0.0,0.0,0.0,-1.6181,-1.6569,-1.7609,-1.8136,-1.7702,-1.7923,-1.8163,-1.8457,-1.9212,-1.9873,-2.0368,-2.0855,-2.1209,-2.1396,-2.3754,-2.5493,-2.6537,-2.909,-3.0865,-3.1943,-3.165,-3.1514,-3.1504,-3.1084,-3.0635,-3.0185,-2.9902,-2.9297,-2.8467,-2.8057,-2.7285,-2.6289,-2.5264,-2.4512,-2.3984,-2.3838,-2.3613,-2.3692,0.0,0.0,0.0,0.0,0.0,0.0,0.0,0.0,0.0,0.0,1.0219,1.0632,1.1086,1.1751,1.1861,1.1124,1.1259,1.0411,0.8084,0.4603,0.0,0.0,-0.0757,-0.2351,-0.2867,-0.2912,-0.3556,-0.4896,-0.5075,-0.5754,-0.6879,-0.6926,-0.6929,-0.6929,-0.794,-0.8308,-0.823,-0.9114,-0.9238,-0.8873,-0.9749,-1.0878,-1.1984,0.0,0.0,0.0,0.0,0.0,0.0,0.0,0.0,0.0,0.0,0.0,0.0,0.0,0.0,0.0,0.0,0.0,0.0,0.0,0.0,0.0,0.0,0.0,0.0,0.0,0.0,0.0,0.0,0.0,0.0,0.0,0.0,0.0,-1.4583,-1.6106,-1.728,-1.7306,-1.8804,-1.9533,-1.8684,-1.9379,-1.9993,-2.0267,-2.0835,-2.1283,-2.1628,-2.1844,-2.1997,-2.1997,-2.5693,-2.7264,-2.643,-3.0643,-3.2383,-3.1572,-3.1562,-3.1553,-3.1523,-3.1103,-3.0654,-3.0215,-3.0205,-2.9717,-2.8906,-2.8486,-2.8057,-2.7591,-2.626,-2.5234,-2.4424,-2.3984,-2.3863,-2.4133,0.0,0.0,0.0,0.0,0.0,0.0,0.0,0.0,0.0,0.0,1.0381,1.0405,1.1766,1.155,1.1056,1.0376,1.0994,0.9878,0.6332,0.0,0.0,0.0,-0.0202,-0.1075,-0.2088,-0.2856,-0.3854,-0.505,-0.5865,-0.6424,-0.6766,-0.7754,-0.7727,-0.6972,-0.8106,-0.826,-0.7661,-0.8659,-0.8974,-0.8985,-1.0144,-1.0996,-1.156,0.0,0.0,0.0,0.0,0.0,0.0,0.0,0.0,0.0,0.0,0.0,0.0,0.0,0.0,0.0,0.0,0.0,0.0,0.0,0.0,0.0,0.0,0.0,0.0,0.0,0.0,0.0,0.0,0.0,0.0,0.0,0.0,-1.5865,-1.6079,-1.7635,-1.9048,-1.9633,-2.0702,-2.1289,-2.1049,-2.1436,-2.1643,-2.1516,-2.2044,-2.2318,-2.2191,-2.2258,-2.2298,-2.2298,-2.5527,-2.7264,-2.7313,-3.0993,-3.2832,-3.2891,-3.2588,-3.2285,-3.1973,-3.1543,-3.1113,-3.0684,-3.0342,-2.9893,-2.9355,-2.8926,-2.832,-2.762,-2.6592,-2.6064,-2.5752,-2.5047,-2.5055,-2.5506,0.0,0.0,0.0,0.0,0.0,0.0,0.0,0.0,0.0,0.0,1.0535,1.0659,1.1809,1.1668,1.1055,0.9904,1.0124,0.9174,0.645,0.0,0.0,0.0,0.0,-0.0749,-0.2381,-0.3117,-0.4274,-0.5855,-0.6554,-0.6885,-0.6885,-0.7655,-0.7656,-0.7021,-0.7818,-0.7867,-0.7464,-0.8132,-0.8665,-0.9158,-0.9932,-1.0486,-1.0775,-1.051,-0.9962,-0.9351,-0.9714,-0.9513,-0.9124,-0.9487,0.0,0.0,0.0,0.0,0.0,0.0,0.0,0.0,0.0,0.0,0.0,0.0,0.0,0.0,0.0,0.0,0.0,0.0,0.0,0.0,0.0,0.0,0.0,0.0,-1.6453,-1.7569,-1.811,-1.9078,-2.01,-2.1102,-2.1784,-2.2265,-2.2525,-2.2699,-2.2779,-2.2739,-2.2933,-2.2979,-2.2806,-2.2672,-2.2605,-2.2605,-2.5836,-2.7495,-2.734,-3.0958,-3.2734,-3.2617,-3.2373,-3.2129,-3.1875,-3.1455,-3.1123,-3.0869,-3.0605,-3.0244,-2.9795,-2.9365,-2.8799,0.0,0.0,0.0,0.0,0.0,-2.4927,-2.519,0.0,0.0,0.0,0.0,0.0,0.0,0.0,0.0,0.0,0.0,0.0,1.0996,1.1602,1.1828,1.1276,0.9498,0.8911,0.8078,0.0,0.0,0.0,0.0,0.0,-0.1029,-0.3299,-0.3489,-0.4692,-0.691,-0.7034,-0.7105,-0.7122,-0.7252,-0.7262,-0.7152,-0.7469,-0.7541,-0.7438,-0.7699,-0.831,-0.9145,-0.9303,-0.9625,-0.9994,-0.9435,-0.9207,-0.9125,-0.8865,-0.86,-0.8369,-0.8337,0.0,0.0,0.0,0.0,0.0,0.0,0.0,0.0,0.0,0.0,0.0,0.0,0.0,0.0,0.0,0.0,0.0,0.0,0.0,0.0,0.0,0.0,0.0,0.0,-1.7956,-1.9341,-2.0347,-2.0481,-2.0875,-2.1957,-2.2345,-2.2746,-2.332,-2.3407,-2.3507,-2.3708,-2.3507,-2.3347,-2.328,0.0,0.0,0.0,0.0,-2.7859,-2.7097,-3.0912,-3.2412,-3.166,-3.1611,-3.1562,-3.1504,-3.1133,-3.0937,-3.0889,-3.0889,-3.0605,-3.0098,-2.9726,-2.9258,-2.8662,-2.748,-2.6728,-2.6172,-2.5,-2.4297,-2.4172,0.0,0.0,0.0,0.0,0.0,0.0,0.0,0.0,0.0,1.0893,1.0414,1.0487,1.1936,1.1142,0.9962,0.8586,0.8034,0.5952,0.0,0.0,0.0,0.0,0.0,-0.11,-0.3503,-0.3592,-0.4745,-0.7055,-0.7082,-0.7204,-0.7371,-0.8301,-0.8288,-0.7559,-0.8502,-0.8496,-0.7729,-0.7787,-0.7962,-0.8245,-0.8276,-0.9125,-1.0292,-1.007,-0.9261,-0.8238,-0.805,-0.7549,-0.6984,-0.7575,-0.7816,-0.7961,-0.8552,-0.8731,0.0,0.0,0.0,0.0,0.0,0.0,0.0,0.0,0.0,0.0,0.0,0.0,0.0,0.0,0.0,0.0,0.0,0.0,0.0,-1.7822,-1.9138,-2.0386,-2.1804,-2.1997,-2.2171,-2.2639,-2.2959,-2.3293,-2.3647,-2.3895,-2.3861,-2.3447,-2.3581,-2.3474,-2.2979,-2.3133,-2.324,-2.324,-2.6662,-2.8468,-2.8262,-3.1274,-3.2715,-3.2539,0.0,0.0,-3.1514,-3.1435,-3.1211,-3.0889,-3.0889,-3.0439,-2.9687,-2.96,-2.8971,-2.7851,-2.7246,-2.6543,-2.5781,-2.5528,-2.5195,-2.4849,0.0,0.0,0.0,0.0,0.0,0.0,0.0,0.0,0.0,0.0,1.0219,1.0114,1.0675,1.0043,0.893,0.7338,0.6463,0.0,0.0,0.0839,0.0,0.0,0.0,-0.112,-0.3549,-0.3578,-0.4797,-0.7255,-0.7255,-0.7336,-0.7531,-0.8075,-0.8073,-0.7651,-0.8281,-0.8262,-0.7818,-0.7892,-0.7921,-0.7982,-0.7907,-0.8361,-0.8989,-0.8939,-0.8352,-0.7541,-0.7383,-0.7017,-0.6644,-0.6961,-0.7062,-0.7133,-0.747,-0.7824,-0.8077,0.0,0.0,0.0,0.0,0.0,0.0,0.0,0.0,0.0,0.0,0.0,0.0,0.0,0.0,-1.4576,0.0,0.0,-1.7642,-1.9118,-2.0221,-2.1249,-2.2271,-2.2545,-2.2806,-2.326,-2.3454,-2.3667,-2.3955,-2.4249,-2.4302,-2.4001,-2.3988,-2.3855,-2.3554,-2.34,-2.3327,-2.3327,-2.5629,-2.7158,-2.7769,-2.9905,-3.1222,-3.1836,-3.1631,-3.1416,-3.1201,-3.1201,-3.1094,-3.0879,-3.0644,-3.0293,-2.9853,-2.9424,-2.8623,-2.7699,-2.7422,-2.6816,-2.6016,-2.5566,-2.5117,-2.4771,0.0,0.0,0.0,0.0,0.0,0.0,0.0,0.0,0.0,0.0,1.0083,0.9894,0.9301,0.9049,0.8218,0.0,0.0,0.0,0.0,0.1354,0.0,0.0,0.0,-0.1127,-0.357,-0.3645,-0.4897,-0.746,-0.746,-0.7492,-0.7641,-0.7641,-0.7655,-0.7689,-0.7804,-0.7855,-0.7865,-0.7938,-0.7988,-0.7975,-0.7872,-0.7726,-0.7594,-0.73,-0.7158,-0.7041,-0.6927,-0.681,-0.6637,-0.6555,-0.6436,-0.6351,-0.6412,-0.687,-0.7382,-0.7199,-0.7753,0.0,0.0,0.0,0.0,0.0,0.0,0.0,0.0,0.0,-1.3801,-1.4389,-1.5028,-1.5779,-1.6847,-1.7736,-1.8744,-2.01,-2.1062,-2.1804,-2.2265,-2.2639,-2.3088,-2.346,-2.3614,-2.3821,-2.4168,-2.4416,-2.4556,-2.4556,-2.4335,-2.4155,-2.4042,-2.3641,-2.336,-2.324,-2.4487,-2.5751,-2.7015,-2.8386,-2.973,-3.1016,-3.0928,-3.0889,-3.0889,-3.0889,-3.0889,-3.0859,-3.0312,-3.0078,-3.001,-2.915,-2.8398,-2.7836,-2.7748,-2.7197,-2.6416,-2.5615,-2.499,-2.4611,0.0,0.0,0.0,0.0,0.0,0.0,0.0,0.0,0.0,0.0,0.0,0.0,0.0,0.0,0.0,0.0,0.0,0.0,0.0663,0.0197,0.0,0.0,0.0,-0.1196,-0.3733,-0.3768,-0.5005,-0.7573,-0.7573,-0.7648,-0.7787,-0.7787,-0.7862,-0.7941,-0.7958,-0.7965,-0.7965,-0.7982,-0.7988,-0.7975,-0.7872,-0.7726,-0.7476,-0.6294,-0.6298,-0.6906,-0.6889,-0.6742,-0.6535,-0.6518,-0.6501,-0.6538,-0.677,-0.6801,-0.6781,-0.6624,-0.7138,-0.7475,-0.6379,-0.7727,-0.9507,-0.9943,-1.1788,-1.3535,0.0,0.0,-1.5317,-1.5905,-1.6543,-1.7239,-1.8123,-1.8804,-1.9533,-2.0474,-2.1363,-2.1964,-2.2024,-2.2512,-2.2786,-2.2592,-2.3046,-2.3594,-2.4148,-2.4235,-2.4249,-2.4249,-2.4222,-2.3975,-2.3454,-2.3614,-2.3474,-2.2933,-2.4573,-2.609,-2.744,-2.8508,-2.987,-3.1445,-3.1064,-3.0889,-3.0889,-3.0889,-3.0889,-3.084,-3.001,-2.9695,-2.957,-2.8721,-2.831,-2.8184,-2.7812,-2.7373,-2.6894,-2.6416,-2.5713,-2.4979,0.0,0.0,0.0,0.0,0.0,0.0,0.0,0.0,0.0,0.0,0.0,0.0,0.0,0.0,0.0,0.0,0.0,0.0,0.1369,0.0491,0.0,0.0,0.0,-0.1201,-0.3746,-0.3781,-0.5097,-0.7723,-0.7723,-0.7797,-0.7894,-0.7894,-0.7928,-0.7988,-0.7988,-0.7988,-0.7988,-0.7988,-0.7988,-0.7968,-0.7784,-0.7218,-0.6489,-0.5758,-0.522,-0.4877,-0.532,-0.544,0.0,-0.5927,-0.6081,-0.6056,-0.5793,-0.6086,-0.6334,-0.567,-0.6108,-0.6723,-0.6215,-0.7547,-0.8923,-0.8426,-1.0241,-1.2264,-1.2815,-1.3885,-1.5226,-1.6755,-1.7515,-1.8203,-1.9085,-1.9593,-2.016,0.0,-2.1637,-2.1984,-2.1984,-2.2345,-2.2432,-2.1971,-2.2291,-2.2779,-2.3367,-2.3741,-2.3955,-2.3955,-2.3955,-2.3848,-2.3594,-2.3541,-2.3313,-2.2879,-2.3252,-2.4531,-2.6849,-2.7151,-2.861,-3.1152,-3.0976,-3.0752,-3.0498,-3.0771,-3.0605,-3.0107,-2.9792,-2.9287,-2.8799,-2.8437,-2.8291,-2.8252,-2.7885,-2.7402,-2.6963,-2.6543,-2.583,-2.5086,0.0,0.0,0.0,0.0,0.0,0.0,0.0,0.0,0.0,0.0,0.0,0.0,0.0,0.0,0.0,0.0,0.0,0.0,0.0,0.0584,0.0,0.0,0.0,-0.1189,-0.3758,-0.3839,-0.5143,-0.7811,-0.7851,-0.788,-0.7988,-0.7988,-0.7988,-0.7988,-0.7988,-0.7988,-0.7988,-0.7988,-0.7965,-0.7907,-0.7702,-0.6848,-0.5662,-0.5097,-0.4208,-0.3283,-0.413,-0.4403,-0.4493,-0.538,-0.5681,-0.5632,-0.5321,-0.565,-0.6065,-0.5345,-0.5708,-0.6317,-0.6399,-0.7573,-0.8523,-0.7457,-0.9338,-1.1487,-1.1867,-1.3421,-1.5264,-1.6965,-1.8016,-1.8851,-1.9653,-1.9973,-2.0381,-2.1182,-2.169,-2.1931,-2.177,-2.2064,-2.2051,-2.1454,-2.157,-2.1911,-2.2338,-2.3073,-2.3554,-2.3641,-2.3647,-2.3647,-2.3647,-2.3287,-2.2973,-2.2746,-2.2171,-2.3336,-2.6389,-2.6158,-2.7632,-3.0889,-3.0889,-3.0713,-3.04,-3.0732,-3.041,-2.9626,-2.9626,-2.915,-2.8457,-2.834,-2.8291,-2.8262,-2.7959,-2.75,-2.6982,-2.667,-2.6006,-2.5234,0.0,0.0,0.0,0.0,0.0,0.0,0.0,0.0,0.0,0.0,0.0,0.0,0.0,0.0,0.0,0.0,0.0,0.0,0.0,0.0032,0.0,0.0,0.0,-0.1203,-0.3761,-0.391,-0.5265,-0.7811,-0.7911,-0.7985,-0.7988,-0.7988,-0.7988,-0.7988,-0.7988,-0.7988,-0.7988,-0.7988,-0.7904,-0.7804,-0.7658,-0.6781,-0.5464,-0.4143,-0.333,-0.3043,-0.3881,-0.4121,-0.4169,-0.5091,-0.5409,-0.5487,-0.5861,-0.6,0.0,-0.621,-0.6257,-0.6361,-0.661,-0.7754,-0.8743,-0.8101,-1.0087,-1.2006,-1.1478,-1.3775,-1.6115,-1.6486,-1.7786,-1.9092,-1.9693,-1.9806,-2.0007,-2.0608,-2.1423,-2.179,-2.1216,-2.1637,-2.1677,-2.0808,-2.0955,-2.1142,0.0,-2.2211,-2.302,-2.332,-2.334,-2.334,-2.334,-2.2772,-2.2438,-2.2432,-2.1871,-2.3177,-2.6389,-2.6158,-2.7632,-3.0889,-3.0889,-3.0889,-3.0869,-3.0889,-3.041,-2.9626,-2.9626,-2.9316,-2.8867,-2.8457,-2.8291,-2.8291,-2.8281,-2.7764,-2.7012,-2.7002,-2.6455,-2.5606,0.0,0.0,0.0,0.0,0.0,0.0,0.0,0.0,0.0,0.0,0.0,0.0,0.0,0.0,0.0,0.0,0.1465,0.1386,0.0093,0.0,0.0,0.0,0.0,-0.0811,-0.2582,-0.3425,-0.4739,-0.6479,-0.7336,-0.7746,-0.775,-0.7845,-0.7889,-0.7892,-0.7944,-0.7988,-0.7982,-0.788,-0.7858,-0.7763,-0.7221,-0.5961,-0.436,-0.4086,-0.3041,-0.1881,0.0,-0.3693,-0.3613,-0.404,-0.459,-0.4934,-0.4068,-0.4639,-0.5633,-0.5884,-0.624,-0.6597,-0.6797,-0.7633,-0.8501,-0.8361,-0.9344,-1.0587,-1.1557,-1.2642,-1.3781,-1.4708,-1.5348,-1.575,-1.5988,-1.708,-1.8148,-1.8699,-2.0246,-2.1336,-2.1136,-2.1617,-2.159,-2.0508,-2.0989,0.0,0.0,0.0,0.0,-2.2412,-2.2438,-2.2525,-2.2712,-2.2345,-2.2131,-2.2131,-2.1822,-2.3069,-2.6096,-2.6042,-2.7632,-3.0889,-3.0576,-3.043,-3.042,-3.0146,-2.9697,-2.9141,-2.9141,-2.8896,-2.8496,-2.835,-2.8291,-2.8232,-2.7666,-2.7275,-2.6943,-2.6327,-2.5937,-2.5625,0.0,0.0,0.0,0.0,0.0,0.0,0.0,0.0,0.0,0.0,0.0,0.0,0.0,0.0,0.0,0.0,0.0,0.1278,0.0092,0.0,0.0,0.0,0.0,-0.0721,-0.2283,-0.3133,-0.4329,-0.5852,-0.6784,-0.7197,-0.72,-0.74,-0.7495,-0.7502,-0.7604,-0.7671,-0.7661,-0.7513,-0.7465,-0.7363,-0.678,-0.5519,-0.3943,-0.4136,-0.3057,0.0,-0.2784,-0.3092,-0.2987,-0.3446,-0.3804,-0.3943,-0.3405,-0.4338,-0.5657,-0.5956,-0.6393,-0.6851,-0.716,-0.7784,-0.8408,-0.8712,-0.9096,-0.979,-1.0936,-1.1661,-1.2377,-1.3146,-1.3627,-1.3921,-1.3941,-1.5332,-1.6684,-1.727,-1.9114,-2.0561,-2.0768,-2.1122,-2.1116,-2.0468,-2.0895,-2.1015,0.0,0.0,0.0,-2.181,-2.183,-2.2004,-2.2398,-2.1944,-2.1817,-2.2131,-2.1657,-2.2961,-2.6105,-2.6042,-2.7632,-3.0889,-3.042,-3.0117,-2.9961,-2.9697,-2.9248,-2.8701,-2.8857,-2.8682,-2.8291,-2.8291,-2.8291,-2.8223,-2.7519,-2.7148,-2.6924,-2.623,-2.582,-2.5625,0.0,0.0,0.0,0.0,0.0,0.0,0.0,0.0,0.0,0.0,0.0,0.0,0.0,0.0,0.0,0.0,0.0,0.0,0.0093,0.0,0.0,0.0,0.0,-0.0883,-0.2778,-0.3003,-0.4019,-0.5895,-0.6295,-0.6477,-0.6484,-0.6742,-0.6839,-0.6846,-0.6987,-0.7051,-0.7041,-0.69,-0.68,-0.6637,-0.6368,-0.5433,-0.4208,-0.4182,-0.3356,-0.2248,-0.2434,-0.234,-0.2279,-0.3171,-0.3053,-0.2745,-0.3929,-0.509,-0.6084,-0.641,-0.6729,-0.7068,-0.7682,-0.8174,-0.8632,-0.9125,-0.9395,-0.9642,-0.9771,-1.0859,-1.1787,-1.1638,-1.2469,-1.3268,-1.3403,-1.4511,-1.5695,-1.6283,-1.811,-1.9599,-2.0214,-2.0253,-2.0421,0.0,0.0,0.0,0.0,0.0,0.0,-2.1614,0.0,-2.1777,-2.2345,-2.157,-2.1496,-2.2345,-2.155,-2.2776,-2.6356,-2.6272,-2.7811,-3.0889,-3.042,-2.9971,-2.9626,-2.9607,-2.9082,-2.831,-2.8711,-2.8662,-2.8291,-2.8291,-2.8281,-2.8223,-2.7793,-2.7363,-2.6934,-2.6514,-2.6094,-2.5625,0.0,0.0,0.0,0.0,0.0,0.0,0.0,0.0,0.0,0.0,0.0,0.0,0.0,0.0,0.0,0.0,0.0,0.0,0.0064,0.0,0.0,0.0,0.0,-0.0491,-0.1545,-0.2462,-0.3453,-0.4518,-0.5514,-0.5973,-0.5976,-0.6169,-0.6219,-0.6225,-0.6417,-0.6485,-0.6474,-0.6322,-0.6198,-0.6118,-0.563,-0.4934,-0.4155,-0.3875,-0.3189,-0.2416,-0.248,-0.2002,-0.1432,-0.1653,-0.2267,-0.3262,-0.4977,-0.6005,-0.6566,-0.6756,-0.7216,-0.7766,-0.8082,-0.8642,-0.9208,-0.9435,-0.9551,-0.9588,-0.951,-0.9719,-0.98,-0.9286,-0.9516,-0.9683,-0.9349,-1.1803,-1.4137,-1.4953,-1.7679,0.0,-2.1076,-2.1403,0.0,-2.1407,0.0,-2.1804,-2.1434,-2.159,0.0,0.0,-2.147,-2.1383,-2.1757,-2.1349,-2.1316,-2.1757,-2.1343,-2.2738,-2.6055,-2.8471,-3.0089,-3.0889,-3.042,-2.9971,-2.9616,-2.9238,-2.8799,-2.8301,-2.8408,-2.8389,-2.8291,-2.8291,-2.8105,-2.7783,-2.7353,-2.6924,-2.6494,-2.6064,-2.5781,-2.5625,0.0,0.0,0.0,0.0,0.0,0.0,0.0,0.0,0.0,0.0,0.0,0.0,0.0,0.0,0.0,0.0,0.0,0.0,0.0,0.0,0.0,0.0,0.0,-0.0537,-0.1704,-0.2376,-0.3273,-0.4396,-0.507,-0.5416,-0.5416,-0.5531,-0.5636,-0.5739,-0.5863,-0.5975,-0.6078,-0.5755,-0.5676,0.0,0.0,-0.4624,-0.4015,-0.3763,-0.2943,-0.1901,-0.1956,-0.1684,0.0,0.0,0.0,-0.4115,-0.5354,-0.634,-0.7037,-0.7251,-0.775,-0.8282,-0.8503,-0.9011,-0.9503,-0.9588,-0.9608,-0.9551,-0.9334,-0.9167,-0.8889,-0.8292,-0.8286,-0.8269,-0.7882,-1.0588,-1.3148,0.0,0.0,0.0,-2.0788,-2.1223,-2.1496,0.0,-2.2144,0.0,-2.179,-2.2004,-2.2124,0.0,-2.1563,-2.143,-2.1789,-2.1343,-2.1243,-2.1608,-2.1263,-2.2334,-2.4901,-2.746,-2.8733,-2.8733,-2.8797,-2.8738,-2.8502,-2.8588,-2.8516,-2.8291,0.0,-2.8193,-2.8027,-2.8223,-2.793,-2.7363,-2.7109,-2.6758,-2.6338,-2.5849,-2.5693,-2.5625,0.0,0.0,0.0,0.0,0.0,0.0,0.0,0.0,0.0,0.0,0.0,0.0,0.0,0.0,0.0,0.0,0.0,0.0,0.0,0.0,0.0,0.0,0.0,-0.0739,-0.2274,-0.2427,-0.3225,-0.4732,-0.4857,-0.4887,-0.4891,-0.5012,-0.5172,-0.5337,-0.5337,-0.5481,-0.5657,-0.5235,-0.5257,-0.5467,-0.5077,-0.447,-0.3781,0.0,0.0,0.0,-0.113,0.0,0.0,0.0,-0.4124,-0.5052,-0.5515,-0.6518,-0.7516,-0.7814,-0.8204,-0.8608,-0.8913,-0.9296,-0.9615,-0.9632,-0.9595,-0.9473,-0.9245,-0.8967,-0.8605,-0.8049,-0.8102,-0.8123,-0.7834,-1.0149,-1.2395,-1.3262,0.0,-1.8401,-2.0073,-2.0608,-2.1102,-2.1944,-2.2298,-2.2378,-2.2124,-2.2331,-2.2372,-2.2118,-2.1862,-2.1769,-2.1917,-2.1443,-2.1269,-2.1554,-2.149,-2.216,-2.3574,-2.52,-2.5976,-2.6029,-2.655,-2.6893,-2.7104,-2.7718,-2.8121,-2.8291,-2.8291,-2.8057,-2.7748,-2.8057,-2.7705,-2.6934,-2.6934,-2.667,-2.626,-2.583,-2.5693,-2.5625,0.0,0.0,0.0,0.0,0.0,0.0,0.0,0.0,0.0,0.0,0.3782,0.4184,0.0,0.0,0.0,0.0,0.0,0.0,0.0,0.0,0.0,0.0,0.0,-0.0432,-0.1322,-0.209,-0.295,-0.3839,-0.4549,-0.4887,-0.4887,-0.4914,-0.4938,-0.4996,-0.4996,-0.5026,-0.5036,-0.4958,-0.4955,-0.503,-0.4921,-0.447,-0.3717,0.0,0.0,0.0,0.0,0.0,0.0,-0.3052,-0.4353,-0.5521,-0.6675,-0.7419,-0.798,-0.8279,-0.8598,-0.8927,-0.9225,-0.9452,-0.9639,-0.9754,-0.9507,-0.9188,-0.9015,-0.8517,0.0,0.0,-0.779,-0.7838,-0.7668,-0.9339,-1.1466,-1.3622,-1.5548,-1.7715,-2.0522,-2.1216,-2.1637,0.0,-2.2605,-2.2766,-2.2719,-2.2759,0.0,0.0,-2.2211,-2.1824,-2.1702,-2.1594,-2.139,-2.1189,-2.2495,-2.3325,-2.3574,-2.52,-2.5976,-2.5968,-2.5486,-2.5898,-2.7095,-2.6692,-2.7159,-2.8291,-2.8291,0.0,-2.7728,-2.7796,-2.7266,-2.6494,-2.6494,-2.623,-2.5791,-2.5713,-2.5693,-2.5625,0.0,0.0,0.0,0.0,0.0,0.0,0.0,0.2701,0.2717,0.2686,0.2656,0.2592,0.2584,0.1809,0.0,0.0,0.0,0.0,0.0,0.0,0.0,0.0,0.0,0.0,0.0,-0.1641,-0.2508,-0.3793,0.0,-0.4556,-0.4999,-0.4924,-0.4928,-0.4995,-0.4921,-0.5003,-0.5138,-0.4986,-0.5006,-0.511,-0.4552,-0.3898,0.0,0.0,0.0,0.0,0.0,0.0,0.0,0.0,-0.3876,-0.5513,-0.7021,-0.7801,-0.8204,-0.8418,-0.875,-0.91,-0.932,-0.9605,-0.9819,-0.9734,-0.949,-0.9171,-0.8788,0.0,0.0,0.0,-0.7655,-0.7743,-0.7522,-0.9065,0.0,-1.2049,-1.4265,-1.6653,-1.905,-2.0103,-2.1082,-2.2278,-2.2545,-2.2692,0.0,-2.2928,-2.2799,-2.2645,-2.2372,-2.2084,-2.1797,-2.149,-2.1256,-2.1116,-2.1853,-2.2278,-2.2278,-2.3062,-2.3407,-2.3228,-2.3515,-2.3938,-2.4483,-2.4734,-2.527,-2.5945,-2.5945,-2.6044,-2.6205,-2.6411,-2.6317,-2.6074,-2.6299,-2.6123,-2.5693,-2.5693,-2.5693,-2.5654,0.0,0.0,0.0,0.0,0.0,0.0,0.0,0.213,0.2115,0.2135,0.149,0.1036,0.1021,0.1015,0.0744,0.0,0.0,0.0,0.0,0.0,0.0,0.0,0.0,0.0,0.0,0.0,0.0,-0.3411,-0.3696,0.0,0.0,0.0,0.0,0.0,-0.449,-0.4562,-0.4809,-0.4728,-0.4858,0.0,0.0,-0.3377,0.0,0.0,0.0,0.0,0.0,0.0,0.0,0.0,-0.3049,-0.4694,-0.6296,-0.742,-0.8201,-0.8133,-0.8639,-0.9251,-0.9381,-0.971,-0.9883,-0.9713,-0.9469,-0.9154,-0.8645,-0.8228,0.0,-0.7492,-0.7604,-0.7702,-0.7502,-0.8788,-1.0037,0.0,-1.2689,-1.5053,-1.7331,-1.862,-2.0088,0.0,-2.2291,0.0,-2.2739,-2.2712,0.0,-2.2345,-2.2265,-2.2131,-2.1904,-2.1396,-2.1109,-2.1109,-2.1109,-2.1109,-2.1109,-2.1049,-2.0902,-2.073,-2.1498,-2.1935,-2.2057,-2.2916,-2.3487,-2.3822,-2.3747,-2.3942,0.0,-2.4941,-2.5186,-2.5352,-2.5907,-2.5957,-2.5674,-2.5586,-2.5606,-2.5674,0.0,0.0,0.0,0.0,0.0,0.0,0.0,0.0246,0.0248,0.0254,0.0182,0.0108,0.0105,0.0105,0.0104,0.0,0.0,0.0,0.0,0.0,0.0,0.0,0.0,0.0,0.0,0.0,0.0,-0.1541,-0.317,0.0,0.0,0.0,0.0,0.0,0.0,-0.2932,-0.3011,-0.3761,0.0,0.0,0.0,0.0,0.0,0.0,0.0,0.0,0.0,0.0,0.0,0.0,0.0,-0.2493,-0.3756,-0.5865,-0.7736,-0.7077,0.0,0.0,-0.951,-0.971,-0.9836,-0.9808,-0.9388,-0.8875,-0.8733,0.0,-0.7628,-0.7587,-0.76,-0.7651,-0.775,-0.8024,-0.8794,-1.057,-1.1122,-1.266,-1.6531,-1.7598,-1.8875,-2.1354,0.0,0.0,-2.2432,-2.2225,0.0,-2.2031,-2.1777,-2.1688,-2.1655,-2.1289,-2.1109,-2.1109,-2.1109,-2.1109,-2.1109,-2.0848,-2.0702,-2.0668,-2.0288,-2.0739,-2.1998,-2.1842,-2.254,-2.3805,-2.3538,-2.322,0.0,-2.3988,-2.4207,-2.3962,-2.4871,-2.542,-2.5635,-2.5283,-2.5391,-2.5635,0.0,0.0,0.0,0.0,0.0,0.0,0.0,0.0,0.0,0.0,0.0,0.0,0.0,0.0,0.0,0.0,0.0,0.0,0.0,0.0,0.0,0.0,0.0,0.0,0.0,0.0,-0.0772,-0.1307,-0.2009,0.0,0.0,0.0,0.0,0.0,0.0,-0.2711,-0.2744,-0.3613,0.0,0.0,0.0,0.0,0.0,0.0,0.0,0.0,0.0,0.0,-0.0071,0.0,0.0,0.0,-0.158,-0.3225,0.0,0.0,-0.7113,-0.8063,-0.9054,-0.9639,-0.9832,-0.9625,-0.931,-0.8981,-0.8648,0.0,-0.7624,-0.7709,-0.7658,-0.759,-0.7553,-0.7818,-0.8216,-0.8833,-0.9538,0.0,-1.3217,-1.427,-1.6,-1.9199,-1.9701,0.0,0.0,0.0,-2.1911,-2.1802,-2.145,-2.1289,-2.1289,-2.1169,-2.1109,-2.1109,-2.0942,-2.0848,-2.0848,-2.0555,-2.0321,-2.0147,-1.9913,-2.0047,-2.0431,-2.0312,-2.0594,-2.1137,-2.0815,-2.0976,0.0,-2.1671,-2.2554,-2.3723,-2.411,-2.4868,-2.5635,-2.5234,-2.5176,-2.5312,0.0,0.0,0.0,0.0,0.0,0.0,0.0,0.0,0.0,0.0,0.0,0.0,0.0,0.0,0.0,0.0,0.0,0.0,0.0,0.0,0.0,0.0,0.0,0.0,0.0,0.0,-0.0304,-0.0917,-0.1188,-0.1493,0.0,0.0,-0.2161,-0.191,0.0,0.0,0.0,0.0,0.0,0.0,0.0,0.0,0.0,0.0,0.0,0.0,0.0,0.0,0.0,0.0,0.0,0.0,0.0,0.0,0.0,0.0,-0.6147,-0.7127,-0.8621,-0.9395,-0.972,-0.9449,-0.9201,-0.8982,0.0,0.0,-0.7641,-0.778,-0.7699,-0.7594,-0.7573,-0.7828,-0.7921,-0.7763,0.0,-0.9533,-1.0967,-1.1878,-1.3562,0.0,0.0,-1.8618,0.0,-2.1422,-2.1643,-2.1436,-2.1229,0.0,-2.1109,-2.1029,-2.0982,-2.0982,-2.0695,-2.0548,-2.0548,-2.0254,-2.0,-1.98,-1.9713,-1.9566,-1.9424,-1.9279,-1.9239,-1.9219,-1.8831,-1.9078,0.0,-1.9909,-2.0964,-2.255,-2.3086,-2.3968,-2.487,-2.4751,-2.4766,-2.4873,0.0,0.0,0.0,0.0,0.0,0.0,0.0,0.0,0.0,0.0,0.0,0.0,0.0,0.0,0.0,0.0,0.0,0.0,0.0,0.0,0.0,0.0,0.0,0.0,0.0,0.0,0.0,0.0,-0.0874,-0.0874,-0.0035,-0.0909,-0.0862,-0.0034,0.0,0.0,0.0,0.0,0.0,0.0,0.0,0.0,0.0,0.0,0.0,0.0,0.0,0.0,0.0,0.0,0.0,0.0,0.0,0.0,0.0,0.0,-0.5215,-0.6813,-0.8322,-0.8933,-0.9255,-0.9344,-0.9045,-0.8672,0.0,-0.8024,-0.7641,-0.778,-0.7699,-0.7689,-0.7931,-0.7985,-0.7988,-0.7985,-0.7985,0.0,-1.0656,-1.1125,0.0,0.0,0.0,-1.7029,-1.821,-2.0007,-2.1116,-2.1116,-2.1109,0.0,-2.1109,-2.0842,-2.0681,-2.0681,-2.0394,-2.0234,-2.0234,-1.9947,-1.9806,-1.98,-1.9506,-1.943,-1.9417,-1.9065,-1.8925,-1.8891,0.0,0.0,0.0,-1.9157,-1.9635,-1.9817,-2.171,-2.2667,-2.3103,-2.3645,-2.4062,-2.4424,0.0,0.0,0.0,0.0,0.0,0.0,0.0,0.0,0.0,0.0,0.0,0.0,0.0,0.0,0.0,0.0,0.0,0.0,0.0,0.0,0.0,0.0,0.0,0.0,0.0,0.0,0.0,0.0,-0.0281,-0.0283,0.0,-0.0288,-0.0248,0.0,0.0,0.0,0.0,0.0,0.0,0.0,0.0,0.0,0.0,0.0,0.0,0.0,0.0,0.0,0.0,0.0,0.0,0.0,0.0,0.0,0.0,-0.2006,-0.3095,0.0,-0.7298,-0.7813,-0.7651,-0.8471,-0.8516,-0.8343,-0.8082,-0.7804,-0.7641,-0.778,-0.7699,-0.7658,-0.7848,-0.7921,-0.7955,-0.7899,-0.7921,0.0,0.0,0.0,0.0,-1.4337,-1.7612,-1.9788,0.0,0.0,-2.1029,-2.0828,-2.0995,0.0,-2.0535,-2.0421,-2.0468,-2.0668,-2.0194,-1.994,-1.994,-1.9646,-1.9506,-1.9499,-1.9205,-1.9065,-1.9052,-1.8764,-1.8631,0.0,0.0,0.0,0.0,-1.8172,-1.869,-1.9378,-1.9959,-2.072,-2.1456,-2.1334,-2.1895,-2.2769,0.0,0.0,0.0,0.0,0.0,0.0,0.0,0.0,0.0,0.0,0.0,0.0,0.0,0.0,0.0,0.0,0.0,0.0,0.0,0.0,0.0,0.0,0.0,0.0,0.0,0.0,0.0,0.0,0.0,0.0,0.0,0.0,0.0,0.0,0.0,0.0,0.0,0.0,0.0,0.0,0.0,0.0,0.0,0.0,0.0,0.0,0.0,0.0,0.0,0.0,0.0,0.0,0.0,0.0,0.0,0.0,-0.1635,-0.2273,-0.5504,-0.6394,-0.6629,-0.7373,-0.7834,0.0,0.0,-0.7655,-0.7553,-0.7702,-0.7614,-0.7577,-0.7773,-0.7889,-0.7874,-0.7828,-0.7891,0.0,0.0,0.0,0.0,-1.3927,0.0,0.0,0.0,-2.0815,-2.0869,0.0,0.0,0.0,-2.0193,-2.0127,-2.0154,-2.0341,-1.9887,-1.9639,-1.9639,-1.9345,-1.9199,-1.9199,-1.8898,-1.8764,-1.8751,-1.8457,-1.8323,0.0,0.0,0.0,0.0,-1.7502,-1.775,-1.8304,-1.8629,-1.9179,-1.9806,-1.9865,-2.039,-2.1142,0.0,0.0,0.0,0.0,0.0,0.0,0.0,0.0,0.0,0.0,0.0,0.0,0.0,0.0,0.0,0.0,0.0,0.0,0.0,0.0,0.0,0.0,0.0,0.0,0.0,0.0,0.0,0.0,0.0,0.0,0.0,0.0,0.0,0.0,0.0,0.0,0.0,0.0,0.0,0.0,0.0,0.0,0.0,0.0,0.0,0.0,0.0,0.0,0.0,0.0,0.0,0.0,0.0,0.0,0.0,0.0,0.0,0.0,0.0,-0.4701,-0.579,-0.6155,-0.6942,-0.7681,-0.7719,-0.756,0.0,-0.7553,-0.7468,-0.7461,-0.7756,-0.7801,-0.7801,-0.7824,-0.7887,0.0,0.0,-0.9135,0.0,0.0,-1.5856,0.0,-1.9503,-2.0172,0.0,0.0,0.0,0.0,-2.0174,-1.9933,-1.978,-1.974,-1.9472,-1.9332,-1.9332,-1.9045,-1.8891,-1.8885,-1.8597,-1.8444,-1.8417,-1.8062,-1.7916,0.0,0.0,0.0,0.0,-1.7166,-1.6991,-1.6746,-1.762,-1.7964,-1.8048,-1.8929,-1.9314,-1.9542,0.0,0.0,0.0,0.0,0.0,0.0,0.0,0.0,0.0,0.0,0.0,0.0,0.0,0.0,0.0,0.0,0.0,0.0,0.0,0.0,0.0,0.0,0.0,0.0,0.0,0.0,0.0,0.0,0.0,0.0,0.0,0.0,0.0,0.0,0.0,0.0,0.0,0.0,0.0,0.0,0.0,0.0,0.0,0.0,0.0,0.0,0.0,0.0,0.0,0.0,0.0,0.0,0.0,0.0,0.0,0.0,-0.02,-0.0123,-0.075,0.0,-0.3227,-0.5122,-0.5885,-0.6328,0.0,0.0,0.0,0.0,0.0,0.0,0.0,-0.7723,-0.7723,-0.7901,0.0,0.0,-0.8364,0.0,0.0,-1.4095,-1.5292,-1.6458,-1.7811,-1.8324,0.0,0.0,0.0,-2.004,-1.9593,-1.972,-1.9593,-1.9145,-1.9065,-1.9025,-1.9025,-1.8738,-1.8591,-1.8591,-1.8297,-1.8023,-1.7782,-1.7548,-1.7235,0.0,0.0,0.0,-1.6807,-1.6807,-1.664,-1.6415,-1.6634,-1.656,-1.6388,-1.6588,-1.7304,-1.8319,0.0,0.0,0.0,0.0,0.0,0.0,0.0,0.0,0.0,0.0,0.0,0.0,0.0,0.0,0.0,0.0,0.0,0.0,0.0,0.0,0.0,0.0,0.0,0.0,0.0,0.0,0.0,0.0,0.0,0.0,0.0,0.0,0.0,0.0,0.0,0.0,0.0,0.0,0.0,0.0,-0.0553,0.0,0.0,0.0,0.0,0.0,0.0,0.0,0.0,0.0,0.0,0.0,0.0,0.0,0.0,0.0,0.0,0.0,0.0,-0.0881,-0.2129,-0.3424,-0.4652,-0.566,-0.6177,-0.6799,0.0,0.0,0.0,0.0,0.0,-0.7546,0.0,0.0,-0.7824,0.0,0.0,0.0,-1.2545,-1.3418,-1.446,-1.5489,0.0,0.0,0.0,0.0,0.0,-1.8406,-1.8109,-1.8769,-1.9052,-1.8738,-1.8591,-1.8535,-1.8724,-1.843,-1.829,-1.8283,-1.7842,-1.7549,-1.7427,-1.7132,-1.6854,0.0,0.0,0.0,-1.6506,-1.6506,-1.6333,-1.6072,-1.6072,-1.5972,-1.5784,-1.5784,-1.6251,-1.699,0.0,0.0,0.0,0.0,0.0,0.0,0.0,0.0,0.0,0.0,0.0,0.0,0.0,0.0,0.0,0.0,0.0,0.0,0.0,0.0,0.0,0.0,0.0,0.0,0.0,0.0,0.0,0.0,0.0,0.0,0.0,0.0,0.0,0.0,0.0,0.0,0.0,0.0,-0.0822,-0.0073,-0.0979,0.0,0.0,0.0,0.0,0.0,0.0,0.0,0.0,0.0,0.0,0.0,0.0,0.0,0.0,0.0,0.0,0.0,0.0,-0.0752,-0.1554,-0.1775,-0.3343,-0.4956,-0.5314,-0.616,-0.6871,0.0,0.0,0.0,0.0,-0.7415,0.0,0.0,0.0,0.0,-0.8516,-1.0727,-1.2105,-1.1803,-1.2961,0.0,0.0,0.0,0.0,0.0,0.0,-1.6115,-1.6115,-1.741,-1.8125,-1.8079,-1.8067,-1.8143,-1.835,-1.8103,-1.7902,-1.7849,-1.7395,-1.7152,-1.7058,-1.6754,-1.6613,-1.6573,0.0,0.0,-1.6206,-1.6206,-1.6059,-1.5784,-1.5784,-1.5784,-1.5784,-1.5784,-1.5784,-1.5967,0.0,0.0,0.0,0.0,0.0,0.0,0.0,0.0,0.0,0.0,0.0,0.0,0.0,0.0,0.0,0.0,0.0,0.0,0.0,0.0,0.0,0.0,0.0,0.0,0.0,0.0,0.0,0.0,0.0,0.0,0.0,0.0,0.0,0.0,0.0,0.0,0.0,-0.0187,-0.0151,0.0,-0.0193,0.0,0.0,0.0,0.0,0.0,0.0,0.0,0.0,0.0,0.0,0.0,0.0,0.0,0.0,0.0,0.0,0.0,0.0,-0.0123,-0.051,-0.1554,-0.207,-0.2906,-0.4912,-0.5536,-0.5938,0.0,0.0,0.0,0.0,-0.7415,-0.7461,0.0,0.0,-0.8453,0.0,0.0,-0.9754,-0.9845,0.0,0.0,0.0,0.0,0.0,0.0,0.0,-1.4483,-1.4483,-1.5867,-1.6543,-1.632,-1.7399,-1.7943,-1.7722,-1.7675,-1.7528,-1.734,-1.7246,-1.6938,-1.6455,-1.6359,-1.6199,-1.5917,0.0,-1.5891,-1.5899,-1.5899,-1.5872,-1.5784,-1.5784,-1.5784,-1.5784,-1.5784,-1.5784,-1.5967,0.0,0.0,0.0,0.0,0.0,0.0,0.0,0.0,0.0,0.0,0.0,0.0,0.0,0.0,0.0,0.0,0.0,0.0,0.0,0.0,0.0,0.0,0.0,0.0,0.0,0.0,0.0,0.0,0.0,0.0,0.0,0.0,0.0,0.0,0.0,0.0,0.0,0.0,0.0,0.0,0.0,0.0,0.0,0.0,0.0,0.0,0.0,0.0,0.0,0.0,0.0,0.0,0.0,0.0,0.0,0.0,0.0,0.0,0.0,0.0,-0.0127,-0.0681,-0.1791,-0.3217,-0.5001,-0.5891,-0.647,0.0,0.0,0.0,0.0,0.0,-0.7495,-0.7872,0.0,-0.8479,-0.8808,-0.8845,-0.8876,0.0,0.0,0.0,0.0,0.0,0.0,0.0,0.0,0.0,-1.2357,-1.3652,-1.4663,-1.5287,-1.5928,-1.6561,-1.7108,-1.7108,-1.7121,-1.7199,-1.6878,-1.6583,-1.6266,-1.6106,-1.5959,-1.5784,0.0,-1.5784,-1.5784,-1.5784,-1.5784,-1.5784,-1.5784,-1.5784,-1.5784,-1.5784,-1.5784,-1.5967,0.0,0.0,0.0,0.0,0.0,0.0,0.0,0.0,0.0,0.0,0.0,0.0,0.0,0.0,0.0,0.0,0.0,0.0,0.0,0.0,0.0,0.0,0.0,0.0,0.0,0.0,0.0,0.0,0.0,0.0,0.0,0.0,0.0,0.0,0.0,0.0,0.0,0.0,0.0,0.0,0.0,0.0,0.0,0.0,0.0,0.0,0.0,0.0,0.0,0.0,0.0,0.0,0.0,0.0,0.0,0.0,0.0,0.0,0.0,0.0,-0.0084,-0.0334,-0.1598,-0.3175,-0.4672,-0.571,-0.648,-0.7103,0.0,0.0,0.0,-0.7322,0.0,-0.8021,-0.8313,-0.852,-0.8625,-0.8638,-0.874,-0.9008,0.0,0.0,0.0,0.0,0.0,0.0,0.0,0.0,-1.0347,-1.1609,-1.2756,-1.3824,-1.4185,-1.4951,-1.6242,-1.6171,-1.6406,-1.6991,-1.6536,-1.6239,-1.6159,-1.5932,-1.5784,-1.5784,-1.5784,-1.5784,-1.5784,-1.5784,-1.5784,-1.5784,-1.5784,-1.5784,-1.5784,-1.5784,-1.5784,-1.592,0.0,0.0,0.0,0.0,0.0,0.0,0.0,0.0,0.0,0.0,0.0,0.0,0.0,0.0,0.0,0.0,0.0,0.0,0.0,0.0,0.0,0.0,0.0,0.0,0.0,0.0,0.0,0.0,0.0,0.0,0.0,0.0,0.0,0.0,0.0,0.0,0.0,0.0,0.0,0.0,0.0,0.0,0.0,0.0,0.0,0.0,0.0,0.0,0.0,0.0,0.0,0.0,0.0,0.0,0.0,0.0,0.0,0.0,0.0,0.0,-0.0285,-0.1382,-0.0941,-0.0902,-0.3342,-0.3998,-0.471,-0.7063,-0.7567,0.0,0.0,-0.7482,-0.7729,-0.818,-0.8381,-0.8628,-0.9101,0.0,0.0,0.0,0.0,0.0,0.0,0.0,0.0,0.0,0.0,0.0,-0.8653,-1.0084,-1.0901,-1.1,-1.2243,-1.358,-1.4901,-1.4606,-1.5097,-1.6382,-1.6342,-1.6126,-1.5858,-1.5791,-1.5784,-1.5784,-1.5784,-1.5784,-1.5784,-1.5784,-1.5784,-1.5784,-1.5784,-1.5784,-1.5784,-1.5784,-1.5784,-1.5825,0.0,0.0,0.0,0.0,0.0,0.0,0.0,0.0,0.0,0.0,0.0,0.0,0.0,0.0,0.0,0.0,0.0,0.0,0.0,0.0,0.0,0.0,0.0,0.0,0.0,0.0,0.0,0.0,0.0,0.0,0.0,0.0,0.0,0.0,0.0,0.0,0.0,0.0,0.0,0.0,0.0,0.0,0.0,0.0,0.0,0.0,0.0,0.0,0.0,0.0,0.0,0.0,0.0,0.0,0.0,0.0,0.0,0.0,0.0,0.0,-0.0122,-0.0569,-0.0342,-0.0854,-0.415,-0.4977,-0.5526,-0.7135,-0.7604,0.0,0.0,0.0,-0.7929,-0.8099,-0.8408,-0.8652,0.0,0.0,0.0,0.0,0.0,0.0,0.0,0.0,0.0,0.0,0.0,0.0,-0.8211,-0.8704,-0.9404,-1.0251,-1.0802,-1.1701,-1.2985,-1.2844,-1.3046,-1.3588,-1.521,-1.5939,-1.5784,-1.5784,-1.5784,-1.5784,-1.5784,-1.5784,-1.5784,-1.5784,-1.5784,-1.5784,-1.5784,-1.5784,-1.5784,-1.5784,-1.5784,-1.5784,0.0,0.0,0.0,0.0,0.0,0.0,0.0,0.0,0.0,0.0,0.0,0.0,0.0,0.0,0.0,0.0,0.0,0.0,0.0,0.0,0.0,0.0,0.0,0.0,0.0,0.0,0.0,0.0,0.0,0.0,0.0,0.0,0.0,0.0,0.0,0.0,0.0,0.0,0.0,0.0,0.0,0.0,0.0,0.0,0.0,0.0,0.0,0.0,0.0,0.0,0.0,0.0,0.0,0.0,0.0,0.0,0.0,0.0,0.0,0.0,-0.008,-0.0437,-0.059,-0.1511,-0.4863,-0.5395,-0.5688,-0.7252,-0.7668,-0.7729,-0.7675,0.0,0.0,0.0,-0.8336,0.0,0.0,0.0,0.0,0.0,0.0,0.0,0.0,0.0,0.0,0.0,0.0,0.0,0.0,-0.7988,-0.8432,-0.9365,-0.9306,-0.9909,-1.1211,-1.1192,-1.135,-1.1781,-1.359,-1.4732,-1.5194,-1.5635,-1.5784,-1.5784,-1.5784,-1.5784,-1.5784,-1.5784,-1.5784,-1.5784,-1.5784,-1.5784,-1.5784,-1.5784,-1.5784,-1.5784,0.0,0.0,0.0,0.0,0.0,0.0,0.0,0.0,0.0,0.0,0.0,0.0,0.0,0.0,0.0,0.0,0.0,0.0,0.0,0.0,0.0,0.0,0.0,0.0,0.0,0.0,0.0,0.0,0.0,0.0,0.0,0.0,0.0,0.0,0.0,0.0,0.0,0.0,0.0,0.0,0.0,0.0,0.0,0.0,0.0,0.0,0.0,0.0,0.0,0.0,0.0,0.0,0.0,0.0,0.0,0.0,0.0,0.0,0.0,0.0,-0.0265,-0.1323,-0.1827,-0.2658,-0.507,-0.4752,-0.4751,-0.7427,-0.7756,-0.7645,-0.7784,-0.7699,0.0,-0.7941,-0.817,0.0,0.0,0.0,0.0,0.0,0.0,0.0,0.0,0.0,0.0,0.0,0.0,0.0,0.0,-0.7985,-0.7985,-0.7985,-0.7889,-0.8427,-0.9762,-0.9571,-1.0163,-1.1456,-1.1502,-1.2341,-1.392,-1.5194,-1.5778,-1.5778,-1.5778,-1.5784,-1.5784,-1.5784,-1.5784,-1.5784,-1.5784,-1.5784,-1.5784,-1.5784,-1.5784,-1.5784,0.0,0.0,0.0,0.0,0.0,0.0,0.0,0.0,0.0,0.0,0.0,0.0,0.0,0.0,0.0,0.0,0.0,0.0,0.0,0.0,0.0,0.0,0.0,0.0,0.0,0.0,0.0,0.0,0.0,0.0,0.0,0.0,0.0,0.0,0.0,0.0,0.0,0.0,0.0,0.0,0.0,0.0,0.0,0.0,0.0,0.0,0.0,0.0,0.0,0.0,0.0,0.0,0.0,0.0,0.0,0.0,0.0,0.0,0.0,-0.0533,-0.1207,-0.1621,-0.2435,0.0,0.0,-0.4893,0.0,0.0,-0.7293,-0.7763,-0.7804,-0.7865,0.0,-0.7882,-0.8099,0.0,0.0,0.0,0.0,0.0,0.0,0.0,0.0,0.0,0.0,0.0,0.0,0.0,0.0,-0.7729,-0.7729,-0.7729,-0.7685,-0.7851,-0.827,-0.8175,-0.838,-0.875,-0.9663,-1.0907,-1.2421,-1.3714,-1.4389,-1.4507,-1.5391,-1.5784,-1.5784,-1.5784,-1.5784,-1.5784,-1.5784,-1.5784,-1.5784,-1.5784,-1.5784,-1.5784,0.0,0.0,0.0,0.0,0.0,0.0,0.0,0.0,0.0,0.0,0.0,0.0,0.0,0.0,0.0,0.0,0.0,0.0,0.0,0.0,0.0,0.0,0.0,0.0,0.0,0.0,0.0222,0.0643,0.0227,0.0,0.0,0.0,0.0,0.0,0.0,0.0,0.0,0.0,0.0,0.0,0.0,0.0,0.0,0.0,0.0,0.0,0.0,0.0,0.0,0.0,0.0,0.0,0.0,0.0,-0.0073,-0.0425,-0.0502,-0.0624,-0.1026,-0.1655,-0.2334,-0.297,-0.3811,-0.4732,-0.5665,0.0,0.0,0.0,-0.7423,-0.7831,-0.7889,-0.7877,0.0,-0.7828,0.0,0.0,0.0,0.0,0.0,0.0,0.0,0.0,0.0,0.0,0.0,0.0,0.0,0.0,0.0,-0.7543,-0.7509,-0.7509,-0.7394,-0.736,-0.7417,-0.736,-0.736,-0.7417,-0.8177,-0.9038,-1.0054,-1.242,-1.3815,-1.4387,-1.527,-1.5658,-1.5665,-1.5785,-1.5784,-1.5784,-1.5784,-1.5784,-1.5784,-1.5784,-1.5784,-1.5784,0.0,0.0,0.0,0.0,0.0,0.0,0.0,0.0,0.0,0.0,0.0,0.0,0.0,0.0,0.0,0.0,0.0,0.0,0.0,0.0,0.0,0.0,0.0,0.0042,0.0174,0.0131,0.0694,0.1771,0.0694,0.0172,0.0295,0.0172,0.013,0.013,0.0044,0.0,0.0,0.0,0.0,0.0,0.0,0.0,0.0,0.0,0.0,0.0,0.0,0.0,0.0,0.0,0.0,0.0,0.0,0.0,-0.0141,-0.0942,-0.1223,-0.1507,-0.2521,-0.3021,-0.356,-0.4808,-0.5548,0.0,-0.6163,-0.7146,-0.7985,-0.7819,0.0,-0.7872,-0.7944,-0.7906,-0.7807,0.0,0.0,0.0,0.0,0.0,0.0,0.0,0.0,0.0,0.0,0.0,0.0,0.0,0.0,0.0,0.0,-0.7383,-0.7354,-0.7354,-0.7048,-0.6927,-0.7055,-0.693,-0.693,-0.7055,-0.7055,-0.7218,-0.7629,-1.1312,-1.3742,-1.5022,-1.5244,-1.5357,-1.5378,-1.5645,-1.5752,-1.5752,-1.5752,-1.5752,-1.5752,-1.5731,-1.5744,-1.5792,0.0,0.0,0.0,0.0,0.0,0.0,0.0,0.0,0.0,0.0,0.0,0.0,0.0,0.0,0.0,0.0,0.0,0.0,0.0,0.0,0.0,0.0,0.0,0.0434,0.1378,0.1313,0.1805,0.2953,0.1805,0.1671,0.2431,0.163,0.1246,0.1226,0.0383,0.0,0.0,0.0,0.0,0.0,0.0,0.0,0.0,0.0,0.0,0.0,0.0,0.0,0.0,0.0,0.0,0.0,0.0,0.0,-0.0036,-0.0241,-0.0769,-0.1369,-0.1766,-0.3101,0.0,-0.4966,-0.6166,-0.7291,-0.7527,-0.7816,-0.7707,-0.6654,-0.7236,-0.7914,-0.7875,-0.7834,-0.7773,0.0,0.0,0.0,0.0,0.0,0.0,0.0,0.0,0.0,0.0,0.0,0.0,0.0,0.0,0.0,-0.6898,-0.6861,-0.6844,-0.6844,-0.6783,-0.6763,-0.6797,-0.6766,-0.6766,0.0,-0.6797,-0.7266,-0.8266,-1.0533,-1.2787,-1.5015,-1.5075,-1.5102,-1.5109,-1.5169,-1.515,-1.515,-1.515,-1.515,-1.5223,-1.5404,-1.5491,-1.5524,0.0,0.0,0.0,0.0,0.0,0.0,0.0,0.0,0.0,0.0,0.0,0.0,0.0,0.0,0.0,0.0,0.0,0.0,0.0,0.0,0.0,0.0,0.0561,0.1146,0.1675,0.2222,0.294,0.3955,0.3376,0.3127,0.3215,0.2109,0.162,0.1661,0.0513,0.0,0.0,0.0,0.0,0.0,0.0,0.0,0.0,0.0,0.0,0.0,0.0,0.0,0.0,0.0,0.0,0.0,0.0,0.0,-0.0071,-0.0511,-0.0933,-0.1533,-0.2565,-0.3801,0.0,-0.5955,0.0,-0.7641,-0.7794,-0.7828,-0.7611,-0.6906,-0.7385,-0.7906,-0.7824,-0.7756,0.0,0.0,0.0,0.0,0.0,0.0,0.0,0.0,0.0,0.0,0.0,0.0,0.0,0.0,0.0,-0.6783,-0.6705,-0.663,-0.659,-0.659,-0.6525,-0.6522,-0.659,-0.659,-0.6627,-0.6702,-0.6702,-0.7308,-0.8451,-0.9971,-1.1761,-1.3633,-1.3767,-1.4215,-1.4763,-1.4948,-1.5008,-1.5008,-1.5008,-1.5008,-1.5028,-1.5182,-1.519,-1.5231,0.0,0.0,0.0,0.0,0.0,0.0,0.0,0.0,0.0,0.0,0.0,0.0,0.0,0.0,0.0,0.0,0.0,0.0,0.0,0.0,0.0,0.0251,0.1215,0.1887,0.2154,0.3131,0.4078,0.5017,0.4999,0.4655,0.3973,0.2536,0.1951,0.1993,0.0606,0.0,0.0,0.0,0.0,0.0,0.0,0.0,0.0,0.0,0.0,0.0,0.0,0.0,0.0,0.0,0.0,0.0,0.0,0.0,-0.014,-0.0847,-0.1193,-0.1665,-0.3309,-0.4313,-0.5301,-0.6928,-0.7411,0.0,-0.7587,-0.76,-0.76,-0.76,-0.7692,-0.7767,-0.774,0.0,0.0,0.0,0.0,0.0,0.0,0.0,0.0,0.0,0.0,0.0,0.0,0.0,0.0,0.0,0.0,-0.6651,-0.6627,-0.6545,-0.6474,-0.6474,-0.6361,-0.6358,-0.6474,-0.6474,-0.6538,-0.6624,-0.6624,-0.7104,-0.8064,-0.9079,-1.037,-1.1845,-1.2313,-1.312,-1.4145,-1.4621,-1.4861,-1.4861,-1.4861,-1.4861,-1.4861,-1.4914,-1.4928,-1.4981,0.0,0.0,0.0,0.0,0.0,0.0,0.0,0.0,0.0,0.0,0.0,0.0,0.0,0.0,0.0,0.0,0.0,0.0,0.0,0.0,0.0,0.1346,0.1545,0.2533,0.442,0.4497,0.5089,0.6271,0.6149,0.6204,0.6391,0.4006,0.2966,0.3029,0.0936,0.0,0.0,0.0,0.0,0.0,0.0,0.0,0.0,0.0,0.0,0.0,0.0,0.0,0.0,0.0,0.0,0.0,0.0,0.0,-0.0036,-0.0137,-0.0707,-0.1388,-0.1838,0.0,-0.5235,0.0,-0.7051,-0.7227,0.0,0.0,-0.76,0.0,-0.7614,-0.7587,0.0,0.0,0.0,0.0,0.0,0.0,0.0,0.0,0.0,0.0,0.0,0.0,0.0,0.0,0.0,0.0,-0.6542,-0.6491,-0.6364,-0.6337,-0.6327,-0.6327,-0.631,-0.631,-0.6327,-0.6327,-0.6337,-0.6358,-0.6358,-0.6436,-0.6588,-0.6744,-0.8209,-1.0695,-1.1738,-1.2326,-1.2686,-1.3786,-1.4202,-1.4202,-1.4202,-1.4202,-1.4235,-1.4482,-1.4583,-1.4656,0.0,0.0,0.0,0.0,0.0,0.0,0.0,0.0,0.0,0.0,0.0,0.0,0.0,0.0,0.0,0.0,0.0,0.0,0.0,0.0,0.0,0.1583,0.2775,0.3871,0.4767,0.5407,0.5949,0.6395,0.633,0.6488,0.684,0.5054,0.4411,0.4596,0.218,0.1113,0.1066,0.0322,0.0,0.0,0.0,0.0,0.0,0.0,0.0,0.0,0.0,0.0,0.0,0.0,0.0,0.0,0.0,0.0,0.0,0.0,-0.0272,-0.0833,-0.2094,-0.3548,-0.4998,0.0,-0.6783,-0.6929,-0.7065,-0.7224,-0.7319,-0.7241,-0.7224,0.0,0.0,0.0,0.0,0.0,0.0,0.0,0.0,0.0,0.0,0.0,0.0,0.0,0.0,0.0,0.0,0.0,-0.6395,-0.6364,-0.6303,-0.63,-0.6259,-0.6135,-0.6132,-0.6132,-0.6132,-0.6132,-0.6176,-0.63,-0.63,-0.63,-0.63,-0.63,-0.7348,-0.918,-0.9711,-1.0366,-1.1203,-1.2293,-1.2757,-1.2817,-1.352,-1.3841,-1.3874,-1.4168,-1.4282,-1.4335,0.0,0.0,0.0,0.0,0.0,0.0,0.0,0.0,0.0,0.0,0.0,0.0,0.0,0.0,0.0,0.0,0.0,0.0,0.0,0.0,0.0,0.2372,0.3958,0.4943,0.5098,0.5977,0.6405,0.63,0.63,0.6488,0.6886,0.5969,0.583,0.6194,0.359,0.243,0.227,0.1256,0.0673,0.0435,0.0433,0.0235,0.0,0.0,0.0,0.0,0.0,0.0,0.0,0.0,0.0,0.0,0.0,0.0,0.0,0.0,0.0,-0.0385,0.0,0.0,-0.4115,-0.5633,-0.6082,-0.6267,0.0,0.0,-0.691,0.0,0.0,0.0,0.0,0.0,0.0,0.0,0.0,0.0,0.0,0.0,0.0,0.0,0.0,0.0,0.0,0.0,0.0,0.0,-0.6184,-0.6184,-0.6184,-0.6184,-0.6091,-0.5939,-0.5936,-0.5952,-0.5993,-0.6067,-0.6146,-0.63,-0.63,-0.63,-0.63,-0.63,-0.6822,-0.7714,-0.8076,-0.8795,-0.9832,-1.0888,-1.1335,-1.1439,-1.266,-1.316,-1.3292,-1.3805,-1.4021,-1.4128,0.0,0.0,0.0,0.0,0.0,0.0,0.0,0.0,0.0,0.0,0.0,0.0,0.0,0.0,0.0,0.0,0.0,0.0,0.0,0.0,0.0,0.446,0.4662,0.0,0.6193,0.6271,0.6306,0.63,0.63,0.6488,0.6886,0.684,0.7103,0.7584,0.4899,0.3575,0.331,0.3185,0.2586,0.1695,0.1581,0.0902,0.0,0.0,0.0,0.0,0.0,0.0,0.0,0.0,0.0,0.0,0.0,0.0,0.0,0.0,0.0,0.0,0.0,-0.1576,0.0,-0.4114,-0.4691,-0.5087,0.0,0.0,0.0,0.0,0.0,0.0,0.0,0.0,0.0,0.0,0.0,0.0,0.0,0.0,0.0,0.0,0.0,0.0,0.0,0.0,0.0,0.0,-0.5827,-0.5827,-0.5827,-0.5827,-0.582,-0.5813,-0.5813,-0.5881,-0.599,-0.6176,-0.6293,-0.63,-0.63,-0.63,-0.63,-0.63,-0.6342,-0.6472,-0.7671,-0.8315,-0.8606,-0.9791,-1.0282,-1.0363,-1.1393,-1.1955,-1.23,-1.3279,-1.3848,-1.4128,0.0,0.0,0.0,0.0,0.0,0.0,0.0,0.0,0.0,0.0,0.0,0.0,0.0,0.1994,0.1994,0.1994,0.141,0.0,0.0,0.0,0.0,0.3632,0.5002,0.5906,0.63,0.63,0.63,0.63,0.63,0.648,0.6783,0.6783,0.6946,0.7148,0.5525,0.4809,0.474,0.3624,0.3033,0.2828,0.2644,0.2013,0.116,0.1065,0.0588,0.0,0.0,0.0,0.0,0.0,0.0,0.0,0.0,0.0,0.0,0.0,0.0,0.0,0.0,0.0,0.0,-0.3133,-0.4029,-0.4702,-0.5121,-0.5806,-0.6392,-0.6446,0.0,0.0,0.0,0.0,0.0,0.0,0.0,0.0,0.0,0.0,0.0,0.0,0.0,0.0,0.0,0.0,0.0,0.0,0.0,-0.4387,-0.5052,-0.5093,-0.5364,-0.5912,-0.585,-0.5783,-0.5749,-0.5895,-0.5966,-0.5966,-0.5966,-0.5966,-0.5966,-0.5966,-0.602,-0.6115,-0.6581,-0.6887,-0.7119,-0.8212,-0.8643,-0.8847,-1.0679,-1.1573,-1.1984,-1.316,-1.3793,-1.4102,0.0,0.0,0.0,0.0,0.0,0.0,0.0,0.0,0.0,0.316,0.0,0.0,0.0,0.0,0.3085,0.3085,0.2501,0.1957,0.1605,0.2852,0.3787,0.4178,0.555,0.63,0.63,0.6248,0.6248,0.63,0.6248,0.6335,0.6624,0.6624,0.6732,0.6883,0.609,0.5826,0.5881,0.476,0.4137,0.3877,0.3706,0.313,0.2264,0.1794,0.1196,0.0562,0.0159,0.0,0.0,0.0,0.0,0.0,0.0,0.0,0.0,0.0,0.0,0.0,-0.0706,0.0,0.0,0.0,0.0,-0.3585,-0.4234,0.0,-0.5707,0.0,0.0,0.0,0.0,0.0,0.0,0.0,0.0,0.0,0.0,0.0,0.0,0.0,0.0,0.0,0.0,0.0,0.0,0.0,0.0,0.0,-0.3999,-0.4029,-0.4447,-0.5292,-0.56,-0.5684,-0.5593,-0.5783,-0.5878,-0.5878,-0.5878,-0.5878,-0.5878,-0.5823,-0.5857,-0.5919,-0.5969,-0.6118,-0.6338,-0.7022,-0.7288,-0.7526,-0.9689,-1.0751,-1.1243,-1.2851,-1.3646,-1.3955,0.0,0.0,0.0,0.0,0.0,0.0,0.0,0.0,0.4215,0.3312,0.0,0.0,0.0,0.0,0.0,0.3163,0.3163,0.3591,0.4569,0.4686,0.5157,0.6222,0.0,0.0,0.63,0.6112,0.6108,0.63,0.6108,0.6183,0.6504,0.6504,0.6627,0.6859,0.6603,0.6556,0.6695,0.6688,0.6031,0.4934,0.4815,0.4242,0.3322,0.2149,0.1767,0.1669,0.0532,0.0081,0.004,0.0039,0.0,0.0,0.0,0.0,0.0,0.0,0.0,0.0,0.0,0.0,0.0,0.0,0.0,0.0,-0.3676,0.0,-0.4458,0.0,0.0,0.0,0.0,0.0,0.0,0.0,0.0,0.0,0.0,0.0,0.0,0.0,0.0,0.0,0.0,0.0,0.0,0.0,-0.2614,-0.2647,-0.2651,-0.2694,-0.3114,-0.395,-0.5004,-0.5561,-0.5555,-0.5838,-0.5976,-0.5973,-0.5973,-0.5973,-0.5969,-0.5857,-0.5793,-0.581,-0.5922,-0.6112,-0.63,-0.63,-0.63,-0.649,-0.8466,-0.9433,-0.9925,-1.2293,-1.3313,-1.3605,0.0,0.0,0.0,0.0,0.0,0.0,0.5886,0.5813,0.5724,0.0,0.0,0.0,0.5428,0.5434,0.5118,0.4334,0.4256,0.4062,0.3591,0.4256,0.4844,0.5118,0.5906,0.63,0.63,0.6255,0.6255,0.63,0.6255,0.6279,0.6358,0.6358,0.646,0.6597,0.6552,0.6535,0.6569,0.6467,0.6318,0.6201,0.5962,0.5365,0.4584,0.4037,0.3367,0.2707,0.2373,0.1779,0.1146,0.0,0.0649,0.0,0.0,0.0,0.0,0.0,0.0,0.0,0.0,0.0,0.0,0.0,0.0,0.0,0.0,0.0,0.0,0.0,0.0,0.0,0.0,0.0,0.0,0.0,0.0,0.0,0.0,0.0,0.0,0.0,0.0,0.0,0.0,0.0,0.0,0.0,-0.0732,-0.1071,-0.1868,-0.2603,-0.3045,-0.3215,-0.4242,-0.4676,-0.4431,-0.5278,-0.5657,-0.5579,-0.5579,-0.5579,-0.5579,-0.5535,-0.5634,-0.5803,-0.5844,-0.6013,-0.63,-0.63,-0.63,-0.6416,-0.7706,-0.8396,-0.8906,-1.1243,-1.228,-1.2674,0.0,0.0,0.0,0.0,0.0,0.6388,0.6388,0.6388,0.6368,0.0,0.0,0.0,0.63,0.6354,0.6123,0.5437,0.5354,0.5118,0.4491,0.5002,0.5354,0.5354,0.5983,0.63,0.63,0.6235,0.6235,0.63,0.6235,0.6235,0.63,0.63,0.6344,0.6422,0.6422,0.6422,0.6419,0.6334,0.6399,0.6502,0.6368,0.6037,0.5592,0.4965,0.4346,0.0,0.0,0.0,0.233,0.2245,0.1541,0.0,0.0,0.0,0.0,0.0,0.0,0.0,0.0,0.0,0.0,0.0,0.0,0.0,-0.17,-0.2322,0.0,0.0,0.0,0.0,0.0,0.0,0.0,0.0,0.0,0.0,0.0,0.0,0.0,0.0,0.0,0.0,0.0,0.0,0.0,0.0,0.0,-0.029,-0.0887,-0.1841,-0.2309,-0.2227,-0.3207,-0.3873,-0.4079,-0.4718,-0.5212,-0.5579,-0.5518,-0.5491,-0.5487,-0.5426,-0.5487,-0.5623,-0.5684,-0.585,-0.6112,-0.6139,-0.6242,-0.6412,-0.7403,-0.7889,-0.8277,-1.0177,-1.1008,-1.1372,0.0,0.0,0.0,0.6532,0.6521,0.6518,0.6535,0.6521,0.6474,0.0,0.6351,0.6351,0.6351,0.6446,0.6467,0.6358,0.632,0.6306,0.6323,0.631,0.63,0.63,0.63,0.63,0.63,0.6125,0.6122,0.63,0.6122,0.6125,0.63,0.63,0.63,0.63,0.63,0.63,0.63,0.63,0.63,0.63,0.63,0.6385,0.6388,0.5285,0.4943,0.4935,0.3857,0.3513,0.3512,0.3209,0.2424,0.0,0.0,0.0,0.0,0.0,0.0,0.0,0.0,0.0,0.0,0.0,0.0,0.0,-0.2017,-0.2397,-0.2893,0.0,0.0,0.0,0.0,0.0,0.0,0.0,0.0,0.0,0.0,0.0,0.0,0.0,0.0,0.0,0.0,0.0,0.0,0.0,0.0,0.0,0.0,-0.0742,-0.1148,-0.1175,-0.2076,-0.2997,-0.3864,-0.4118,-0.4692,-0.5617,-0.5622,-0.5589,-0.5586,-0.5467,-0.5402,-0.5429,-0.5566,-0.5671,-0.5813,-0.5929,-0.6122,-0.6377,-0.7288,-0.7629,-0.7804,-0.9077,-0.9627,-0.9938,0.0,0.0,0.6416,0.6614,0.6556,0.6555,0.6637,0.6552,0.6549,0.6603,0.6614,0.6614,0.6614,0.6529,0.6552,0.6607,0.6436,0.6347,0.6463,0.6364,0.63,0.63,0.63,0.63,0.63,0.6269,0.6269,0.63,0.6269,0.6269,0.63,0.63,0.63,0.63,0.63,0.63,0.63,0.63,0.63,0.63,0.63,0.6385,0.6458,0.6107,0.6006,0.5986,0.5758,0.5132,0.4309,0.3407,0.2424,0.1546,0.0,0.0,0.0,0.0,0.0,0.0,0.0,0.0,0.0,0.0,0.0,0.0,-0.0458,-0.0524,-0.0834,0.0,0.0,0.0,0.0,0.0,0.0,0.0,0.0,0.0,0.0,0.0,0.0,0.0,0.0,0.0,0.0,0.0,0.0,0.0,0.0,0.0,0.0,-0.0154,-0.0271,-0.0273,-0.1279,-0.1836,-0.1873,-0.3589,-0.4478,-0.4535,-0.5234,-0.5589,-0.5586,-0.5467,-0.5463,-0.5549,-0.5579,-0.5671,-0.5813,-0.5929,-0.6122,-0.6338,-0.6528,-0.6606,-0.674,-0.8025,-0.8511,-0.8728,0.0,0.6467,0.6525,0.6675,0.6637,0.6637,0.6793,0.6749,0.6702,0.6702,0.6766,0.6783,0.6709,0.6702,0.6668,0.6593,0.6491,0.6405,0.6405,0.6337,0.63,0.63,0.63,0.63,0.63,0.63,0.63,0.63,0.63,0.63,0.63,0.63,0.63,0.63,0.63,0.63,0.63,0.63,0.63,0.63,0.63,0.0,0.6399,0.6327,0.63,0.63,0.63,0.5944,0.5326,0.4356,0.36,0.0,0.2426,0.1581,0.0795,0.0,0.0347,0.0,0.0,0.0,0.0,0.0,0.0,0.0,0.0,-0.0652,-0.0895,-0.181,-0.1992,-0.2149,-0.2617,0.0,-0.2546,0.0,0.0,0.0,0.0,0.0,0.0,0.0,0.0,0.0,0.0,0.0,0.0,0.0,0.0,0.0,0.0,0.0,0.0,0.0,-0.0507,-0.1014,-0.1462,-0.2428,-0.3348,-0.421,-0.4593,-0.5058,-0.5508,-0.5429,-0.5436,-0.5511,-0.5511,-0.5559,-0.5701,-0.5779,-0.5898,-0.6085,-0.6238,-0.63,-0.6384,-0.7001,-0.7312,-0.7513,0.6354,0.6494,0.6624,0.6651,0.6658,0.6709,0.6861,0.6861,0.6807,0.6712,0.6885,0.6966,0.6844,0.6912,0.6895,0.6705,0.6596,0.6491,0.6433,0.6347,0.63,0.63,0.63,0.63,0.63,0.63,0.63,0.63,0.63,0.63,0.63,0.63,0.63,0.63,0.63,0.63,0.63,0.63,0.63,0.63,0.0,0.63,0.63,0.63,0.63,0.63,0.63,0.63,0.62,0.5436,0.4949,0.451,0.3538,0.2589,0.0,0.0,0.0,0.0,0.0,0.0,0.0,0.0,0.0,-0.0175,0.0,0.0,0.0,0.0,0.0,-0.2166,-0.2165,-0.2171,0.0,0.0,0.0,0.0,0.0,0.0,0.0,0.0,0.0,0.0,0.0,0.0,0.0,0.0,0.0,0.0,0.0,0.0,0.0,0.0,0.0,-0.0432,-0.1293,-0.1345,-0.2144,-0.3683,-0.3766,-0.4201,-0.4937,-0.5082,-0.5158,-0.5132,-0.5339,-0.5491,-0.5549,-0.5579,-0.5657,-0.5789,-0.6132,-0.6255,-0.6259,-0.6289,-0.6371,-0.6589,0.633,0.6327,0.6388,0.6515,0.6538,0.6549,0.6702,0.661,0.6566,0.6685,0.7061,0.7316,0.7344,0.719,0.7169,0.7451,0.6861,0.658,0.6834,0.6481,0.63,0.63,0.63,0.63,0.63,0.63,0.63,0.63,0.63,0.63,0.63,0.63,0.63,0.63,0.63,0.63,0.63,0.63,0.63,0.0,0.63,0.63,0.0,0.63,0.63,0.63,0.63,0.63,0.6303,0.0,0.5405,0.451,0.0,0.36,0.2437,0.1757,0.0,0.0,0.0,0.0,0.0,0.0,0.0,0.0,0.0,0.0,-0.0174,-0.0272,0.0,-0.0302,-0.0304,0.0,0.0,0.0,0.0,0.0,0.0,0.0,0.0,0.0,0.0,0.0,0.0,0.0,0.0,0.0,0.0,0.0,0.0,0.0,0.0,0.0,0.0,-0.0039,-0.0196,-0.1094,-0.1675,-0.1903,-0.2651,-0.3099,-0.32,-0.4,-0.4262,-0.42,-0.5177,-0.5532,-0.5433,-0.5569,-0.5599,-0.5644,-0.5939,-0.602,-0.6071,-0.6248,-0.631,-0.6323,0.6313,0.6368,0.6443,0.6501,0.6511,0.6562,0.0,0.0,0.6885,0.6903,0.7197,0.7415,0.7415,0.7982,0.8129,0.7547,0.7789,0.7677,0.6968,0.6671,0.6515,0.6515,0.647,0.6422,0.6422,0.634,0.63,0.63,0.63,0.63,0.63,0.63,0.63,0.63,0.63,0.63,0.63,0.63,0.63,0.0,0.0,0.63,0.0,0.63,0.63,0.63,0.63,0.63,0.63,0.0,0.5944,0.0,0.0,0.0,0.0,0.0,0.0,0.0,0.0,0.0,0.0,0.0,0.0,0.0,0.0102,0.0,0.0,0.0,0.0,0.0,0.0,0.0,0.0,0.0,-0.0304,0.0,0.0,0.0,0.0,0.0,0.0,0.0,0.0,0.0,0.0,0.0,0.0,0.0,0.0,0.0,0.0,0.0,0.0,0.0,0.0,-0.0432,-0.0934,-0.1419,-0.1784,-0.2246,-0.2803,-0.3174,-0.3576,-0.401,-0.4466,-0.4947,-0.5399,-0.5463,-0.5491,-0.5515,-0.5691,-0.5878,-0.6013,-0.6242,-0.6242,-0.6139,0.63,0.6381,0.6453,0.6453,0.6453,0.0,0.0,0.714,0.757,0.7658,0.8114,0.8356,0.8079,0.9179,0.9472,0.8242,0.9082,0.9183,0.7975,0.7513,0.7315,0.7429,0.6827,0.661,0.6846,0.6507,0.63,0.63,0.63,0.63,0.63,0.63,0.63,0.63,0.63,0.63,0.63,0.0,0.63,0.63,0.63,0.63,0.63,0.63,0.63,0.63,0.63,0.6272,0.6242,0.6286,0.6218,0.0,0.5908,0.0,0.0,0.0,0.0,0.0,0.2878,0.0,0.0,0.0,0.0,0.0,0.0,0.0,0.0,0.0,0.0,0.0,0.0,0.0,0.0,0.0,0.0,0.0,0.0,0.0,0.0,0.0,0.0,0.0,0.0,0.0,0.0,0.0,0.0,0.0,0.0,0.0,0.0,0.0,0.0,0.0,0.0,0.0,-0.0311,-0.0954,-0.0954,-0.1285,-0.1966,-0.2262,-0.2888,-0.3706,-0.3963,-0.4585,-0.5453,-0.5412,-0.5395,-0.5409,-0.5566,-0.5722,-0.5932,-0.6125,-0.6152,-0.6108,0.63,0.6303,0.6306,0.6306,0.6306,0.6354,0.6497,0.7718,0.8721,0.8987,1.0282,1.0798,0.9819,1.0882,1.1153,1.0004,1.0723,1.1025,1.0529,0.9459,0.8964,0.0,0.0,0.6874,0.7757,0.6799,0.63,0.63,0.63,0.63,0.63,0.63,0.63,0.63,0.63,0.63,0.63,0.63,0.63,0.63,0.63,0.63,0.63,0.0,0.63,0.63,0.63,0.0,0.0,0.6248,0.6009,0.0,0.0,0.0,0.0,0.0,0.0,0.0,0.0,0.0,0.0,0.2742,0.0,0.0,0.0,0.0,0.1013,0.0,0.0,0.0,0.0,0.0,0.0,0.0,0.0,0.0,0.0,0.0,0.0,0.0,0.0,0.0,0.0,0.0,0.0,0.0,0.0,0.0,0.0,0.0,0.0,0.0,0.0,0.0,0.0,0.0,0.0,-0.0039,-0.0039,-0.0039,-0.0118,-0.1173,-0.2121,-0.2969,-0.3812,-0.4717,-0.5569,-0.5457,-0.5395,-0.5409,-0.5566,-0.5596,-0.564,-0.5928,-0.6129,-0.6293,0.7419,0.7493,0.7379,0.7308,0.7292,0.7616,0.8618,0.9419,1.0111,1.0641,1.1216,1.1589,1.1663,1.278,1.3013,1.1711,1.255,1.2636,1.1426,1.088,0.0,1.0488,0.9761,0.9312,0.0,0.0,0.0,0.8275,0.8275,0.7936,0.7292,0.7292,0.6945,0.63,0.63,0.6679,0.0,0.0,0.0,0.0,0.0,0.6911,0.63,0.0,0.63,0.6286,0.6146,0.6139,0.0,0.6125,0.6006,0.5898,0.5959,0.5793,0.5508,0.5329,0.5198,0.0,0.0,0.0,0.4759,0.4176,0.0,0.0,0.0,0.0,0.0,0.0,0.0,0.0,0.0,0.0,0.0,0.0,0.0,0.0,0.0,0.0,0.0,0.0,0.0,0.0,0.0,0.0,0.0,0.0,0.0,0.0,0.0,0.0,0.0,0.0,0.0,0.0,0.0,0.0,0.0,0.0,0.0,0.0,0.0,-0.0392,-0.1006,-0.1847,-0.2167,-0.3145,-0.4527,-0.4504,-0.4855,-0.5399,-0.545,-0.5535,-0.5613,-0.5806,-0.5854,-0.5866,0.8737,0.8672,0.848,0.8465,0.851,0.8902,0.9922,1.0894,1.1725,1.2338,1.2947,1.3312,1.3232,1.4365,1.4532,0.0,1.4032,1.417,1.2962,1.2501,0.0,1.2173,1.1289,1.0731,0.0,0.0,0.0,0.0,0.0,0.9071,0.8351,0.8351,0.7974,0.7365,0.7365,0.7744,0.8351,0.8351,0.8694,0.0,0.0,0.7936,0.0,0.0,0.6907,0.6286,0.0,0.6139,0.6162,0.6027,0.5956,0.5912,0.5912,0.582,0.5684,0.5776,0.5776,0.5776,0.5911,0.5956,0.0,0.5242,0.506,0.0,0.3825,0.0,0.0,0.0,0.0,0.0,0.0,0.0,0.0,0.0,0.0,0.0,0.0,0.2314,0.0,0.0,0.0,0.0,0.0,0.0,0.0,0.0033,0.0,0.0,0.0,0.0,0.0,0.0,0.0,0.0,0.0,0.0,0.0,0.0,0.0,0.0,0.0,0.0,-0.0506,-0.1413,-0.1328,-0.2193,-0.3598,-0.3569,-0.3882,-0.4486,-0.4788,-0.4944,-0.5074,-0.5565,-0.5701,-0.5688,1.0185,0.9855,0.9604,0.986,0.9972,1.0187,1.0559,1.2135,1.3481,1.413,1.5422,1.5846,1.4592,1.5558,1.5742,1.416,1.5118,1.5611,1.5089,1.4281,0.0,0.0,1.2118,1.1233,1.1772,0.0,0.0,0.0,0.0,0.9653,0.9372,0.9372,0.9334,0.9296,0.9296,0.0,0.9372,0.9372,0.9372,0.9372,0.9372,0.9334,0.9296,0.9296,0.8118,0.6402,0.6363,0.6235,0.6078,0.603,0.5932,0.5813,0.5813,0.5806,0.5803,0.581,0.5915,0.5963,0.5861,0.6074,0.6228,0.5898,0.0,0.0,0.0,0.0,0.4335,0.0,0.0,0.0,0.0,0.0,0.0,0.0,0.0,0.0,0.0,0.0,0.0,0.0,0.0,0.0,0.0,0.0,0.0941,0.014,0.0034,0.0,0.0,0.0,0.0,0.0,0.0,0.0,0.0,0.0,0.0,0.0,0.0,0.0,0.0,0.0,-0.0549,-0.1524,-0.1303,-0.1856,-0.2825,-0.2677,-0.2649,-0.2783,-0.3616,-0.3949,-0.4064,-0.5176,-0.5671,-0.5813,1.0802,1.1778,1.2512,1.2575,1.2481,1.2619,0.0,0.0,0.0,0.0,1.6265,1.6573,1.6482,1.6768,1.6613,1.5755,1.5959,0.0,0.0,0.0,0.0,1.5077,1.434,1.3689,1.3127,1.2667,1.2117,1.1515,0.0,0.0,1.0415,1.0415,1.0002,0.9296,0.0,0.9707,1.0415,1.0415,1.0415,1.0415,1.0415,0.997,0.9296,0.0,0.8811,0.8078,0.7418,0.7258,0.7201,0.6289,0.5966,0.5936,0.5936,0.5891,0.5823,0.5902,0.5959,0.601,0.6122,0.6238,0.6279,0.6201,0.6211,0.6161,0.0,0.0,0.0,0.0,0.0,0.0,0.0,0.0,0.0,0.0,0.0,0.0,0.0,0.0,0.0,0.4859,0.0,0.0,0.0,0.1696,0.1218,0.0989,0.036,0.0,0.0,0.0,0.0,0.0,0.0,0.0,0.0,0.0,0.0,0.0,0.0,0.0,0.0,0.0,-0.0157,-0.0392,-0.0342,-0.0861,-0.1713,-0.1661,-0.2072,-0.2722,-0.2935,-0.3045,-0.3215,-0.4861,-0.5549,-0.565,1.2138,1.3205,1.3986,1.3986,0.0,0.0,1.4616,1.493,0.0,1.6172,1.6526,0.0,1.6811,1.6817,1.663,1.6119,1.6079,0.0,1.5791,0.0,0.0,1.5411,1.5117,1.4549,1.362,1.3447,0.0,1.2305,0.0,0.0,1.1465,1.1465,1.113,0.0,0.0,1.0944,1.1465,1.1465,1.1465,1.1465,1.1465,1.113,0.0,1.0614,1.0479,1.0194,0.9274,0.8631,0.8141,0.7399,0.7265,0.7347,0.6823,0.6674,0.6604,0.6256,0.6132,0.6263,0.6808,0.6644,0.6412,0.6834,0.6641,0.63,0.63,0.63,0.6276,0.0,0.0,0.0,0.0,0.0,0.0,0.0,0.0,0.0,0.0,0.0,0.0,0.0,0.5027,0.0,0.0,0.2312,0.1474,0.1867,0.1161,0.0665,0.0,0.0,0.0,0.0,0.0,0.0,0.0,0.0,0.0,0.0,0.0,0.0,0.0,0.0,0.0,0.0,0.0,-0.0265,-0.0716,-0.0724,-0.106,-0.1569,-0.1931,-0.2344,-0.2811,-0.3849,-0.4498,-0.499,1.3613,1.4133,1.4583,0.0,0.0,0.0,0.0,1.5471,0.0,1.6382,0.0,1.6607,1.6359,1.6342,1.6152,1.5804,0.0,1.5784,1.5784,1.5792,1.5658,1.5404,1.5084,1.4509,1.362,1.3567,1.3127,0.0,0.0,0.0,1.2245,1.2285,0.0,0.0,0.0,0.0,0.0,1.2245,1.2265,1.2305,1.2305,1.2305,1.2305,1.2305,1.2278,1.2128,1.1261,1.0129,0.9025,0.8776,0.8978,0.9105,0.8032,0.7851,0.7817,0.6919,0.6665,0.6868,0.7744,0.7365,0.6911,0.7783,0.7326,0.6683,0.6683,0.6683,0.6683,0.6683,0.6549,0.6416,0.0,0.0,0.0,0.0,0.0,0.0,0.0,0.0,0.0,0.0,0.0,0.0,0.0,0.0,0.2017,0.2811,0.2158,0.0,0.0,0.0,0.0,0.0036,0.0,0.0075,0.0196,0.0,0.0079,0.0196,0.0079,0.0,0.0,0.0,0.0,0.0,0.0,0.0,0.0,0.0,0.0,-0.007,-0.0847,-0.1642,-0.2344,-0.2477,-0.3011,-0.3806,1.4001,1.4482,0.0,0.0,0.0,1.5571,1.5671,1.5565,1.5838,1.6911,1.6827,1.6687,1.664,1.642,1.6152,1.5804,1.5784,0.0,0.0,0.0,0.0,1.5398,1.4883,1.4295,1.3613,1.3367,1.2966,0.0,0.0,0.0,1.1986,0.0,0.0,0.0,0.0,0.0,1.198,1.198,0.0,1.2305,1.2305,1.2305,1.2305,1.2305,1.2151,1.1944,1.1758,1.1174,1.0336,0.9452,0.9236,0.9261,0.8918,0.8929,0.8997,0.8704,0.8707,0.8803,0.8993,0.8917,0.8808,0.8993,0.8922,0.877,0.877,0.877,0.877,0.877,0.799,0.7277,0.7245,0.0,0.0,0.0,0.0,0.0,0.0,0.0,0.0,0.0,0.0,0.4737,0.0,0.0,0.0,0.0,0.0,0.0,0.0,0.0,0.0,0.0,0.0,0.0,0.0,0.0,0.0432,0.1293,0.0432,0.0,0.0,0.0,0.0,0.0,0.0,0.0,0.0,0.0,0.0,0.0,-0.0169,-0.0337,-0.0572,-0.1274,-0.1641,-0.1911,1.4703,0.0,0.0,0.0,0.0,0.0,0.0,1.5712,1.5825,1.6393,1.6339,1.6253,1.6253,1.6126,1.5985,1.5791,1.5784,1.5718,1.5611,1.5478,1.5264,1.4957,1.4522,1.4021,1.3393,1.3126,1.2752,1.2305,0.0,0.0,1.1906,0.0,0.0,1.165,0.0,1.1986,0.0,0.0,0.0,1.2305,1.2305,1.2305,1.2305,1.2305,1.2218,1.2091,1.2091,1.1879,1.1483,1.0869,1.0726,1.074,1.0162,1.0021,0.9981,0.9388,0.9248,0.941,0.9933,0.9707,0.941,0.9927,0.9669,0.9296,0.9296,0.9296,0.9296,0.9296,0.8835,0.8426,0.8426,0.7567,0.0,0.0,0.0,0.0,0.0,0.0,0.0,0.0,0.0,0.0,0.0,0.0,0.0,0.0,0.0,0.0,0.0,0.0,0.0,0.0,0.0,0.0,0.0,0.0,0.0,0.2386,0.1839,0.1604,0.1604,0.1058,0.0824,0.0784,0.0235,0.0,0.0,0.0,0.0,0.0,0.0,0.0,-0.0067,-0.0471,-0.0638,-0.0841,1.5304,1.5264,0.0,0.0,1.5444,1.5565,1.5792,1.5784,1.5872,1.5951,1.5858,1.5804,1.5919,1.5818,1.5784,1.5784,1.5772,1.5645,1.5411,1.5277,1.5003,1.4543,1.4182,1.3748,1.322,1.2945,1.2643,0.0,0.0,0.0,0.0,0.0,0.0,0.0,0.0,0.0,0.0,0.0,1.2245,1.2305,1.2305,1.2305,1.2305,1.2305,1.2305,1.2305,1.2305,1.2305,1.2265,1.2074,1.2118,1.215,1.1354,1.1124,1.0975,1.0158,0.9938,1.0121,1.0901,1.0533,1.0126,1.0901,1.0527,0.9938,0.9938,0.9938,0.9938,0.9938,0.9782,0.9561,0.9334,0.8651,0.0,0.0,0.0,0.0,0.0,0.0,0.0,0.0,0.0,0.0,0.5412,0.0,0.0,0.0,0.0,0.0,0.3015,0.0,0.0,0.0,0.0,0.3119,0.3435,0.0,0.3202,0.3435,0.3202,0.3085,0.3085,0.2268,0.1919,0.188,0.1019,0.0548,0.0349,0.0334,0.0215,0.0,0.0,0.0,0.0,0.0,0.0,-0.0203,0.0,0.0,0.0,0.0,0.0,1.5751,1.5778,1.5784,1.6019,1.6553,1.6159,1.5932,1.6206,1.5992,1.5784,1.5784,1.5585,1.5424,1.5398,1.4897,1.4576,1.4479,1.3939,1.3493,1.322,1.2945,1.2643,0.0,0.0,1.2017,0.0,0.0,0.0,0.0,0.0,0.0,0.0,1.1946,1.2094,1.2305,1.2305,1.2305,1.2305,1.2305,1.2305,1.2305,1.2305,1.2305,1.2298,1.2271,1.2278,1.2261,1.2187,1.215,1.215,1.204,1.204,1.204,1.2114,1.2077,1.204,1.215,1.2077,1.204,1.204,1.204,1.204,1.204,1.1279,1.0378,0.9485,0.9221,0.914,0.0,0.0,0.0,0.0,0.0,0.7241,0.6962,0.0,0.0,0.0,0.5535,0.0,0.0,0.5339,0.0,0.0,0.0,0.0,0.2795,0.0,0.3536,0.453,0.3593,0.3593,0.453,0.3552,0.3085,0.3085,0.3007,0.2968,0.2968,0.2851,0.2279,0.1437,0.1435,0.0861,0.0,0.0,0.0,0.0,0.0,0.0,-0.0034,0.0,0.0,0.0,0.0,0.0,0.0,0.0,1.7576,1.8125,1.8345,1.6741,1.5685,1.5972,1.6169,1.6344,1.649,1.6846,1.7023,1.687,1.6604,1.627,1.586,1.5389,1.4987,1.4661,1.4393,1.3872,0.0,0.0,0.0,0.0,0.0,0.0,0.0,0.0,1.37,1.3821,1.3229,1.3057,1.3098,1.2519,1.2305,1.2305,1.2305,1.2305,1.2305,1.2305,1.2305,1.2305,1.2305,1.2305,1.2305,1.2305,1.2305,1.2305,1.2305,1.2305,1.2305,1.2305,1.2305,1.2305,1.2305,1.2305,1.2305,1.2305,1.2305,1.2305,1.2305,1.1959,1.1583,1.1174,1.0608,1.019,0.0,0.0,0.0,0.0,0.0,0.0,0.7937,0.0,0.7044,0.0,0.0,0.0,0.0,0.0,0.0,0.0,0.0,0.0,0.3876,0.0,0.5119,0.567,0.5237,0.5237,0.567,0.5237,0.504,0.5002,0.4373,0.3709,0.3085,0.3085,0.2891,0.249,0.2502,0.1888,0.0944,0.0969,0.058,0.0,0.0,0.0,0.0,1.6882,0.0,1.6671,0.0,1.7421,1.7979,1.8187,1.8948,1.9497,1.9497,1.7614,1.6404,1.6672,1.6929,1.7161,1.7354,1.7814,1.794,1.763,1.754,1.7195,1.6524,1.6185,0.0,1.5626,1.5345,1.4843,1.4135,1.4843,0.0,0.0,0.0,0.0,0.0,1.4533,1.4993,1.5163,1.445,1.4135,1.4099,1.3411,1.3164,1.3164,1.3164,1.3164,1.3127,1.2806,1.2696,1.2659,1.2372,1.2305,1.2305,1.2305,1.2305,1.2305,1.2305,1.2305,1.2305,1.2305,1.2305,1.2305,1.2305,1.2305,1.2305,1.2305,1.2305,1.2305,1.2305,1.2305,1.2305,1.2305,1.1731,1.1236,1.1236,0.0,0.0,0.0,0.0,0.0,0.0,0.8798,0.826,0.7402,0.7262,0.0,0.0,0.0,0.0,0.0,0.0,0.0,0.0,0.0,0.0,0.6296,0.63,0.63,0.63,0.63,0.63,0.6261,0.5512,0.4766,0.4059,0.4059,0.387,0.3581,0.3555,0.2955,0.2036,0.2056,0.1392,0.0477,0.0481,0.0275,0.0,1.9451,1.9443,1.9443,1.9443,1.9443,1.9488,1.9497,1.9488,1.9497,1.9497,1.8825,1.8477,1.8847,1.8464,1.8156,1.8208,1.7974,1.7614,1.7131,1.6876,1.6507,0.0,0.0,1.5589,1.5581,1.5345,1.5199,1.5163,0.0,0.0,1.4687,0.0,1.4877,1.519,1.519,1.5199,1.5199,1.5199,1.5163,1.5163,1.5163,1.5163,1.5163,1.5163,1.5163,1.5021,1.4027,1.3673,1.3528,1.2629,1.2305,1.2305,1.2305,1.2305,1.2305,1.2305,1.2305,1.2305,1.2305,1.2305,1.2305,1.2305,1.2305,1.2305,1.2305,1.2305,1.2305,1.2305,1.2305,1.2305,1.2305,1.2298,1.2261,1.2261,0.0,0.0,0.0,0.0,0.0,1.0587,0.9679,0.9006,0.8804,0.8548,0.0,0.0,0.0,0.0,0.0,0.0,0.0,0.58,0.6136,0.0,0.63,0.63,0.63,0.63,0.63,0.63,0.63,0.63,0.6261,0.6261,0.6261,0.5667,0.4675,0.4679,0.4068,0.3083,0.3079,0.2464,0.1576,0.1583,0.0895,0.0,1.9497,1.9497,1.9497,1.9497,2.0169,2.0711,2.0711,2.1445,2.1859,2.1581,2.1321,2.0996,2.0537,1.9447,1.8821,0.0,1.9159,1.9155,0.0,1.8675,1.8258,1.7778,1.7675,1.7517,1.7239,1.7144,1.6793,1.614,0.0,0.0,0.0,1.599,1.6061,1.6175,1.6828,1.7113,1.7079,1.6437,1.614,1.6105,1.5446,1.5199,1.5199,1.5199,1.5199,1.5163,1.4843,1.4736,1.4665,1.4378,1.4271,1.4271,1.4271,1.3375,1.2305,1.2305,1.2305,1.2305,1.2305,1.2305,1.2305,1.2305,1.2305,1.2305,1.2305,1.2305,1.2305,1.2305,1.2305,1.2305,1.2305,1.2305,1.2305,1.2305,1.2305,0.0,0.0,0.0,0.0,1.1504,1.1215,1.0669,0.977,0.9604,0.0,0.0,0.0,0.0,0.0,0.0,0.0,0.0,0.6156,0.0,0.63,0.63,0.63,0.63,0.63,0.63,0.63,0.63,0.63,0.63,0.63,0.6103,0.5783,0.5777,0.5164,0.4178,0.4182,0.3556,0.2621,0.2608,0.2422,0.2014,2.0854,2.0854,2.0854,2.0854,2.1489,2.1987,2.1987,2.2633,2.2945,2.2568,2.2373,2.2012,2.1268,2.0227,0.0,1.9571,1.9793,1.9775,1.9416,1.9189,1.8848,1.8383,1.8364,1.8247,1.8018,1.8008,0.0,1.7139,1.7716,1.7681,1.7139,1.7139,1.7139,1.7139,1.7759,1.8008,1.7974,1.7354,1.7139,1.707,1.6472,1.6263,1.6263,1.6263,1.6263,1.6193,1.5869,1.5728,1.5685,1.5305,1.5199,1.5199,1.5199,1.4378,1.3302,1.2952,1.2592,1.2305,1.2305,1.2305,1.2305,1.2305,1.2556,1.2842,1.2842,1.2556,1.2305,1.2305,1.2305,1.2305,1.2305,1.2305,1.2305,1.2305,1.2305,1.2305,1.2305,0.0,0.0,0.0,0.0,0.0,0.0,1.0837,1.0201,0.0,0.0,0.0,0.0,0.0,0.0,0.5993,0.6179,0.0,0.63,0.63,0.63,0.63,0.63,0.63,0.63,0.63,0.63,0.63,0.63,0.63,0.63,0.63,0.5889,0.531,0.531,0.4627,0.3685,0.3684,0.3454,0.3025,2.3091,2.3091,2.3091,0.0,2.3091,0.0,2.3091,2.3091,2.2935,2.2529,2.2158,2.1738,2.12,2.084,2.0449,1.9912,0.0,0.0,0.0,1.8568,1.8383,1.8027,1.8008,1.8008,1.8008,1.8008,1.8008,1.8008,1.8008,1.8008,1.8008,1.8008,1.8008,1.8008,1.8008,1.8008,1.8008,1.8008,1.8008,1.8008,1.8008,1.8008,1.8008,1.8008,1.8008,1.7906,1.6991,1.6706,1.6567,1.5693,1.5376,1.5376,1.5376,1.534,1.5092,1.4099,1.3208,1.2519,1.2519,1.2519,1.2519,1.2519,1.3164,1.381,1.381,1.3127,1.2519,1.2519,1.2445,1.2409,1.2409,1.2409,1.2378,1.2305,1.2342,1.2372,1.2305,0.0,0.0,0.0,0.0,0.0,0.0,1.2058,1.1569,0.0,0.0,0.0,0.0,0.0,0.6227,0.6227,0.6412,0.649,0.6412,0.6412,0.6377,0.63,0.63,0.63,0.63,0.63,0.63,0.63,0.63,0.63,0.63,0.63,0.63,0.63,0.63,0.5708,0.4806,0.4804,0.4162,0.33,0.0,0.0,2.3091,2.3091,2.3091,2.3091,2.3091,2.3091,2.2828,2.2129,2.2227,2.1943,2.084,2.0937,2.0635,1.9531,1.9434,1.9209,1.8637,1.8295,1.8115,1.8018,1.8008,1.8008,1.8008,1.8008,1.8008,1.8008,1.8008,1.8008,1.8008,1.8008,1.8008,1.8008,1.8008,1.8008,1.8008,1.8008,1.8008,1.8008,1.8008,1.8008,1.8008,1.8008,1.8008,1.7974,1.7759,1.7681,1.7647,1.7398,1.7329,1.7329,1.7329,1.6862,1.607,1.5128,1.47,1.4522,1.4522,1.4522,1.4522,1.4522,1.4665,1.4843,1.4843,1.4665,1.4522,1.4522,1.3918,1.3382,1.3382,1.3382,1.3127,1.2409,1.2915,1.3135,1.2409,1.2305,0.0,0.0,1.2305,1.2305,1.2305,1.2238,1.1788,0.0,0.0,0.0,0.0,0.8802,0.8501,0.8501,0.8552,0.8237,0.7442,0.7442,0.7061,0.63,0.63,0.63,0.63,0.63,0.63,0.63,0.63,0.63,0.63,0.63,0.63,0.63,0.63,0.616,0.5938,0.5931,0.5767,0.5416,2.3091,2.3091,2.3091,2.3091,2.3091,2.3091,2.3091,2.2925,2.2617,2.1973,2.1914,2.1582,2.0703,2.0781,2.0566,1.9648,1.9394,1.9014,1.8354,1.8135,1.8008,1.8008,1.8008,1.8008,1.8008,1.8008,1.8008,1.8008,1.8008,1.8008,1.8008,1.8008,1.8008,1.8008,1.8008,1.8008,1.8008,1.8008,1.8008,1.8008,1.8008,1.8008,1.8008,1.8008,1.8008,1.8008,1.8008,1.8008,1.8008,1.8008,1.8008,1.8008,1.8008,1.7647,1.7148,1.662,1.5877,1.5199,1.5199,1.5199,1.5305,1.572,1.5517,1.5305,1.572,1.5517,1.5199,1.5199,1.4772,1.4386,1.4386,1.4386,1.4199,1.3702,1.3665,1.3528,1.3025,1.2556,0.0,1.2879,1.2556,1.2482,1.2915,1.2556,1.207,1.1545,1.1502,0.0,1.0689,1.0689,1.0239,0.9334,0.9296,0.9031,0.8504,0.8504,0.8199,0.7668,0.7668,0.7668,0.7668,0.7668,0.7668,0.7629,0.7173,0.6984,0.6949,0.649,0.63,0.63,0.63,0.63,0.63,0.63,0.6255,0.6066,2.3091,2.3091,2.3091,2.3091,2.3091,2.3091,2.3091,2.2783,2.2363,2.1943,2.1504,2.1064,2.0654,2.0605,2.0429,1.9951,1.9531,1.8955,1.812,1.8047,1.8008,1.8008,1.8008,1.8008,1.8008,1.8008,1.8008,1.8008,1.8008,1.8008,1.8008,1.8008,1.8008,1.8008,1.8008,1.8008,1.8008,1.8008,1.8008,1.8008,1.8008,1.8008,1.8008,1.8008,1.8008,1.8008,1.8008,1.8008,1.8008,1.8008,1.8008,1.8008,1.8008,1.8008,1.8008,1.8008,1.6862,1.5623,1.5623,1.5623,1.5799,1.6602,1.6219,1.5834,1.6636,1.6184,1.5623,1.5623,1.5517,1.5411,1.5411,1.5411,1.5376,1.5234,1.4593,1.4099,1.3954,0.0,1.3018,1.3846,1.3237,1.2989,1.3637,1.2989,1.2445,1.2305,1.2305,1.2305,1.2305,1.2305,1.1508,0.9825,0.975,0.9674,0.9518,0.9372,0.9296,0.9296,0.9296,0.9296,0.9296,0.9296,0.9296,0.9258,0.8389,0.8012,0.7974,0.7099,0.6679,0.6528,0.6528,0.6451,0.63,0.63,0.6162,0.599,2.3091,2.3091,2.3091,2.3091,2.3091,2.3091,2.3091,2.2783,2.2363,2.1943,2.1504,2.1064,2.0654,2.0605,2.0429,1.9951,1.9531,1.9072,1.8539,1.8178,1.8008,1.8008,1.8008,1.8008,1.8008,1.8008,1.8008,1.8008,1.8008,1.8008,1.8008,1.8008,1.8008,1.8008,1.8008,1.8008,1.8008,1.8008,1.8008,1.8008,1.8008,1.8008,1.8008,1.8008,1.8008,1.8008,1.8008,1.8008,1.8008,1.8008,1.8008,1.8008,1.8008,1.8008,1.8008,1.8008,1.7794,1.7579,1.7579,1.7579,1.7613,1.7759,1.7691,1.7613,1.7759,1.7691,1.7579,1.7579,1.6932,1.6393,1.6385,1.6367,1.6105,1.534,1.572,1.586,1.5092,0.0,1.4807,1.495,1.4843,1.4486,1.3781,1.3564,1.3164,1.2372,1.2305,1.2305,1.2305,1.2305,1.215,1.1848,1.1811,1.1434,1.0565,0.9707,0.9296,0.9296,0.9296,0.9296,0.9296,0.9296,0.9296,0.9296,0.9145,0.9069,0.9074,0.8884,0.8351,0.7553,0.7553,0.7061,0.63,0.63,0.6162,0.5973,2.3091,2.3091,2.3091,2.3091,2.3091,2.3091,2.3091,2.2588,2.2109,2.1904,2.1299,2.0791,2.0625,2.0605,2.0429,1.9951,1.9531,1.9102,1.8627,1.8208,1.8008,1.8008,1.8008,1.8008,1.8008,1.8008,1.8008,1.8008,1.8008,1.8008,1.8008,1.8008,1.8008,1.8008,1.8008,1.8008,1.8008,1.8008,1.8008,1.8008,1.8008,1.8008,1.8008,1.8008,1.8008,1.8008,1.8008,1.8008,1.8008,1.8008,1.8008,1.8008,1.8008,1.8008,1.8008,1.8008,1.8008,1.8008,1.8008,1.8008,1.8008,1.8008,1.8008,1.8008,1.8008,1.8008,1.8008,1.8008,1.7647,1.7364,1.7339,1.7364,1.7217,1.6793,1.6645,0.0,0.0,1.5517,1.5376,1.5895,1.5517,1.5234,1.5261,1.4799,1.4343,1.3875,1.3339,1.3062,1.3062,1.2556,1.2305,1.2305,1.2305,1.2077,1.162,1.1136,1.0913,1.0913,1.0913,1.0913,1.0913,1.0913,1.0913,1.0875,1.0346,1.0115,1.0078,0.9523,0.9031,0.8613,0.8613,0.8313,0.7884,0.7698,0.754,0.7318,2.3081,2.3091,2.3091,2.3091,2.3091,2.3091,2.3091,2.251,2.1992,2.1894,2.1201,2.0684,2.0615,2.0605,2.0429,1.9951,1.9531,1.9102,1.8627,1.8208,1.8008,1.8008,1.8008,1.8008,1.8008,1.8008,1.8008,1.8008,1.8008,1.8008,1.8008,1.8008,1.8008,1.8008,1.8008,1.8008,1.8008,1.8008,1.8008,1.8008,1.8008,1.8008,1.8008,1.8008,1.8008,1.8008,1.8008,1.8008,1.8008,1.8008,1.8008,1.8008,1.8008,1.8008,1.8008,1.8008,1.8008,1.8008,1.8008,1.8008,1.8008,1.8008,1.8008,1.8037,1.8135,1.812,1.812,1.812,1.8232,1.8252,1.8047,1.8086,1.8125,1.8027,0.0,0.0,0.0,1.6422,1.6246,1.6991,1.6422,1.614,1.6576,1.5939,1.5438,1.5234,1.4486,1.4063,1.4063,1.3382,1.2879,1.2629,1.2409,1.2305,1.2305,1.2305,1.2305,1.2305,1.2305,1.2305,1.2305,1.2305,1.2305,1.2261,1.1465,1.1162,1.1087,1.0308,0.9863,0.9631,0.9631,0.9523,0.9266,0.8918,0.8698,0.8454,2.3023,2.3091,2.3091,2.3091,2.3091,2.3091,2.3091,2.2711,2.2324,2.1934,2.1484,2.1025,2.0644,2.0605,2.0429,1.9951,1.9531,1.9102,1.8627,1.8208,1.8008,1.8008,1.8008,1.8008,1.8008,1.8008,1.8008,1.8008,1.8008,1.8008,1.8008,1.8008,1.8008,1.8008,1.8008,1.8008,1.8008,1.8008,1.8008,1.8008,1.8008,1.8008,1.8008,1.8008,1.8008,1.8008,1.8008,1.8008,1.8008,1.8008,1.8008,1.8008,1.8008,1.8008,1.8008,1.8008,1.8008,1.8008,1.8008,1.8008,1.8008,1.8008,1.8008,1.8115,1.8461,1.8559,1.8559,1.8559,1.8906,1.8955,1.8154,1.8295,1.8432,1.8076,0.0,0.0,1.8385,1.8408,1.8373,1.8443,1.8408,1.7884,1.6707,1.6532,1.614,1.5269,1.5128,1.5092,1.5092,1.5021,1.4557,1.3637,1.2732,1.2305,1.2305,1.2305,1.2305,1.2305,1.2305,1.2305,1.2305,1.2305,1.2305,1.2305,1.2224,1.2187,1.2187,1.2114,1.1545,1.0677,1.0677,1.0115,0.9266,0.8918,0.8698,0.8559,2.2666,2.2711,2.2789,2.3052,2.3091,2.3013,2.275,2.2393,2.1973,2.1533,2.1094,2.0654,2.0205,2.0166,1.9883,1.9143,1.8939,1.8666,1.8247,1.8061,1.8008,1.8008,1.8008,1.8008,1.8008,1.8008,1.8269,1.8821,1.8821,1.9077,1.9617,1.9617,1.9617,1.9595,1.9044,1.8821,1.8754,1.8236,1.8008,1.8008,1.8008,1.8008,1.8008,1.8008,1.8008,1.8008,1.8008,1.8008,1.8008,1.8008,1.8008,1.8008,1.8008,1.8008,1.8008,1.8008,1.8008,1.8008,1.8008,1.8008,1.8008,1.8008,1.8008,1.8115,1.851,1.8598,1.8676,1.8984,1.918,1.9189,1.8867,1.8676,1.8637,1.8789,0.0,1.851,1.8984,1.9043,1.8936,1.8627,1.8598,1.8292,1.7539,1.7467,1.7329,1.6975,1.6393,1.6079,1.6079,1.5517,1.5021,1.4629,1.4271,1.352,1.2298,1.2305,1.2305,1.2305,1.2305,1.2305,1.2305,1.2305,1.2305,1.2305,1.2305,1.2305,1.2305,1.2305,1.207,1.1731,1.1731,1.1508,1.11,1.0828,1.0706,1.049,2.2236,2.2422,2.2607,2.2847,2.3013,2.2955,2.2578,2.2266,2.1875,2.1268,2.0967,2.0605,2.0166,2.0,1.9629,1.8861,1.8676,1.8422,1.8037,1.8269,1.8395,1.8395,1.8144,1.8144,1.8395,1.8134,1.8428,1.9299,1.9299,1.9759,2.059,2.059,2.059,2.0558,1.9977,1.9726,1.965,1.9077,1.8821,1.8821,1.8821,1.8821,1.8821,1.8821,1.8821,1.8787,1.8496,1.8596,1.8721,1.8168,1.8361,1.8754,1.8496,1.8596,1.8754,1.8496,1.8586,1.8754,1.8496,1.8721,1.8924,1.834,1.8178,1.8315,1.887,1.8997,1.9085,1.9424,1.959,1.9609,1.9336,1.915,1.9056,1.9268,1.9043,1.8994,1.9424,1.9482,1.9326,1.8851,1.8919,1.8734,1.8076,1.8252,1.835,1.8213,1.7587,1.7165,1.7035,1.6149,1.5658,1.5658,1.534,1.4557,1.3237,1.3193,1.3193,1.3193,1.2879,1.2732,1.2739,1.2445,1.2305,1.2305,1.2305,1.2305,1.2305,1.2305,1.2305,1.2305,1.2305,1.2305,1.2265,1.2013,1.1906,1.1726,2.1838,2.2259,2.25,2.251,2.2852,2.2988,2.2568,2.25,2.2197,2.1338,2.123,2.1055,2.0644,2.0204,1.9736,1.9353,1.8887,1.8457,1.8037,1.8821,1.9299,1.9299,1.8496,1.8438,1.9299,1.8462,1.8462,1.9299,1.9299,1.9759,2.0623,2.0623,2.0623,2.0623,2.0623,2.0623,2.0623,2.059,2.059,2.059,2.059,2.059,2.059,2.059,2.059,2.0494,1.9628,1.989,2.0333,1.8586,1.9177,2.0462,1.9584,1.9911,2.043,1.9562,1.9911,2.0398,1.9562,2.0335,2.0952,1.9079,1.8607,1.8831,1.9717,1.9912,1.9912,1.9922,2.0264,2.0341,1.9453,1.9639,1.9775,1.9365,1.9297,1.9443,1.9853,1.9912,1.9756,1.9336,1.9658,1.9414,1.8135,1.8789,1.9102,1.8637,1.8598,1.8412,1.8037,1.7104,1.6602,1.6602,1.5728,1.5234,1.5234,1.5199,1.5199,1.5199,1.4207,1.3709,1.3673,1.2732,1.2335,1.2335,1.2335,1.2335,1.2335,1.2335,1.2335,1.2305,1.2305,1.2305,1.2265,1.2013,1.1906,1.1866,2.3401,2.3606,2.3906,2.4562,2.4478,2.4064,2.3298,2.348,2.3243,2.192,2.2372,2.2681,2.228,2.1711,2.1202,2.0807,2.0299,1.9965,1.9824,2.0074,2.0494,2.1112,2.0301,1.9944,2.0204,1.9944,2.0236,2.1101,2.1101,2.1553,2.2341,2.2341,2.2341,2.2341,2.1772,2.1522,2.1459,2.0846,2.059,2.059,2.059,2.059,2.059,2.059,2.059,2.0558,2.0301,2.0365,2.0526,2.0009,2.0171,2.0558,2.0301,2.0398,2.0558,2.0301,2.0398,2.0637,2.0742,2.1074,2.1086,1.9844,1.9815,2.0109,1.9934,1.9912,2.0,2.0312,2.0517,2.0527,2.0263,2.0039,1.9971,2.0194,1.9932,1.9883,2.0312,2.0107,1.9756,1.9336,1.9394,1.9209,1.8481,1.8955,1.9102,1.8637,1.8325,1.8237,1.8403,1.7879,1.7579,1.7579,1.7329,1.7157,1.7157,1.5869,1.5199,1.5199,1.4914,1.4736,1.4736,1.445,1.4343,1.4343,1.4343,1.4343,1.4343,1.4343,1.3918,1.3273,1.3273,1.2879,1.2291,1.2204,1.2171,1.2104,2.388,2.4055,2.4379,2.496,2.4893,2.4564,2.3881,2.4035,2.3822,2.2729,2.311,2.3414,2.3147,2.2461,2.1889,2.1666,2.0983,2.0751,2.1101,2.1101,2.1491,2.2353,2.1865,2.1447,2.1101,2.0782,2.1037,2.1908,2.1908,2.2322,2.3108,2.3108,2.3108,2.3078,2.2598,2.2384,2.2353,2.1803,2.1573,2.1573,2.1573,2.1573,2.1573,2.1573,2.1573,2.1542,2.1227,2.1322,2.1479,2.0814,2.0814,2.1164,2.1479,2.1573,2.1542,2.1195,2.1353,2.1627,2.1851,2.2337,2.2579,2.1788,2.1616,2.1575,2.1376,2.1005,2.0823,2.1094,2.0867,2.0712,2.1078,2.061,2.0397,2.1038,2.06,2.0264,2.0566,2.038,2.001,1.959,1.9687,1.9561,1.8955,1.9443,1.9541,1.8936,1.8662,1.8555,1.8598,1.8208,1.8086,1.8217,1.8096,1.8008,1.8008,1.6862,1.6298,1.6298,1.5939,1.5755,1.572,1.5376,1.5199,1.5199,1.5199,1.5199,1.5199,1.5199,1.4843,1.4227,1.3746,1.3408,1.3114,1.2805,1.2913,1.3056,2.377,2.4107,2.4435,2.448,2.4743,2.479,2.4397,2.4382,2.4228,2.3692,2.3697,2.377,2.377,2.2909,2.2309,2.2309,2.1449,2.1221,2.1951,2.2002,2.231,2.3078,2.3108,2.2763,2.2002,2.1227,2.1195,2.2002,2.2002,2.2384,2.3108,2.3108,2.3108,2.3108,2.3108,2.3108,2.3108,2.3108,2.3108,2.3108,2.3108,2.3108,2.3108,2.3108,2.3108,2.3005,2.2261,2.2476,2.2884,2.1353,2.1353,2.2125,2.2884,2.3108,2.2944,2.223,2.2537,2.3081,2.293,2.3818,2.473,2.448,2.3793,2.3273,2.3461,2.2776,2.214,2.214,2.1451,2.1116,2.2,2.1451,2.1155,2.2,2.1413,2.0867,2.0867,2.0827,2.0658,2.0214,2.0455,2.0386,1.9707,2.0341,2.049,1.9736,1.9545,1.9275,1.8866,1.8384,1.8247,1.8588,1.8227,1.8047,1.8008,1.8008,1.8008,1.7974,1.7139,1.674,1.6706,1.5834,1.5446,1.5446,1.5446,1.5446,1.5446,1.5446,1.5411,1.5201,1.4042,1.3986,1.4453,1.3685,1.387,1.4405,2.5838,2.5924,2.6145,2.6563,2.6343,2.5983,2.5511,2.578,2.5668,2.4791,2.5358,2.5838,2.5838,2.5225,2.482,2.482,2.3862,2.3139,2.2848,2.2823,2.2914,2.3078,2.3108,2.3005,2.2854,2.2659,2.2659,2.2823,2.2823,2.2914,2.3108,2.3108,2.3108,2.3108,2.3108,2.3108,2.3108,2.3108,2.3108,2.3108,2.3108,2.3108,2.3108,2.3108,2.3108,2.3078,2.2884,2.2944,2.3035,2.2689,2.2689,2.2884,2.3047,2.3108,2.3078,2.2884,2.2944,2.329,2.4133,2.4559,2.4993,2.5788,2.584,2.5331,2.382,2.3331,2.3184,2.3184,2.2999,2.2925,2.3147,2.2999,2.2936,2.3147,2.2999,2.285,2.285,2.2619,2.2382,2.2273,2.1633,2.1466,2.2059,2.2294,2.2444,2.2571,2.1263,2.0549,2.0762,1.9653,1.8896,1.8607,1.851,1.8305,1.8018,1.8008,1.8008,1.8008,1.7794,1.7681,1.7681,1.7476,1.7398,1.7398,1.7398,1.7398,1.7398,1.7398,1.6966,1.6271,1.5983,1.553,1.4971,1.4449,1.4344,1.44,2.6499,2.6499,2.6587,2.6876,2.6688,2.6402,2.6159,2.6338,2.6314,2.5769,2.6164,2.6499,2.6499,2.5971,2.5385,2.4883,2.4318,2.3753,2.3145,2.3108,2.3108,2.3108,2.3108,2.3108,2.3108,2.3108,2.3108,2.3108,2.3108,2.3108,2.3108,2.3108,2.3108,2.3108,2.3108,2.3108,2.3108,2.3108,2.3108,2.3108,2.3108,2.3108,2.3108,2.3108,2.3108,2.3108,2.3108,2.3108,2.3108,2.3108,2.3108,2.3108,2.3108,2.3108,2.3108,2.3108,2.3108,2.3346,2.4487,2.4788,2.5084,2.6223,2.6499,2.6233,2.517,2.4552,2.4286,2.4553,2.4013,2.3728,2.4443,2.4002,2.3672,2.4145,2.3818,2.3514,2.3514,2.3301,2.3181,2.3181,2.2699,2.259,2.3145,2.3181,2.3192,2.3214,2.2353,2.1892,2.2096,2.0792,2.0221,2.0642,1.9985,1.956,1.9337,1.9113,1.8968,1.8899,1.8473,1.8203,1.8018,1.8213,1.8159,1.8008,1.8008,1.8008,1.8008,1.8008,1.7716,1.7179,1.6398,1.6008,1.5822,1.5209,1.4989,1.4878,2.6499,2.6499,2.6499,2.6499,2.6499,2.6499,2.6499,2.6499,2.6499,2.6499,2.6499,2.6499,2.6499,2.6059,2.531,2.423,2.4142,2.3853,2.3145,2.3108,2.3108,2.3108,2.3195,2.3208,2.3108,2.3195,2.3195,2.3108,2.3108,2.3108,2.3108,2.3108,2.3108,2.3108,2.3108,2.3108,2.3108,2.3108,2.3108,2.3108,2.3108,2.3108,2.3108,2.3108,2.3108,2.3108,2.3108,2.3108,2.3108,2.3108,2.3108,2.3108,2.3108,2.317,2.3246,2.3246,2.3246,2.3496,2.4612,2.4863,2.5084,2.6223,2.6499,2.6512,2.6612,2.5974,2.5517,2.5961,2.5104,2.4671,2.5947,2.5163,2.452,2.5266,2.4681,2.4127,2.4047,2.3988,2.3988,2.3988,2.3988,2.3963,2.3781,2.3927,2.3864,2.3534,2.3359,2.3252,2.3252,2.1974,2.1767,2.2868,2.1784,2.1112,2.1037,2.0642,2.0405,2.0292,1.9553,1.8849,1.8212,1.8404,1.8305,1.8008,1.8008,1.8008,1.8008,1.8008,1.8008,1.7862,1.6384,1.6232,1.6721,1.5894,1.5569,1.5427,2.6499,2.6499,2.6499,2.6499,2.6499,2.6499,2.6499,2.6499,2.6499,2.6499,2.6499,2.6499,2.6499,2.6424,2.5933,2.4775,2.4675,2.4224,2.317,2.3108,2.3108,2.3108,2.3584,2.364,2.3108,2.3597,2.364,2.3108,2.3108,2.3108,2.3108,2.3108,2.3108,2.3108,2.3108,2.3108,2.3108,2.3108,2.3108,2.3108,2.3108,2.3108,2.3108,2.3108,2.3108,2.3108,2.3108,2.3108,2.3108,2.3108,2.3108,2.3108,2.3108,2.3446,2.3879,2.3879,2.3879,2.4117,2.5197,2.5159,2.5084,2.6223,2.6499,2.6612,2.7102,2.7097,2.7003,2.7078,2.7294,2.7556,2.774,2.7617,2.7382,2.7053,2.6872,2.6627,2.6156,2.6082,2.6082,2.6082,2.6082,2.5756,2.4898,2.5581,2.6057,2.6017,2.5227,2.472,2.472,2.3695,2.3059,2.288,2.2706,2.2425,2.2024,2.1957,2.1923,2.1889,2.1637,2.0688,1.911,1.8397,1.8057,1.8008,1.8008,1.8008,1.8008,1.8008,1.8008,1.7925,1.7381,1.722,1.7207,1.6333,1.5758,1.5419,2.6499,2.6499,2.6499,2.6499,2.6499,2.6499,2.6499,2.6499,2.6499,2.6499,2.6499,2.6499,2.6499,2.6499,2.6047,2.4888,2.4788,2.4449,2.3665,2.3584,2.3722,2.4036,2.4286,2.4311,2.4048,2.4029,2.4029,2.4048,2.3409,2.3108,2.3108,2.3108,2.3108,2.3108,2.3108,2.3108,2.3108,2.3108,2.3108,2.3108,2.3108,2.3108,2.3108,2.3108,2.3108,2.3108,2.3108,2.3108,2.3108,2.3108,2.3108,2.3158,2.3484,2.3791,2.4054,2.4368,2.4456,2.4619,2.5385,2.5435,2.5448,2.6298,2.6499,2.6637,2.719,2.7519,2.7821,2.8134,2.8147,2.8197,2.8511,2.831,2.7921,2.7369,2.7281,2.7128,2.6575,2.6499,2.6499,2.6499,2.6499,2.6314,2.5873,2.6245,2.6499,2.6499,2.6094,2.5838,2.5838,2.4886,2.4518,2.4904,2.4366,2.3839,2.3317,2.3362,2.3176,2.2808,2.2037,2.1252,2.0445,1.9484,1.8954,1.8687,1.8202,1.8008,1.8008,1.8008,1.8008,1.7973,1.7732,1.7478,1.7143,1.6108,1.5732,1.5742]}]]